GFSSW_prec_cthk_000.txt.gz
RH
25 31 32 27 21 21 21 21 20 22 20 18 20 22 17 18 18 20 25 25 28 31 24 22 22 22 19 22 33 31 34 46 52 57 53 60 60 58 50 51 46 39 36 27 27
26 32 29 23 22 21 24 22 21 20 18 19 21 22 22 23 22 24 23 25 28 26 20 20 21 21 18 32 36 34 40 47 49 50 53 53 48 49 45 41 43 34 31 30 26
27 32 24 22 21 24 26 23 22 20 19 20 24 19 28 26 25 26 23 28 25 21 21 20 20 20 28 36 35 36 36 44 44 45 46 47 43 41 32 32 28 24 28 28 25
28 30 23 20 21 26 26 24 22 21 20 19 18 25 32 28 32 29 30 27 20 20 18 18 21 29 35 35 33 33 34 34 38 44 40 37 31 27 19 20 21 18 18 20 21
30 26 20 21 25 28 25 23 20 22 22 23 26 32 34 32 28 25 26 26 23 21 24 25 34 35 36 35 32 30 30 31 32 36 34 25 21 22 15 19 21 21 24 27 29
27 21 20 25 30 31 27 23 19 18 20 23 29 37 36 36 28 27 29 28 24 27 30 35 36 36 37 35 32 28 24 25 26 25 22 18 16 10 14 22 23 22 26 30 33
24 20 24 28 30 30 27 23 21 20 22 26 37 40 34 32 29 32 28 29 26 25 36 35 37 35 34 32 30 29 24 19 16 17 19 15 10 15 23 27 26 29 33 35 38
23 22 26 28 28 28 25 22 21 22 25 33 42 46 32 30 33 31 29 31 29 30 35 36 36 35 34 30 28 26 21 17 16 15 13 12 16 21 32 30 29 32 34 35 38
22 24 28 27 29 26 22 21 23 25 30 42 47 32 31 26 28 28 32 33 33 37 37 36 34 31 29 29 27 25 24 20 17 15 16 19 27 31 30 35 31 36 38 38 38
23 26 25 27 26 23 21 26 27 31 36 42 39 35 34 27 25 28 32 34 34 34 33 34 32 29 29 27 27 21 24 28 26 23 27 28 36 36 31 35 37 40 42 44 45
26 26 23 25 23 24 29 33 34 33 29 32 35 37 33 28 22 25 31 32 35 33 34 34 33 33 29 27 24 22 31 36 31 29 35 40 40 40 37 35 40 42 46 48 49
26 22 23 21 26 32 37 41 34 33 33 30 33 30 25 21 19 26 28 33 34 35 33 28 32 31 31 31 28 30 33 37 35 35 35 43 42 39 37 36 37 37 44 51 52
25 21 24 26 35 43 36 34 34 33 34 30 29 27 26 22 16 20 23 32 33 32 28 21 30 30 31 31 40 40 33 35 39 39 39 41 42 40 40 41 44 45 49 53 55
23 22 30 40 45 40 33 33 32 32 32 29 27 28 25 21 19 19 20 30 32 33 30 28 32 33 33 40 41 42 40 38 45 45 50 43 55 45 46 48 49 53 55 56 59
21 27 37 39 40 40 34 30 27 29 40 24 25 25 26 23 20 23 24 22 25 25 23 26 29 31 35 32 30 36 37 40 43 43 45 45 51 45 48 51 53 55 56 56 53
23 33 38 42 39 40 31 28 30 43 36 24 26 28 29 25 23 27 28 27 27 30 28 29 31 32 31 30 27 27 35 41 45 47 51 40 43 46 48 47 52 55 57 58 57
30 38 35 41 38 34 31 32 41 52 25 24 22 24 25 25 26 31 31 32 32 35 37 32 32 29 29 29 27 30 34 46 48 52 51 40 42 39 41 48 55 58 59 60 55
36 38 33 41 35 32 34 35 41 39 25 20 20 21 25 22 21 23 28 31 31 33 39 37 35 27 28 27 28 29 35 46 46 54 44 41 47 43 43 47 51 54 55 54 53
37 37 35 35 34 33 33 42 44 34 25 20 20 22 25 24 23 23 26 28 27 25 32 35 30 26 30 31 31 30 35 36 48 52 54 51 42 43 44 46 44 45 47 50 55
38 37 31 32 32 34 35 43 44 33 26 21 22 23 29 28 28 26 27 28 28 31 33 36 37 29 33 34 31 30 31 32 40 40 47 45 42 42 38 38 40 42 43 47 49
41 36 31 29 31 31 39 39 41 32 26 24 26 30 30 32 33 34 34 33 30 31 37 42 41 32 30 30 32 29 27 29 31 39 42 50 41 32 34 37 40 41 43 47 50
38 34 32 28 31 34 36 39 39 31 29 29 27 28 36 41 40 38 39 36 32 32 38 46 44 46 31 31 28 26 25 25 31 27 45 45 32 30 32 35 37 41 45 48 51
32 34 34 29 32 34 34 39 39 30 30 29 28 30 40 49 51 44 42 38 35 31 36 40 43 49 36 30 26 24 27 28 29 35 38 44 31 30 30 33 37 42 46 51 54
32 39 38 33 26 25 31 36 37 32 29 28 30 29 42 50 49 51 50 42 38 36 32 35 38 34 36 29 28 27 27 27 27 38 36 37 25 31 34 36 40 44 48 52 57
31 36 33 38 31 25 29 36 36 34 29 28 29 29 38 51 50 52 49 41 39 36 35 33 35 34 34 32 27 23 23 29 28 28 32 27 28 26 33 37 41 46 50 54 59
30 33 32 30 25 26 31 31 36 34 31 26 29 29 32 42 43 47 43 41 35 36 34 35 38 34 36 36 33 27 24 25 27 27 31 30 30 30 32 37 41 44 49 54 59
30 29 31 29 29 29 30 31 37 34 32 29 27 26 29 35 42 41 40 39 35 34 32 33 40 32 30 38 32 27 23 25 25 25 27 32 26 31 34 36 39 44 47 53 59

GFSSW_prec_cthk_003.txt.gz
RH
19 20 19 26 30 26 21 21 23 21 19 19 18 20 23 18 19 19 18 21 22 27 27 23 24 25 25 25 24 33 37 39 45 48 59 57 56 60 59 59 60 53 46 36 34
19 19 21 27 29 22 21 21 25 21 21 19 18 22 20 24 24 21 21 26 28 33 26 22 24 25 23 24 24 35 35 38 47 52 56 50 51 51 59 59 55 48 36 34 29
20 20 23 27 27 22 20 23 24 22 20 18 19 23 22 29 27 28 22 23 29 27 23 23 24 23 23 22 30 37 33 40 44 42 51 40 35 38 44 47 32 24 30 28 27
20 23 25 26 23 19 21 25 23 21 21 20 20 19 31 31 30 29 29 30 25 22 21 21 21 21 22 32 36 33 37 38 41 42 41 34 31 33 28 23 22 21 17 19 23
22 24 26 23 19 20 26 28 23 20 18 19 22 33 34 31 27 24 23 31 27 23 21 21 20 24 32 36 35 34 31 30 38 40 37 32 28 24 22 23 23 25 27 27 27
23 26 26 21 21 25 28 29 25 20 15 17 23 35 36 34 29 27 29 33 24 23 25 33 33 34 37 34 33 30 26 30 32 39 29 23 16 19 21 26 24 30 33 35 37
25 27 26 21 24 27 28 28 26 20 19 21 28 38 35 31 30 28 32 29 28 29 34 38 35 36 36 32 28 27 24 23 24 21 19 16 14 19 25 29 32 41 42 44 44
26 29 24 23 26 27 27 27 24 21 20 22 33 41 38 29 30 31 31 31 32 36 36 37 38 39 40 36 34 31 27 23 17 17 19 18 19 24 28 33 35 38 40 42 44
28 28 23 25 28 28 27 24 21 20 22 28 38 44 38 29 29 39 31 29 33 37 35 37 37 37 35 32 31 30 22 21 17 19 18 20 27 30 32 35 36 36 37 38 44
29 25 24 27 25 26 25 20 20 24 26 37 45 37 29 31 30 29 29 34 37 36 38 34 32 32 31 29 31 27 27 23 21 21 25 29 37 38 41 40 42 39 43 44 45
29 24 26 26 23 23 22 22 29 31 34 39 37 34 33 34 27 26 25 35 36 33 34 37 30 32 30 28 26 24 22 30 30 33 36 41 39 40 37 37 42 45 47 48 49
26 24 25 23 20 22 27 36 35 35 34 35 34 32 33 31 24 25 28 35 36 33 34 32 31 32 33 31 30 27 31 42 42 35 32 39 42 39 35 35 38 41 45 48 51
24 24 24 20 22 32 41 40 41 35 34 33 36 34 30 28 22 23 29 33 38 34 34 35 33 33 33 35 37 33 40 42 42 38 36 37 39 39 38 39 40 43 46 49 53
23 24 22 24 36 42 40 38 37 37 35 33 32 31 29 23 18 21 24 33 39 38 33 30 26 36 38 38 37 33 40 38 45 45 45 39 39 44 44 43 45 47 52 57 59
23 23 25 33 46 41 41 37 34 36 46 28 30 30 30 24 23 22 23 30 36 37 35 34 30 29 39 38 35 38 43 42 39 39 40 40 38 39 45 46 48 50 54 57 57
25 23 31 44 43 38 37 35 30 38 40 25 26 27 28 25 24 27 26 25 35 37 36 33 27 30 31 34 38 37 33 39 41 40 42 38 37 36 42 41 47 51 56 54 52
26 27 35 45 39 40 34 30 34 44 29 26 26 29 30 26 26 29 28 28 29 36 35 30 30 32 31 35 33 31 32 39 42 44 39 39 39 29 32 39 48 50 51 51 54
28 33 42 43 40 37 30 30 35 36 29 26 26 29 32 29 30 32 31 32 30 29 34 33 33 28 30 29 28 30 32 40 45 47 38 38 38 30 35 41 48 51 51 48 49
31 41 44 42 37 33 30 42 38 39 26 24 23 26 28 25 24 30 31 31 30 31 33 35 32 28 27 29 28 28 30 32 42 45 45 42 39 36 39 42 46 45 44 46 48
33 46 41 44 35 32 36 40 39 35 28 22 22 22 26 26 25 24 26 28 27 26 26 30 31 29 29 31 34 31 31 37 41 47 46 37 38 32 34 34 35 38 40 44 46
39 50 41 40 34 32 41 36 39 33 28 21 21 23 25 27 30 27 28 28 28 28 30 32 36 39 31 33 33 32 31 32 31 36 32 34 26 26 27 29 30 34 38 41 45
44 52 39 36 35 35 36 37 38 33 27 26 24 29 30 32 34 34 33 32 33 30 30 36 44 46 34 30 30 30 27 25 28 26 35 35 22 23 26 28 31 34 37 41 45
49 50 41 32 35 35 33 36 36 33 30 28 29 27 33 43 46 42 37 36 34 31 31 37 47 49 38 31 29 27 27 26 26 31 33 41 21 24 25 27 30 34 37 41 45
50 52 46 35 29 28 32 35 37 36 32 31 32 31 36 47 52 54 46 43 38 38 31 35 43 40 38 31 28 28 28 28 25 30 29 31 22 22 24 26 28 32 37 40 45
47 44 38 43 33 27 30 34 40 38 33 30 31 32 31 50 53 54 52 49 46 43 39 34 37 39 38 35 30 24 27 27 22 23 27 22 23 21 22 25 29 34 37 40 44
45 40 36 35 31 28 29 35 39 38 35 30 31 33 32 44 49 56 50 47 39 42 40 36 38 38 40 37 33 28 25 24 27 26 24 25 23 21 25 27 30 32 35 39 44
44 36 29 38 35 31 31 30 39 39 37 32 27 33 33 32 37 42 41 39 39 38 37 35 40 35 33 36 32 30 24 23 24 24 25 28 20 24 25 28 29 33 36 41 44

GFSSW_prec_cthk_006.txt.gz
RH
17 18 19 19 19 23 26 22 20 19 22 20 19 16 18 21 18 21 18 15 17 22 22 22 25 23 24 27 26 24 25 34 48 50 53 59 66 63 61 66 69 68 61 54 43
16 18 19 18 20 24 25 22 19 21 22 20 19 15 19 20 24 23 20 20 23 27 28 29 27 24 27 27 25 26 33 43 48 52 60 54 56 59 63 71 68 65 52 51 46
17 18 19 19 21 24 22 18 19 23 22 19 17 16 23 28 29 26 21 22 23 32 31 27 28 28 28 27 27 28 36 40 43 54 46 47 38 44 53 72 48 40 43 40 41
18 20 21 20 23 22 19 18 22 24 22 19 18 18 24 32 33 28 25 26 26 25 23 23 26 26 24 26 24 30 38 42 43 42 40 41 35 32 57 38 25 25 31 29 35
20 21 22 21 24 22 19 22 27 25 22 17 17 22 32 33 28 24 26 26 27 27 26 24 23 21 26 29 31 38 41 40 38 41 44 47 37 34 25 30 29 30 33 29 30
22 22 23 22 25 20 20 24 27 25 23 15 15 26 35 33 28 26 29 36 31 27 28 26 22 28 35 38 37 35 29 35 44 42 39 40 24 27 24 32 35 36 34 36 38
24 24 24 24 25 19 23 25 25 25 21 17 19 30 34 33 29 29 30 32 34 36 35 30 34 33 37 37 36 29 25 32 40 40 30 21 17 23 25 37 43 43 45 47 45
25 25 24 25 22 21 24 25 26 25 21 20 24 32 37 34 28 31 35 36 35 37 40 39 37 37 38 33 28 27 25 26 29 26 19 18 18 23 29 35 44 46 48 50 51
26 26 25 26 21 23 23 24 25 23 21 22 28 36 40 36 30 30 38 39 37 35 39 38 40 39 37 32 31 32 29 26 20 19 18 22 22 25 34 37 43 50 49 48 49
27 27 26 25 22 24 22 23 22 21 22 26 34 43 34 33 30 38 33 39 40 38 44 40 43 42 39 35 33 31 21 21 20 21 20 28 31 31 38 44 46 46 48 49 50
29 28 26 22 24 23 22 21 25 26 25 30 39 40 31 30 31 33 30 37 39 38 38 37 37 35 35 33 32 28 26 26 23 23 30 35 38 40 42 43 44 43 45 48 50
30 28 25 21 24 21 20 23 28 31 32 35 42 34 29 32 29 31 29 37 36 37 39 37 37 34 33 29 27 26 24 37 36 32 34 38 39 40 38 39 43 45 45 47 48
30 28 24 21 22 19 29 36 40 39 41 39 36 33 31 31 27 28 34 40 36 30 39 37 35 34 34 30 32 29 35 39 40 36 34 38 37 35 34 34 37 38 41 45 48
30 28 22 22 22 30 37 38 39 40 39 36 34 33 31 31 26 23 32 40 40 33 36 36 35 34 34 35 35 36 35 39 40 41 38 37 40 39 40 40 36 37 40 45 52
30 26 22 23 32 36 41 42 42 37 44 34 34 34 31 24 21 22 31 35 41 39 34 36 26 29 34 36 36 39 33 37 34 39 41 39 35 46 40 40 41 40 44 51 58
31 25 23 29 37 43 45 43 41 43 41 30 29 30 29 27 23 22 26 31 37 41 37 35 34 32 28 36 38 37 30 36 41 39 40 35 33 38 37 35 38 42 45 52 57
31 24 26 37 45 45 43 41 36 40 31 27 26 29 30 27 29 28 25 28 36 41 42 38 37 36 30 32 34 34 37 38 36 40 36 35 31 25 29 29 37 42 48 51 52
32 26 32 39 49 45 42 33 33 26 30 26 25 28 32 26 28 32 30 29 31 35 39 37 38 33 31 33 33 37 36 36 37 41 32 36 28 26 27 31 40 45 48 49 47
32 30 36 42 47 50 38 39 27 29 30 26 27 32 33 30 28 33 32 31 31 28 31 29 31 29 29 30 30 30 30 31 35 39 37 31 30 30 31 34 40 43 45 46 44
30 35 39 46 49 46 39 33 27 35 29 26 25 28 31 29 26 32 33 33 32 32 31 31 33 30 29 28 28 27 27 30 32 41 39 32 29 28 29 31 34 39 40 40 43
34 45 47 48 52 43 36 29 32 36 29 25 24 23 25 26 24 23 26 27 25 24 24 26 27 31 30 28 31 32 30 30 33 36 30 24 20 21 22 26 28 31 35 37 40
42 48 50 54 53 36 33 30 35 36 29 24 22 22 21 23 23 25 24 25 24 25 26 27 34 40 38 30 30 32 30 26 25 26 29 33 18 18 21 22 26 30 34 38 41
45 53 57 58 48 39 33 33 38 36 29 28 22 27 29 31 33 33 32 32 32 30 30 27 33 41 38 35 30 28 27 23 23 26 26 36 17 18 20 20 24 29 33 37 39
50 59 62 54 40 32 32 34 35 36 31 29 29 30 29 34 40 44 40 35 35 33 32 29 32 39 43 35 32 30 25 23 20 25 21 22 16 18 19 20 21 25 31 36 39
56 57 54 51 38 32 31 33 34 38 35 32 31 30 29 40 46 50 48 41 42 41 36 33 32 38 41 36 31 26 24 23 22 21 22 16 17 15 18 19 21 25 29 34 39
62 60 55 41 34 31 32 33 35 40 36 32 32 30 32 36 44 49 46 47 46 47 39 35 38 35 39 36 33 29 24 22 22 22 20 19 18 20 20 22 23 24 28 32 36
63 56 49 46 36 31 28 34 35 42 39 34 31 32 35 34 42 48 50 47 44 40 41 39 38 35 33 36 36 38 26 22 20 21 22 23 22 24 24 24 25 28 29 32 35

GFSSW_prec_cthk_009.txt.gz
RH
17 17 17 17 17 17 16 19 21 19 17 19 19 18 14 17 19 19 22 22 14 13 21 25 24 27 29 27 27 29 26 28 30 45 57 61 54 56 52 47 51 85 72 60 54
18 18 17 17 17 18 18 20 19 17 17 20 19 17 13 19 24 25 21 20 18 20 23 26 29 29 30 29 27 28 24 29 39 48 61 58 55 61 59 59 67 63 64 56 49
20 18 18 18 19 19 19 21 17 16 20 21 18 16 15 20 33 36 22 20 22 25 34 33 35 31 30 30 28 25 35 47 54 56 40 53 54 52 66 68 65 73 57 52 56
21 20 19 19 20 20 20 21 17 20 24 22 18 16 19 25 44 32 24 22 24 29 34 32 32 32 32 30 28 32 37 36 35 38 40 47 43 50 66 72 59 41 49 44 55
22 22 22 20 21 20 21 20 17 23 25 21 18 14 21 37 34 24 23 24 25 25 28 27 31 32 29 26 27 33 35 39 42 39 43 48 51 45 42 42 34 38 42 45 48
24 23 23 22 22 21 22 18 20 23 24 21 17 15 26 41 31 26 25 30 29 29 30 29 34 32 32 35 38 40 39 41 43 41 44 54 43 26 31 40 37 37 37 39 42
25 25 25 24 23 22 22 18 22 23 23 21 16 18 33 38 31 30 31 34 40 34 34 28 29 30 41 42 42 35 33 39 45 46 45 36 31 30 26 44 40 46 46 39 39
26 25 25 25 23 22 21 19 22 22 24 20 17 24 34 35 35 33 34 38 42 40 35 30 33 36 39 39 35 31 33 43 42 41 33 22 33 23 33 47 51 52 49 50 45
27 26 26 26 24 22 19 21 23 22 22 19 20 31 36 33 36 34 36 41 43 39 38 39 39 40 42 38 32 30 32 36 38 30 18 26 31 24 36 54 58 54 50 51 49
27 27 27 26 23 22 20 23 22 20 20 21 25 36 32 36 40 33 35 43 41 40 43 42 43 42 39 35 36 35 30 30 26 22 20 30 34 26 35 46 54 61 60 52 48
28 29 29 27 23 22 21 22 23 24 21 25 34 38 40 32 31 34 38 44 41 43 44 44 44 43 42 40 40 33 24 23 25 22 26 35 33 30 41 48 49 57 56 51 54
29 30 30 27 23 21 22 25 37 40 32 23 33 37 36 27 29 39 34 44 41 44 46 43 48 44 43 38 33 29 30 31 30 19 35 37 43 38 40 44 45 48 50 53 53
30 32 32 27 23 20 19 22 35 36 40 36 39 38 34 27 29 39 31 42 44 45 44 44 44 38 36 34 32 30 27 41 36 29 30 39 45 36 33 36 41 44 48 51 53
31 34 33 26 23 22 25 29 36 38 45 41 39 37 29 29 33 33 32 43 43 40 44 46 39 35 36 37 37 36 37 42 39 41 35 29 38 46 34 29 32 35 41 46 49
32 36 33 27 27 28 40 41 44 43 55 47 39 34 33 31 42 26 30 41 44 40 40 42 35 35 36 43 29 55 37 31 38 40 39 43 31 51 50 35 33 36 38 40 45
33 39 34 27 24 31 38 46 51 48 53 40 32 29 33 30 28 35 27 37 44 41 35 51 33 31 38 31 33 30 34 31 31 38 41 31 48 58 56 47 37 34 37 44 51
35 40 34 25 37 35 42 52 55 48 39 33 28 30 33 28 29 28 26 36 38 45 44 38 38 34 32 33 26 35 41 39 36 42 39 38 38 30 37 48 44 35 36 44 47
36 41 33 29 41 43 51 57 54 34 40 29 25 28 37 34 33 29 29 30 36 43 44 40 42 32 31 35 41 32 38 40 42 41 31 41 36 27 31 29 29 37 41 46 47
41 43 34 33 38 47 56 60 42 31 37 25 26 31 36 33 35 32 35 38 34 33 45 40 44 44 33 32 28 40 34 37 43 42 35 25 29 34 30 25 32 41 40 44 43
45 43 31 38 42 55 53 45 40 36 32 25 24 28 37 32 28 36 36 46 36 28 33 42 43 39 31 28 26 28 38 33 29 37 40 33 36 32 39 23 28 38 36 39 41
54 48 36 42 46 59 51 40 42 31 28 25 27 30 42 38 31 35 45 42 32 30 28 33 34 43 32 27 32 32 25 26 35 45 45 34 30 34 17 22 24 32 35 35 36
56 47 51 47 55 54 51 38 38 34 30 26 31 29 31 36 29 33 35 39 30 28 23 25 35 45 35 33 26 33 38 38 33 35 31 34 23 20 16 18 21 25 34 33 35
58 54 67 55 56 61 48 40 39 38 32 26 24 28 26 29 31 30 32 34 29 24 27 28 27 40 38 32 29 25 27 28 28 30 25 37 24 23 18 17 19 23 28 31 34
58 60 67 63 53 58 47 43 36 39 36 29 25 29 28 34 34 41 38 32 30 31 28 28 27 34 42 49 42 35 27 26 24 27 24 23 20 21 21 20 21 20 24 33 33
62 51 53 59 54 62 49 38 35 36 36 30 31 26 31 34 38 39 45 39 34 35 32 33 32 33 36 39 39 32 30 27 23 21 25 21 19 18 20 20 21 24 22 27 33
61 56 57 64 52 61 49 36 36 38 35 32 32 30 34 39 37 47 50 50 42 42 42 38 39 35 34 33 37 34 28 23 23 21 21 20 20 20 22 23 21 25 25 27 32
69 62 60 67 62 54 44 39 39 41 43 39 31 39 35 41 42 48 52 51 50 51 50 47 42 40 36 36 35 40 29 25 23 23 22 23 23 28 28 25 25 27 30 30 33

GFSSW_prec_cthk_012.txt.gz
RH
20 19 18 17 17 16 16 16 16 18 17 14 15 17 17 14 15 18 22 22 21 13 12 21 22 26 27 29 27 30 28 25 27 28 49 54 66 63 60 57 58 55 54 69 61
22 20 19 18 18 16 17 17 17 18 15 15 18 18 16 13 16 22 29 21 19 15 18 25 29 26 29 34 29 29 28 31 47 63 59 58 68 55 60 64 69 66 78 82 54
24 22 20 20 19 18 18 18 18 19 15 18 20 18 15 16 31 42 28 19 20 23 27 31 33 35 30 33 31 29 28 37 51 57 56 60 71 64 57 69 78 91 72 63 59
26 24 22 21 21 20 20 18 18 18 16 21 20 19 14 16 43 36 24 22 21 25 34 37 37 36 32 34 32 33 31 40 44 47 52 56 53 50 46 46 56 64 65 53 66
27 26 25 23 23 22 21 19 19 17 17 20 19 18 14 25 34 30 21 20 23 25 31 35 36 35 35 37 34 33 39 38 41 40 41 48 56 52 43 31 55 54 49 49 60
29 28 26 25 25 23 21 19 18 17 19 19 19 17 15 32 37 28 24 26 26 27 31 30 38 41 42 34 29 34 39 35 39 41 54 54 48 44 50 45 48 45 47 47 49
31 30 28 27 26 24 22 19 19 17 19 19 19 16 21 30 36 34 31 31 37 36 32 32 37 38 39 44 42 40 38 36 43 43 49 54 46 37 42 40 42 42 43 44 49
34 31 29 28 26 24 22 18 18 19 19 18 18 16 24 28 29 35 36 41 41 41 36 37 38 37 39 44 43 37 32 39 45 40 37 34 40 34 38 38 44 39 40 42 42
35 32 30 29 27 26 22 19 18 19 19 18 18 20 29 28 31 36 35 43 42 39 37 32 31 39 43 43 36 32 39 52 44 38 28 25 36 32 36 49 48 47 44 46 43
36 32 30 30 28 26 22 18 18 18 18 18 19 27 24 27 37 37 35 37 40 41 39 36 39 42 43 42 38 36 37 42 39 34 18 25 34 32 27 55 82 50 48 47 47
35 32 30 30 30 28 22 18 28 31 23 18 29 32 34 35 34 31 34 39 39 44 43 43 45 47 44 43 42 38 33 35 32 23 20 34 38 32 26 50 60 55 59 48 49
35 31 30 32 32 29 23 24 41 44 36 20 25 34 35 36 30 29 35 43 41 48 46 46 45 48 47 44 43 40 36 29 28 25 20 29 39 23 29 37 42 46 43 46 49
39 30 31 33 34 28 22 18 30 33 33 31 21 29 33 31 25 29 36 41 45 46 47 53 50 49 46 44 38 34 34 36 35 17 22 40 41 42 29 37 47 44 46 49 49
39 29 31 36 34 28 20 18 28 33 37 38 29 33 34 30 28 34 40 41 44 46 46 57 47 41 39 36 35 43 41 39 45 41 33 36 51 66 51 32 30 35 41 41 48
42 28 29 38 41 32 46 32 37 42 49 39 36 36 34 26 37 30 34 39 49 44 49 50 39 39 44 43 43 44 43 39 38 40 43 45 44 51 47 44 34 37 39 40 43
41 27 30 38 34 30 37 40 52 49 49 40 40 39 35 31 33 38 31 26 41 47 46 46 45 47 47 38 31 29 28 33 36 34 53 47 54 58 55 51 58 47 49 44 37
41 28 29 39 40 33 41 52 58 44 34 42 38 36 35 37 32 31 33 25 36 45 47 38 35 36 31 31 28 23 34 41 48 52 43 37 46 44 44 48 63 52 47 42 40
44 31 30 38 41 39 49 61 54 31 35 34 33 36 38 42 35 27 28 28 29 37 40 48 42 33 24 24 46 45 29 47 73 77 51 45 39 38 37 44 45 52 53 41 45
46 34 31 37 37 49 58 68 49 37 33 42 36 42 39 44 36 34 31 30 29 31 38 51 57 54 41 30 27 30 36 39 47 63 54 36 28 24 31 38 40 48 40 38 42
49 36 28 37 40 53 60 54 43 41 36 45 36 38 41 42 32 34 35 32 33 35 40 68 71 53 47 35 25 22 38 39 34 37 34 24 35 42 44 38 28 31 35 36 39
51 41 33 39 43 56 60 48 47 43 35 46 32 38 38 42 29 35 41 43 46 42 35 38 59 52 40 31 23 32 27 25 28 44 56 49 38 38 36 31 20 25 36 37 35
51 43 44 42 49 45 50 47 44 48 37 37 38 39 36 45 32 32 48 45 35 27 29 27 31 42 34 35 26 34 44 36 45 31 45 45 28 27 27 20 15 20 30 35 32
53 49 64 44 43 48 45 46 45 50 43 33 33 39 34 46 45 33 41 52 41 30 28 29 27 37 41 47 31 24 22 31 44 42 41 52 30 24 22 19 18 18 23 33 36
58 61 76 57 43 48 46 43 48 49 44 37 35 40 34 33 37 36 36 38 34 29 25 28 31 30 41 38 52 52 31 28 31 45 36 30 23 29 26 25 23 22 21 27 34
62 51 60 54 52 48 51 50 47 48 43 47 36 30 33 31 39 40 43 45 36 28 26 26 28 29 32 42 48 51 43 37 32 30 31 26 29 26 25 27 28 25 26 23 26
54 50 53 54 53 51 51 50 46 45 42 47 49 37 34 35 34 44 43 49 40 37 33 33 37 38 36 33 38 39 40 34 30 32 31 25 29 27 27 25 25 24 25 28 26
55 55 63 60 57 58 51 53 53 45 45 45 39 42 40 48 46 49 47 62 52 52 45 48 50 48 43 37 36 39 33 31 29 29 26 28 24 25 29 30 28 27 28 30 28

GFSSW_prec_cthk_015.txt.gz
RH
21 20 21 21 19 18 18 17 16 16 15 16 13 15 16 14 13 14 21 22 20 19 13 14 18 23 28 29 28 35 33 28 40 66 70 73 66 65 61 63 62 70 69 66 65
23 23 23 23 20 19 19 18 17 16 15 15 14 17 16 13 15 27 31 23 18 16 14 19 26 26 30 28 29 34 30 34 55 64 62 70 69 66 63 64 70 67 78 89 89
26 25 25 24 22 21 20 19 18 16 16 14 15 17 14 14 27 32 25 20 18 21 24 28 30 30 34 36 31 32 32 38 40 51 52 56 63 62 63 62 66 62 64 94 85
30 27 26 26 24 23 22 21 20 17 16 15 16 16 14 15 26 32 21 19 19 22 29 36 33 35 34 37 32 35 35 38 42 48 51 64 64 59 48 41 53 61 57 65 87
35 29 28 27 26 25 24 22 20 17 16 15 16 15 14 19 22 30 23 19 19 24 29 36 38 37 37 39 37 38 39 42 41 46 54 54 54 53 42 40 53 56 66 64 73
40 33 30 29 27 26 25 23 21 17 16 16 17 15 15 25 27 30 28 30 26 23 26 35 38 43 42 39 38 35 42 40 40 43 49 56 58 50 38 33 37 62 67 50 53
46 37 32 30 29 27 26 24 21 17 16 17 16 15 15 21 27 27 34 34 35 39 28 35 40 39 42 45 41 41 40 38 45 48 49 53 53 52 38 36 39 55 56 48 43
51 40 34 32 30 28 27 24 20 16 16 17 16 15 15 20 24 29 32 37 41 42 37 32 33 39 37 37 38 40 40 38 42 43 46 48 54 52 43 38 39 42 45 49 49
49 44 37 33 31 29 27 24 19 15 16 17 17 23 20 22 23 29 31 39 38 40 37 31 32 36 39 43 43 38 38 41 46 42 41 40 44 52 45 37 38 40 39 40 39
42 46 37 34 31 30 28 23 18 15 15 16 16 24 19 22 24 28 33 37 40 40 36 32 35 40 44 45 45 40 40 45 43 33 32 31 35 46 47 38 55 51 43 38 36
36 47 39 34 31 31 30 24 31 34 29 15 20 24 25 27 29 29 31 39 38 42 44 43 44 46 41 43 41 40 40 39 35 25 26 24 33 45 46 36 52 63 62 54 35
37 50 40 34 32 32 31 26 35 33 31 23 20 24 26 29 32 26 33 39 36 45 44 44 45 41 43 45 41 46 45 44 37 32 20 34 35 40 36 37 42 45 41 47 45
45 47 43 30 32 34 32 25 32 30 31 21 17 23 27 28 29 24 32 38 41 46 50 47 44 48 48 44 43 45 45 38 33 29 24 33 47 49 41 44 50 51 46 48 43
36 40 43 30 32 39 35 30 25 25 37 23 27 18 26 28 29 23 31 35 44 47 46 48 47 48 48 43 43 44 42 42 39 42 25 33 54 47 47 43 51 54 49 50 49
31 32 38 27 33 41 46 40 38 39 54 25 27 26 24 27 23 26 33 39 41 48 44 47 48 47 48 44 42 41 38 41 40 41 47 46 50 51 52 46 47 49 46 48 44
26 30 42 26 29 40 52 47 42 48 56 37 32 31 32 27 26 31 32 38 42 46 41 42 44 45 43 41 38 31 34 32 42 44 61 49 48 52 50 47 43 45 43 46 45
37 31 39 32 32 41 43 49 61 63 32 36 32 35 34 29 25 34 36 36 38 44 44 38 40 51 47 41 31 30 30 43 47 58 57 47 53 52 50 47 43 37 36 41 44
36 40 44 33 43 43 43 58 64 35 34 36 36 39 31 28 30 32 38 39 28 31 43 48 51 46 44 33 43 43 34 55 60 75 54 45 56 52 38 36 34 36 42 43 41
35 36 40 37 42 50 51 63 48 34 26 33 37 40 29 32 38 34 34 32 25 24 38 44 53 51 49 43 42 41 43 42 61 65 71 59 38 45 45 44 41 42 38 31 40
36 41 32 40 42 57 57 54 42 30 37 42 44 35 31 41 46 46 37 30 27 26 31 45 53 54 56 49 39 34 30 44 54 64 48 29 34 41 51 48 49 39 33 38 39
40 40 30 48 42 57 53 51 38 37 44 49 44 39 29 40 43 42 33 35 34 40 43 48 49 53 56 56 41 34 31 25 34 43 50 56 51 39 37 32 36 40 40 36 34
41 46 32 51 50 53 48 46 35 39 47 49 46 42 30 41 47 37 33 49 45 42 51 49 52 54 54 40 33 30 32 42 55 36 48 52 42 30 34 31 29 30 30 31 31
50 52 46 53 42 48 38 37 38 47 50 47 43 35 29 45 59 40 36 52 53 52 46 38 39 48 48 45 39 38 29 37 43 45 46 50 36 26 24 26 25 23 24 29 33
54 57 64 53 33 38 37 32 40 45 54 49 41 34 35 52 54 52 41 43 42 48 42 34 31 33 39 28 37 45 48 33 32 49 46 46 32 23 27 29 28 26 23 27 31
60 49 54 53 48 44 38 33 37 52 52 48 42 34 37 43 50 53 50 45 42 39 36 33 30 26 26 28 39 43 47 49 36 35 40 34 30 25 33 32 31 30 29 28 29
63 45 50 48 48 47 39 37 35 48 52 44 45 33 38 36 39 43 45 41 36 37 33 27 31 26 27 27 36 39 49 45 43 38 36 35 32 30 33 31 31 30 29 32 32
64 51 48 53 55 50 36 37 33 50 47 39 40 37 37 38 36 38 40 43 44 45 42 35 38 39 40 36 33 37 28 31 34 40 38 34 31 32 35 31 29 28 28 29 28

GFSSW_prec_cthk_018.txt.gz
RH
20 21 21 22 22 21 20 19 18 18 17 15 13 12 14 12 11 19 24 24 18 17 14 13 16 19 26 28 33 37 36 31 34 56 56 61 65 65 67 67 65 68 70 75 78
25 24 24 24 24 23 22 20 20 20 18 15 13 12 14 11 19 24 25 20 19 18 17 17 18 23 29 29 37 38 38 33 38 49 52 54 54 65 73 70 72 72 73 73 83
32 29 27 27 26 25 24 22 22 21 19 15 13 12 13 10 22 23 22 20 18 20 24 28 30 30 29 33 35 37 36 36 40 48 47 52 56 61 67 67 61 62 68 72 74
43 36 31 30 28 27 25 24 24 22 18 15 13 13 12 11 22 22 20 19 19 23 28 33 32 33 38 39 35 36 37 36 41 43 47 56 62 68 61 55 58 64 65 69 89
49 45 36 32 31 29 27 26 25 22 18 15 13 14 11 15 20 22 22 24 22 23 30 35 37 40 43 42 38 39 37 41 38 41 51 57 56 47 42 46 55 64 64 77 84
49 50 41 34 32 31 29 28 26 23 18 15 13 14 12 21 23 22 26 27 26 27 28 37 38 38 42 43 40 41 39 39 38 39 55 54 59 51 37 36 43 62 63 72 84
40 47 44 36 33 32 30 30 27 22 18 15 13 14 12 18 24 23 28 30 30 33 29 36 37 39 36 39 44 43 42 38 45 53 57 54 61 57 43 40 47 63 60 55 56
33 43 47 39 35 34 33 31 27 22 17 15 14 14 11 17 21 22 28 32 36 38 35 34 35 39 35 37 41 41 40 45 50 55 48 51 56 50 45 43 44 49 57 61 44
33 35 43 43 37 35 34 32 27 21 17 15 14 16 13 17 21 23 28 35 36 37 38 33 32 37 37 40 40 38 38 38 46 48 50 48 52 46 43 42 42 41 40 44 44
29 30 38 43 36 35 38 32 27 23 19 15 15 16 14 21 22 24 30 34 38 38 35 33 33 38 45 44 44 39 43 46 49 45 43 43 42 50 51 47 56 54 42 41 39
32 27 34 45 37 35 37 32 29 37 33 16 14 12 19 22 24 25 29 32 38 39 40 38 40 42 43 43 44 44 43 45 42 36 36 36 37 50 55 48 49 61 52 50 45
25 27 31 40 37 39 41 33 34 34 31 21 22 20 20 25 27 27 28 32 36 43 46 41 41 40 40 43 43 43 42 41 36 32 30 29 42 54 58 46 47 50 56 50 48
38 34 30 40 41 39 46 39 32 37 33 18 18 16 21 24 27 26 27 32 36 39 51 48 39 41 45 49 48 45 46 43 35 33 34 33 43 49 54 53 53 53 49 40 37
32 42 48 49 59 45 44 43 29 33 38 23 19 16 22 27 27 25 26 31 37 40 46 47 44 44 49 50 47 45 40 44 39 36 36 31 44 46 48 52 47 52 52 40 35
26 38 43 58 48 45 51 45 39 44 48 21 23 18 21 24 26 22 26 30 34 40 42 49 50 45 50 47 40 42 41 42 42 42 46 35 42 42 51 48 47 44 49 49 41
22 27 29 36 38 45 53 50 48 52 51 30 28 26 24 26 26 25 29 29 34 36 42 47 48 45 46 45 41 39 40 44 44 45 59 49 49 50 51 47 45 42 42 45 44
20 28 36 31 38 35 47 55 58 61 27 32 31 29 26 27 27 28 30 30 35 39 42 45 46 43 44 43 39 34 36 51 47 62 59 48 49 45 42 44 42 42 41 43 53
25 25 32 36 46 37 41 62 65 41 30 33 33 33 31 30 27 28 30 32 33 40 47 50 48 44 44 43 42 42 42 46 47 64 54 54 54 39 38 34 37 35 44 48 51
25 34 35 36 55 46 46 66 52 39 28 32 36 39 35 31 25 30 31 30 31 35 39 52 48 47 44 44 42 45 43 41 55 64 60 55 43 41 37 38 33 38 33 34 36
29 34 40 33 66 56 54 51 54 29 37 34 38 36 37 30 31 37 35 28 29 31 32 43 52 52 48 44 41 37 42 43 57 62 59 42 35 38 36 42 46 42 36 29 32
34 40 40 32 63 61 65 52 45 27 39 43 39 38 36 32 32 39 38 35 31 27 28 34 42 46 45 43 46 48 41 40 40 57 58 55 36 37 36 34 35 32 29 29 26
39 43 38 29 67 52 54 55 41 33 45 50 50 47 37 30 38 45 39 36 38 38 37 39 49 59 44 45 41 44 36 40 48 41 56 52 39 39 37 38 35 32 27 26 27
41 50 54 33 52 52 49 48 44 37 49 52 51 45 37 33 37 41 44 39 44 40 40 44 54 63 53 45 46 38 43 42 41 52 49 50 43 32 28 29 28 29 26 26 27
51 62 64 53 32 38 48 47 39 34 47 52 56 48 43 37 36 47 46 41 44 46 49 51 51 44 43 38 42 47 48 46 44 51 50 48 39 35 30 28 28 29 26 27 32
59 55 52 47 41 45 44 44 34 39 43 47 54 49 48 39 38 43 51 46 46 42 53 52 49 42 34 30 31 33 35 35 48 43 42 35 39 32 26 28 29 30 27 27 30
59 55 52 41 34 42 44 41 30 31 37 50 52 46 42 39 38 43 52 50 44 45 49 53 51 47 42 34 29 30 35 33 41 47 45 40 36 35 33 29 28 29 33 35 36
63 55 54 38 44 42 39 35 24 31 39 52 50 48 43 38 42 45 49 55 52 44 41 41 46 45 38 33 29 37 25 29 34 47 44 46 42 39 38 38 36 36 37 39 38

GFSSW_prec_cthk_021.txt.gz
RH
18 18 18 20 21 22 22 22 21 21 21 20 17 14 11 12 10 17 20 21 21 18 15 13 16 19 24 26 30 36 32 34 37 48 45 52 58 56 58 67 74 73 78 82 86
24 24 23 22 23 25 24 23 23 23 22 21 17 14 12 11 15 20 17 19 21 19 18 18 19 23 28 30 31 39 36 35 38 43 49 55 57 58 69 78 82 79 81 82 83
34 33 29 25 25 26 26 25 24 24 24 21 17 14 12 10 15 20 15 18 22 22 23 28 27 30 29 34 32 38 39 37 38 40 53 57 59 64 72 74 73 74 79 80 80
44 42 38 32 28 28 28 28 26 25 25 21 17 14 12 10 18 17 17 17 19 23 27 33 31 34 41 42 37 40 39 37 39 39 54 59 58 67 65 60 65 71 72 75 89
40 42 43 41 33 31 30 30 28 27 26 21 17 14 12 12 17 19 18 21 21 21 30 34 34 34 41 36 37 41 39 39 41 43 52 59 56 48 47 53 59 68 70 77 79
33 36 41 45 39 34 32 30 29 29 27 21 16 14 13 13 21 19 21 24 24 25 28 34 37 38 42 38 41 39 46 40 40 41 57 60 60 48 44 47 55 69 66 73 65
29 31 33 42 44 36 32 31 30 30 29 21 16 14 13 11 21 21 25 29 27 28 27 34 36 42 39 41 40 39 44 43 43 45 57 58 53 50 43 47 56 60 62 61 53
27 29 29 39 44 39 34 32 32 32 29 21 16 14 12 11 19 21 26 31 33 34 35 36 34 39 41 42 39 42 40 44 46 51 55 56 59 56 52 48 50 52 64 50 43
29 28 28 34 42 42 35 34 33 33 29 21 16 15 11 12 16 21 26 32 37 38 37 36 33 40 41 39 41 41 39 41 47 47 52 52 60 53 53 50 49 47 50 41 39
50 30 31 36 38 41 33 35 34 32 32 26 17 15 11 15 18 21 27 31 40 36 36 34 32 39 45 44 45 39 39 40 42 47 48 44 56 52 51 56 55 52 44 40 38
48 39 37 33 31 41 34 35 36 40 38 28 16 13 13 18 19 22 27 30 39 37 40 36 37 42 48 44 43 41 40 45 46 46 45 42 49 53 52 53 57 62 51 45 38
47 48 38 33 32 39 34 36 40 42 37 26 22 20 17 21 22 22 27 31 35 40 43 39 40 42 44 43 47 47 44 46 46 46 40 34 41 52 51 46 45 50 54 51 49
33 46 48 41 45 41 37 40 48 42 38 25 20 17 18 20 22 23 26 30 33 36 45 43 36 42 42 42 48 48 46 42 40 34 32 36 40 48 51 50 56 52 48 42 38
17 30 42 47 45 44 47 46 47 48 45 27 24 17 18 21 22 25 27 30 34 36 44 43 39 40 44 44 46 46 46 42 40 38 42 35 47 46 46 50 53 54 58 56 40
14 23 31 42 56 58 61 59 51 54 44 23 23 19 17 20 23 24 27 30 34 37 41 46 44 46 44 42 45 46 44 41 37 44 46 45 45 37 44 52 50 50 55 58 55
17 18 29 35 44 62 70 72 64 56 47 28 25 20 18 22 23 23 25 26 33 35 39 46 43 45 42 47 43 45 44 45 46 46 55 48 47 42 45 43 44 44 44 53 53
24 21 32 38 38 61 70 64 73 70 29 31 30 24 21 25 26 25 25 29 31 34 41 46 46 47 47 48 44 40 44 51 51 60 58 50 52 43 39 43 40 40 43 44 49
24 27 33 29 33 40 53 76 77 52 33 34 32 31 28 26 27 27 30 30 30 34 44 47 50 47 46 46 43 41 44 49 49 59 49 51 49 37 34 34 38 40 34 38 42
27 26 40 27 35 54 57 75 64 47 33 28 35 38 34 29 27 28 29 31 30 30 39 50 50 48 48 48 42 43 42 43 53 58 57 46 42 35 32 36 38 35 35 31 31
30 29 35 29 32 54 57 57 57 34 39 37 41 37 36 34 32 30 30 27 30 32 34 44 48 47 49 48 47 45 44 45 52 54 57 48 42 41 32 39 39 43 37 30 25
35 32 30 29 46 55 55 57 52 33 38 45 47 41 38 36 31 30 28 32 33 33 36 39 42 48 51 48 44 47 49 47 43 52 54 59 44 35 36 28 27 32 34 29 30
40 39 36 22 53 52 49 54 44 34 41 47 51 48 41 36 34 31 35 37 34 38 38 34 37 52 44 43 43 43 52 53 59 40 52 55 40 29 29 35 32 30 29 29 28
41 44 43 30 46 49 49 49 55 38 37 46 51 52 43 38 39 35 38 40 38 39 39 33 36 45 38 37 43 40 43 54 51 45 45 57 44 31 34 29 28 27 24 25 26
49 52 56 50 32 40 54 50 55 51 38 44 48 55 51 41 37 39 42 44 40 42 41 38 41 42 43 45 52 50 47 47 44 54 46 45 32 32 32 32 28 26 26 25 27
54 45 47 48 40 41 44 47 50 50 41 39 46 56 56 49 44 42 42 45 47 41 46 46 43 45 50 46 41 37 40 42 44 44 47 38 40 31 32 34 28 28 28 28 29
61 49 47 39 38 40 42 47 45 44 40 41 48 51 50 55 48 47 41 43 47 45 44 43 54 55 59 52 45 41 37 46 40 35 35 38 38 34 33 35 31 30 30 30 31
59 54 49 38 43 45 33 37 36 41 32 31 41 51 51 52 51 49 46 36 49 49 48 49 55 60 55 53 46 46 35 28 27 30 34 40 40 39 41 41 38 35 35 36 37

GFSSW_prec_cthk_024.txt.gz
RH
21 20 19 19 20 21 21 21 22 23 23 22 23 20 16 12 10 16 17 14 16 18 18 17 18 20 22 25 27 31 31 43 41 47 50 57 61 59 58 61 70 73 77 82 84
26 25 26 25 23 23 23 23 23 24 24 24 23 21 16 13 13 17 14 13 16 20 19 19 22 22 28 28 29 43 34 42 42 43 52 65 64 67 65 69 76 80 84 86 82
40 37 36 35 32 28 26 25 25 26 26 26 24 21 16 12 12 17 15 12 16 19 21 23 26 30 26 29 39 40 38 42 41 42 49 65 67 65 69 75 78 78 82 81 77
47 48 46 45 43 36 29 28 26 27 28 27 25 22 16 12 18 16 16 12 15 18 24 28 32 32 31 32 40 42 40 42 44 45 50 58 57 62 60 67 70 72 67 64 82
39 40 42 42 45 45 36 31 29 30 30 28 26 23 17 12 15 18 16 16 18 17 26 32 36 37 36 36 40 44 41 42 45 46 56 63 57 55 54 51 66 68 65 67 85
38 36 34 39 39 44 42 34 32 32 31 29 27 23 17 13 19 18 18 19 21 22 25 33 39 40 39 42 38 40 44 40 42 51 59 62 55 45 46 49 68 67 69 55 58
34 37 36 36 35 40 44 38 34 32 32 31 28 23 18 13 18 19 21 22 22 25 26 33 37 42 40 41 42 39 45 44 46 49 57 53 55 53 45 52 61 66 60 45 36
26 32 33 35 38 40 45 41 35 34 33 32 29 23 19 11 15 20 23 25 27 28 29 35 35 39 42 41 43 38 43 48 48 52 57 56 58 57 49 49 62 65 68 47 41
24 29 32 35 39 38 44 46 36 35 34 32 30 25 18 12 14 19 22 25 29 33 34 37 33 37 42 43 44 41 45 47 50 50 54 52 54 52 59 53 56 61 49 42 42
29 35 42 40 40 39 42 45 35 36 35 34 32 30 16 14 16 18 22 26 30 33 35 36 32 37 40 46 46 45 43 43 46 46 51 49 54 49 54 59 61 48 46 40 40
29 33 43 46 59 49 40 49 40 39 39 35 30 24 17 15 17 19 22 26 32 32 36 35 34 40 39 46 45 45 42 42 44 46 49 47 50 48 55 55 64 54 47 42 41
30 33 46 44 52 53 46 47 42 43 40 32 32 32 21 20 21 20 22 25 30 35 40 41 43 43 42 47 49 46 44 45 46 44 44 46 44 48 49 49 50 59 50 51 42
27 31 39 52 50 51 43 41 41 46 43 32 31 29 20 20 20 20 22 25 29 32 40 43 41 44 41 47 48 48 47 48 45 40 39 40 44 48 48 48 54 54 56 50 45
27 24 29 50 58 47 44 52 49 49 45 37 37 29 24 20 20 21 23 25 28 31 38 42 39 38 40 38 44 49 49 46 43 38 44 41 42 42 47 49 52 54 57 53 47
21 22 28 42 56 47 47 57 51 51 56 37 44 35 26 19 18 21 25 26 29 32 34 42 42 43 43 40 40 47 47 45 40 43 43 45 43 39 45 49 46 49 51 54 50
23 20 23 33 41 45 65 72 68 72 60 38 44 42 25 21 22 22 26 27 29 33 35 40 42 46 46 41 39 45 47 46 44 44 50 41 45 44 43 39 42 46 47 49 51
26 26 20 31 28 33 58 79 87 83 47 43 43 31 23 22 23 24 27 28 30 35 35 40 42 46 47 45 44 46 47 53 50 56 53 48 50 41 34 35 39 43 42 40 41
24 26 22 27 27 35 50 86 83 61 54 45 42 32 26 23 24 27 27 29 28 30 36 43 48 46 48 48 47 46 47 56 51 58 49 52 48 37 33 34 34 35 38 39 37
30 28 25 24 35 38 52 81 71 61 52 52 41 41 33 28 28 29 30 30 26 26 31 40 46 49 51 51 50 46 44 43 57 63 59 48 39 31 29 32 38 36 37 37 33
32 32 25 27 30 45 59 59 58 54 55 60 43 44 39 35 30 32 32 28 26 25 28 36 44 52 52 53 52 48 44 48 52 51 52 48 44 38 31 32 38 43 39 36 33
43 39 23 33 32 52 61 53 50 41 58 65 53 51 40 39 35 33 32 29 25 27 30 36 42 49 54 51 51 50 46 46 49 56 56 56 42 31 30 32 31 30 31 35 33
53 43 26 32 46 45 54 50 46 44 50 62 56 50 49 41 41 34 32 27 26 28 32 37 44 55 48 49 51 46 47 46 55 49 64 66 45 26 27 32 32 34 32 35 37
56 50 40 32 45 44 45 54 46 43 43 46 45 50 51 46 44 39 31 29 32 34 39 41 43 54 47 46 45 45 40 43 50 56 59 64 46 26 31 35 29 31 32 30 25
65 63 60 49 23 36 46 52 55 39 48 43 41 51 57 53 46 40 34 36 38 40 39 43 47 40 36 34 38 41 37 47 47 60 53 51 35 32 31 31 32 30 27 26 27
71 62 52 53 40 35 36 40 50 43 49 43 36 43 60 57 52 45 41 44 42 43 45 45 47 43 37 37 40 43 45 50 43 43 48 39 42 34 37 41 33 30 28 29 31
70 61 52 44 39 39 43 44 44 42 45 50 43 35 54 65 56 49 50 45 42 47 46 46 48 48 52 51 49 50 44 39 35 32 35 37 36 30 31 37 39 36 37 33 32
67 57 56 46 45 44 32 39 39 41 45 50 39 37 43 52 56 54 55 53 49 47 50 47 51 56 59 63 57 55 44 41 36 32 29 33 29 31 34 42 44 43 41 39 38

GFSSW_prec_cthk_027.txt.gz
RH
24 24 24 25 24 22 21 21 22 23 22 22 23 24 22 19 16 16 15 13 13 14 14 14 20 21 20 23 26 32 31 41 47 48 48 55 59 62 62 63 66 69 69 70 78
30 28 28 28 29 31 28 24 24 25 25 24 24 26 23 19 17 18 15 13 12 14 13 14 20 21 24 26 32 35 44 44 43 42 50 57 67 71 72 69 68 70 77 77 79
48 43 39 37 37 39 39 33 31 28 27 26 25 27 24 20 17 20 16 12 12 14 16 17 22 25 24 26 35 33 39 43 43 44 44 62 73 72 79 80 72 74 80 80 78
41 42 46 46 46 45 45 42 34 32 30 30 28 28 25 21 23 18 16 13 13 15 18 22 26 28 27 33 39 37 40 46 43 47 46 59 61 66 68 70 74 77 76 74 77
41 42 41 40 41 42 42 44 41 35 33 32 31 30 26 22 17 21 18 15 15 17 23 27 31 32 33 36 42 39 38 38 48 46 62 61 60 60 61 58 70 76 67 81 89
36 40 41 42 42 41 40 42 43 38 36 34 33 32 28 23 20 23 18 17 18 19 23 28 33 34 36 38 40 41 40 38 44 56 63 59 59 45 47 66 74 67 57 71 83
26 33 38 42 42 39 39 39 43 39 37 35 34 33 29 22 20 26 20 18 19 22 22 26 33 34 38 41 38 42 42 45 46 57 63 57 55 52 52 60 63 59 43 48 55
24 24 29 35 38 39 38 39 45 43 37 36 36 35 29 22 20 26 22 20 20 22 25 28 32 33 37 40 40 40 47 51 54 55 60 56 60 62 59 54 63 59 42 39 37
23 24 23 29 35 34 37 37 41 43 41 41 38 36 29 22 19 24 23 23 25 28 29 31 33 32 35 40 42 43 43 50 57 56 57 53 55 61 61 53 54 54 48 41 39
22 23 22 28 36 34 37 35 37 36 37 42 43 39 30 23 19 22 23 22 25 30 31 32 32 33 36 39 45 43 46 47 49 47 52 51 55 57 62 62 48 47 42 42 39
22 24 24 28 38 41 48 46 45 42 42 37 44 37 29 24 23 22 24 24 26 29 31 32 30 33 35 38 42 41 45 45 46 46 49 50 51 54 58 58 58 51 45 39 39
18 23 26 30 38 40 47 50 53 52 50 42 40 40 35 26 26 24 25 24 26 29 32 34 34 37 39 39 44 45 45 45 45 44 47 47 48 48 51 53 57 56 53 46 40
19 20 25 30 40 45 45 49 50 54 53 41 35 35 33 30 27 23 25 24 26 30 32 35 35 37 40 44 45 46 49 48 45 44 48 44 40 44 47 55 58 59 56 53 46
23 22 24 29 36 41 48 46 50 53 46 33 35 36 35 31 29 21 24 24 27 30 31 34 35 36 41 43 50 47 44 49 47 43 40 37 36 38 45 47 53 55 60 53 40
21 23 20 28 40 43 53 52 54 54 53 36 36 39 35 31 28 29 25 25 27 28 29 32 37 37 42 42 45 47 47 47 47 44 42 41 37 34 42 46 45 44 53 56 53
24 23 22 20 26 33 52 62 59 65 56 37 43 42 43 37 35 32 25 26 28 31 29 33 35 38 37 40 42 45 49 47 49 43 46 43 41 38 39 40 41 45 48 52 55
31 26 24 20 24 25 46 68 71 73 41 41 47 48 45 40 44 32 26 27 29 34 31 32 34 38 42 42 42 43 48 53 50 50 47 46 46 37 35 35 36 38 44 46 48
41 32 30 22 26 24 46 72 78 53 48 49 51 51 49 43 45 30 27 29 29 30 33 33 38 37 42 44 43 46 50 55 52 51 44 48 47 34 34 32 29 32 36 40 41
45 43 36 28 33 28 50 63 45 53 50 53 49 55 50 39 30 29 30 28 30 29 32 37 36 40 46 48 46 49 53 50 55 60 54 42 37 31 27 29 32 35 34 35 37
49 47 41 34 35 37 49 52 47 42 44 53 60 54 57 42 32 30 32 28 30 30 30 33 35 43 49 51 51 51 52 52 50 52 51 42 39 32 28 28 31 37 38 34 36
62 48 39 43 44 51 50 43 44 46 42 54 61 68 57 50 37 32 32 29 29 30 29 31 33 40 50 53 51 55 55 54 48 51 49 47 41 38 33 26 30 31 35 34 33
77 50 37 41 60 55 44 40 40 36 41 52 56 72 63 58 49 40 34 31 29 28 29 32 38 44 44 50 51 52 51 55 58 49 51 51 42 38 35 26 29 34 35 35 33
80 55 41 42 58 49 44 42 36 38 40 49 48 68 67 63 55 47 39 34 32 29 31 34 39 44 41 46 50 52 52 52 51 49 49 55 42 41 36 30 31 32 30 30 31
86 76 63 48 38 40 51 49 47 34 42 47 43 67 67 66 63 52 44 40 32 34 38 39 40 39 37 37 44 49 45 48 48 48 49 46 37 33 32 36 33 30 28 25 27
90 80 56 51 54 44 41 41 44 38 44 43 40 56 58 70 70 62 50 46 40 40 43 45 45 44 39 37 40 36 40 43 44 44 47 41 38 36 33 29 26 32 33 31 31
91 71 62 33 35 49 51 47 45 38 34 50 41 45 31 58 72 67 58 51 51 51 52 50 46 44 46 46 41 39 36 37 43 46 43 33 29 31 31 28 25 33 35 39 39
78 61 56 42 47 53 45 48 52 38 33 39 43 46 34 32 63 69 63 55 54 55 57 56 54 51 50 52 51 49 43 45 49 45 38 35 27 28 27 27 27 34 41 44 44

GFSSW_prec_cthk_030.txt.gz
RH
29 28 27 26 25 25 26 25 22 21 22 23 24 25 26 21 20 20 20 16 14 12 11 12 16 20 18 19 22 25 32 45 42 36 40 49 56 58 57 58 61 66 67 68 73
40 35 32 31 30 29 29 29 30 26 25 27 27 27 26 22 20 22 20 16 14 12 11 14 19 21 22 22 27 28 33 40 43 46 49 56 60 64 66 68 69 68 70 72 74
44 48 49 42 38 36 36 34 35 34 30 29 28 30 28 24 20 25 20 16 16 13 12 14 19 23 22 25 27 37 40 40 41 44 47 60 70 72 75 77 72 71 76 79 81
38 39 42 45 45 43 41 40 39 39 34 30 32 32 30 26 26 24 21 17 18 14 14 17 22 26 24 29 29 38 41 42 42 43 50 63 58 69 70 75 79 76 78 74 79
33 34 37 39 40 42 41 39 38 40 38 36 35 34 32 31 24 22 22 19 20 16 18 21 25 28 29 31 35 38 39 43 46 43 62 59 59 56 60 63 70 83 70 77 87
27 29 30 37 40 38 39 38 37 41 40 37 35 34 35 32 25 25 22 21 21 19 21 23 26 30 30 32 38 39 39 43 45 57 61 56 53 44 52 71 72 66 76 94 90
24 25 27 27 35 38 39 37 36 37 41 39 36 35 36 33 25 28 24 24 21 21 21 24 27 30 31 31 34 39 43 43 45 59 58 60 53 49 58 66 68 53 69 70 74
22 22 23 24 24 31 37 35 35 37 38 41 38 39 38 34 27 28 26 24 21 21 22 25 27 28 30 31 33 37 43 51 56 58 59 59 55 55 52 59 67 49 52 53 57
22 22 21 20 21 24 31 30 35 35 35 36 39 42 42 35 28 28 28 27 23 22 24 26 29 28 28 29 33 37 46 50 51 59 59 57 54 57 59 56 66 56 43 40 42
20 22 22 21 21 22 25 28 31 33 34 33 37 42 39 36 30 26 29 30 29 29 30 30 32 29 29 29 40 42 44 44 55 52 53 53 56 56 61 55 52 47 49 41 39
18 14 17 18 21 25 24 31 38 42 42 38 39 38 36 39 33 27 28 31 29 31 32 31 32 29 30 30 36 37 40 44 46 44 47 50 52 53 55 59 49 48 42 45 42
19 17 15 15 15 23 29 34 41 44 45 44 41 40 38 38 37 30 30 30 29 31 31 33 30 28 28 31 34 37 40 45 43 41 41 44 45 49 52 55 56 52 42 40 43
20 19 18 14 14 17 25 35 39 43 51 46 42 40 36 39 38 33 29 29 29 31 31 36 32 31 31 32 34 40 43 42 41 39 42 46 41 42 45 50 55 55 51 45 41
28 25 20 18 14 18 21 30 39 50 48 39 42 37 38 35 38 32 28 29 30 30 32 36 33 34 36 36 38 44 41 44 39 38 45 41 41 34 39 44 49 51 51 50 43
36 29 27 20 21 21 24 29 39 52 41 35 41 39 35 32 34 34 31 33 31 29 32 32 32 35 37 38 40 45 44 47 49 44 43 38 35 40 36 39 42 44 48 51 47
34 37 34 30 21 21 28 36 49 58 47 36 43 42 38 36 34 36 30 33 37 31 31 35 33 35 41 38 40 42 44 46 50 49 48 40 36 38 39 39 38 41 42 49 53
38 35 32 35 24 31 35 40 61 59 38 36 43 47 40 35 37 34 32 36 36 30 30 31 33 35 38 41 39 42 42 50 51 53 51 44 42 37 37 34 34 36 41 46 50
38 45 35 25 30 39 51 48 51 27 38 41 42 47 44 36 37 38 35 39 37 27 30 32 37 33 33 43 46 40 43 47 57 55 45 46 40 38 34 33 30 28 31 36 44
49 47 52 31 22 43 67 62 25 27 38 40 46 49 49 41 39 41 37 39 36 27 28 32 33 34 35 43 44 48 44 47 52 55 49 45 39 34 30 27 29 30 29 34 39
58 65 52 42 32 42 67 59 23 28 38 40 42 48 51 47 40 43 42 41 35 26 26 31 35 33 37 46 50 52 49 49 50 56 51 45 40 36 30 29 26 28 34 33 37
78 79 53 49 47 52 62 52 29 36 35 48 50 46 50 54 45 46 46 43 28 27 29 32 32 40 36 45 53 53 51 49 53 49 45 47 42 35 34 35 29 29 30 33 35
83 80 66 64 69 53 57 30 35 41 45 43 51 58 56 54 52 44 38 32 26 27 30 31 36 36 33 43 49 55 52 53 55 53 49 49 38 35 34 37 32 28 33 34 35
81 87 87 79 64 59 27 29 49 54 47 59 41 44 48 63 60 50 43 31 31 30 31 35 36 38 36 37 45 50 51 52 53 54 46 53 41 37 34 36 34 27 30 31 31
94 99 99 84 52 50 21 23 46 54 53 61 47 46 52 63 63 55 49 40 38 33 34 32 32 31 37 33 39 48 48 49 50 52 44 43 37 39 38 36 33 33 33 29 29
98 97 82 75 65 35 33 23 35 52 53 61 48 47 49 64 68 63 58 54 48 41 36 36 36 31 31 36 37 36 42 46 47 43 45 38 42 38 34 34 40 31 27 33 34
96 91 83 72 59 39 40 34 38 43 44 48 48 46 45 62 69 73 67 62 61 48 42 41 43 41 42 41 41 38 35 38 37 37 36 34 33 36 31 29 31 29 23 31 34
91 89 86 79 73 59 43 40 35 43 42 38 32 45 43 61 74 77 79 72 66 60 47 46 45 48 45 46 45 51 38 34 32 30 31 36 36 36 31 28 29 32 29 28 37

GFSSW_prec_cthk_033.txt.gz
RH
42 35 30 27 26 24 23 23 23 24 22 21 22 23 24 25 25 22 23 23 18 14 15 14 15 18 18 20 20 20 33 46 39 36 42 39 45 67 52 51 60 64 66 70 77
42 47 46 39 33 29 25 25 25 25 27 26 25 24 25 26 26 24 25 20 17 15 17 16 19 21 24 25 25 24 35 41 36 44 47 48 49 63 59 70 63 65 64 66 71
38 39 42 42 45 42 33 30 29 28 29 32 30 27 27 30 29 34 26 21 17 15 19 16 20 21 26 25 28 32 45 42 42 43 43 47 57 57 63 88 85 76 72 74 80
29 32 37 38 41 42 42 40 36 35 34 34 34 30 31 32 32 36 25 21 17 17 17 17 20 24 30 33 27 32 36 34 38 36 47 55 43 46 62 65 65 80 79 78 77
25 25 28 30 36 40 40 40 39 37 36 35 37 36 33 37 33 29 26 23 19 18 19 19 23 29 38 32 31 33 39 42 41 39 47 55 59 54 57 70 67 78 77 73 78
24 24 25 25 27 31 37 37 38 38 39 39 39 38 38 38 33 29 28 24 22 22 20 22 28 30 32 32 36 40 33 38 41 48 54 55 60 53 55 61 68 66 73 81 85
26 25 23 24 25 25 28 30 34 38 38 37 39 41 41 36 34 32 31 27 24 24 21 23 24 28 36 32 33 34 35 37 35 47 55 53 66 61 55 62 61 54 63 75 79
28 27 28 25 25 24 25 25 28 33 33 36 39 41 39 36 36 35 34 29 26 24 21 21 23 26 29 32 27 32 37 49 57 51 54 57 88 52 53 55 57 49 52 58 67
30 26 25 26 24 24 23 25 26 27 31 30 38 40 38 38 37 36 37 31 27 25 22 20 23 26 33 29 38 33 42 57 53 45 53 60 85 53 53 53 61 51 52 55 53
22 24 20 20 22 23 23 23 24 26 31 32 36 38 32 36 38 36 39 34 28 27 23 23 24 28 32 41 39 40 35 38 44 51 46 60 56 49 50 52 57 47 42 42 45
20 18 19 16 12 15 19 28 36 44 46 34 43 29 33 35 37 35 39 36 33 32 28 29 29 31 34 38 38 46 41 42 49 58 42 50 51 63 48 53 44 49 45 42 41
25 21 20 18 15 10 14 24 33 32 30 35 36 37 40 38 38 36 38 39 35 33 34 35 30 28 34 32 31 36 39 37 46 39 32 42 48 60 53 49 53 49 41 44 40
27 27 25 22 18 9 13 20 29 28 35 31 35 36 38 38 40 38 40 39 36 34 36 32 37 31 27 28 33 38 40 45 41 48 32 33 41 46 50 45 53 52 53 44 42
26 29 27 27 19 15 17 18 24 26 33 25 33 36 40 42 36 36 38 38 38 33 34 33 38 28 25 36 34 42 35 50 40 34 43 41 49 46 45 44 45 50 53 53 41
26 34 35 25 30 29 40 30 21 24 28 23 28 36 38 39 36 37 39 38 38 34 35 37 34 30 30 36 39 45 53 44 46 44 45 39 37 42 38 46 45 42 50 47 49
33 30 41 33 26 23 39 41 31 31 30 27 34 34 38 39 34 39 36 36 37 37 35 40 35 31 32 37 39 43 42 43 47 48 50 44 37 49 40 38 45 53 47 49 48
38 34 42 40 32 24 38 44 50 33 16 24 32 37 39 38 35 35 38 36 36 41 39 41 37 32 33 43 39 40 43 49 53 51 48 45 38 39 49 39 39 41 48 56 52
50 43 41 42 42 39 44 56 48 19 20 32 31 38 40 39 37 37 39 38 36 37 42 43 39 32 30 34 44 42 42 46 72 71 54 49 35 31 38 41 37 33 34 37 53
63 53 46 50 45 48 56 68 40 20 20 24 37 45 42 42 41 40 36 35 35 34 40 45 38 38 36 37 36 47 49 37 45 49 50 52 40 36 38 33 32 34 35 34 32
72 62 53 57 58 51 67 57 40 24 24 31 33 43 49 47 42 42 41 36 35 33 40 44 44 42 41 40 39 39 51 50 50 68 59 42 39 42 35 32 32 27 35 34 37
81 74 54 64 76 75 64 50 25 26 31 27 36 50 51 56 47 43 42 39 38 36 40 43 40 44 45 39 39 39 41 46 50 48 57 51 44 41 40 34 36 37 34 30 33
85 74 67 69 84 75 58 39 19 19 35 45 56 53 49 55 62 45 44 47 44 40 43 43 42 42 48 42 35 49 48 49 53 57 56 54 49 45 41 38 39 33 35 31 30
94 83 83 84 82 69 49 38 23 25 33 41 47 74 67 57 58 61 51 50 51 45 47 45 39 48 49 45 40 40 54 56 56 53 62 72 45 46 44 37 36 38 36 34 28
99 99 92 94 76 72 58 39 32 22 34 41 45 62 66 73 66 63 61 58 48 48 50 38 39 37 44 37 45 41 37 48 51 62 52 54 47 47 47 44 43 43 42 34 31
98 96 87 85 81 58 43 36 40 27 35 44 45 64 59 59 60 64 65 67 54 44 42 42 46 42 38 39 41 40 40 43 49 50 55 49 48 42 41 46 40 42 46 35 26
98 95 91 80 75 74 67 55 45 31 34 52 54 49 74 78 66 76 73 71 65 52 41 43 47 43 41 38 40 40 41 41 43 44 44 47 45 41 41 45 40 36 28 31 27
98 90 84 81 86 84 67 51 45 35 37 51 50 51 53 69 79 76 89 77 84 71 55 51 51 52 47 40 40 44 38 44 41 39 41 42 37 40 38 46 41 35 29 29 32

GFSSW_prec_cthk_036.txt.gz
RH
38 41 44 40 34 29 25 23 22 22 21 21 24 23 22 23 22 23 27 29 24 18 15 16 18 16 16 17 17 26 34 42 46 38 33 40 45 38 49 65 65 80 83 74 71
32 35 37 40 41 39 34 28 26 25 23 22 23 26 25 24 23 25 29 27 22 17 15 18 21 18 20 24 21 28 35 46 40 38 31 37 39 45 71 59 60 71 85 78 71
29 29 30 34 35 34 37 37 34 29 26 24 24 26 29 26 27 34 32 26 22 18 18 19 22 19 22 27 27 29 38 46 40 32 28 37 41 47 62 57 55 65 83 84 70
28 26 27 29 30 30 31 34 36 36 35 30 29 30 30 29 35 32 30 26 22 19 18 18 19 18 26 29 30 25 35 36 33 31 29 51 57 53 55 49 64 65 83 81 79
28 26 25 27 26 28 29 31 32 34 36 35 32 33 33 37 37 33 31 27 24 21 20 20 19 23 32 37 29 27 29 35 36 41 44 45 60 66 63 59 64 69 74 72 70
31 29 25 26 27 27 27 28 29 30 33 33 34 34 40 41 36 35 33 28 26 23 21 22 23 29 26 30 32 40 37 31 36 44 50 48 63 54 68 63 66 58 70 78 75
41 36 30 28 28 26 26 27 27 28 30 31 31 35 37 37 38 37 35 31 30 26 25 25 24 23 26 30 31 32 28 32 42 42 46 44 46 62 66 59 57 46 51 60 68
34 34 37 31 29 28 28 26 26 27 29 29 30 33 37 30 38 36 37 36 34 29 26 26 23 21 23 24 29 26 28 38 45 51 65 59 58 48 60 62 61 44 43 47 52
30 31 30 29 24 26 27 28 26 28 28 29 30 33 37 31 33 34 37 37 34 29 27 24 21 21 22 26 27 30 33 39 43 47 53 58 71 60 65 72 62 50 50 46 49
21 22 24 26 25 17 19 24 26 29 34 35 34 38 30 28 35 36 38 40 36 31 28 26 22 22 22 28 35 43 41 40 47 50 51 58 75 71 73 69 58 50 50 49 44
19 19 20 19 18 14 10 11 27 47 52 43 41 38 32 33 32 32 37 40 39 35 31 28 27 25 26 31 30 38 43 46 46 47 43 41 73 67 66 64 57 51 44 38 41
19 20 26 20 19 16 10 12 25 38 33 31 31 35 33 38 34 32 36 43 41 39 33 34 32 30 29 34 30 31 36 41 42 42 39 33 52 62 64 56 46 48 41 38 37
21 19 27 27 19 14 11 9 25 34 30 17 20 22 29 34 38 38 35 43 42 42 39 36 35 42 31 31 31 28 29 34 40 48 42 31 29 57 66 60 49 40 40 42 38
25 22 27 30 18 17 13 13 14 25 27 14 16 22 23 30 33 38 39 43 44 44 39 39 34 42 36 26 28 31 30 39 44 43 36 38 43 46 54 57 56 42 45 42 42
32 27 27 33 35 29 36 27 44 26 28 10 12 21 24 26 28 35 40 44 44 43 42 36 37 37 33 24 30 35 42 41 45 42 42 44 45 38 41 44 52 50 44 49 44
39 33 30 33 34 24 37 45 31 35 28 11 24 23 23 26 30 34 37 41 42 43 44 38 38 39 37 27 33 38 41 49 50 37 44 39 44 40 37 37 44 52 62 53 53
47 44 36 36 40 38 42 45 50 34 12 14 30 29 23 27 32 35 36 38 40 44 43 39 37 43 41 31 35 40 44 47 49 49 47 46 45 39 38 43 47 50 49 66 58
59 56 47 40 45 50 55 63 39 14 20 21 21 31 29 30 34 33 39 40 40 41 44 43 41 42 40 32 41 41 38 46 60 66 59 64 48 40 34 37 44 39 37 44 54
70 68 65 56 54 61 64 75 35 14 16 18 36 41 47 33 34 38 33 37 40 40 43 44 42 40 42 32 35 47 42 38 46 60 70 79 56 40 34 34 35 32 33 32 34
75 75 71 69 70 68 75 63 38 15 16 27 27 36 45 44 40 39 38 35 41 41 41 41 49 43 44 42 36 33 46 56 48 57 67 48 49 45 40 40 33 30 29 36 39
79 74 67 75 78 80 70 45 28 21 18 20 34 37 36 39 53 48 42 42 43 41 40 39 46 47 47 49 42 39 38 48 60 50 59 61 48 43 44 39 38 35 33 31 32
87 75 72 80 82 77 62 30 27 31 23 25 28 42 37 40 53 63 50 45 46 46 40 38 43 50 49 47 43 40 42 34 50 57 55 62 45 45 43 45 40 38 35 32 32
91 90 89 80 79 67 51 47 37 34 30 28 30 35 39 49 79 78 74 53 50 50 41 41 42 54 51 53 53 46 34 54 50 50 54 71 49 48 48 44 40 39 35 34 33
98 99 96 95 73 67 60 44 40 30 38 34 29 32 35 38 72 83 79 62 53 52 50 50 47 44 53 47 54 48 39 44 56 64 60 58 47 47 46 45 41 40 46 39 35
99 96 81 79 73 55 65 45 46 43 36 41 36 37 41 40 57 76 82 82 74 57 55 55 52 49 49 48 47 48 46 40 44 64 66 51 59 48 48 42 52 54 46 49 42
98 97 87 71 78 81 74 60 48 42 46 37 36 30 32 39 66 84 90 88 78 69 58 57 58 57 57 54 45 45 48 45 41 31 46 48 48 40 47 47 44 44 44 39 40
99 96 90 80 86 89 78 57 50 47 55 42 35 29 29 36 53 68 79 94 91 86 76 58 55 63 63 54 50 45 40 43 40 46 45 42 44 42 45 42 42 41 38 37 38

GFSSW_prec_cthk_039.txt.gz
RH
31 31 32 31 34 34 31 26 22 21 19 18 18 19 18 20 21 21 21 25 28 24 18 16 17 17 15 15 17 24 31 37 46 45 44 41 40 44 47 60 58 61 67 70 76
32 32 32 31 30 31 31 30 30 26 21 19 19 18 18 19 21 21 24 26 26 24 18 17 19 19 18 17 22 26 30 36 45 39 38 36 38 48 51 59 51 66 79 80 82
33 32 32 33 33 32 29 27 27 28 28 25 24 21 20 21 23 28 31 28 26 23 19 19 20 21 23 19 19 23 29 32 42 34 33 35 44 59 66 57 49 57 68 81 81
33 32 31 31 30 31 31 29 28 28 29 30 29 27 26 26 30 33 31 30 27 24 21 19 19 20 24 24 26 25 25 31 35 32 31 36 48 61 67 66 54 58 67 77 76
38 34 33 31 30 30 30 28 28 29 29 29 29 29 27 33 32 31 34 32 29 26 22 20 20 22 23 27 29 29 24 30 33 35 36 41 50 65 67 70 64 54 59 71 70
44 43 37 35 33 31 30 28 26 26 28 29 31 29 30 36 32 37 36 35 30 28 25 22 20 24 25 26 28 30 34 29 34 37 37 38 53 56 59 57 55 53 53 64 79
50 38 36 36 35 33 32 31 27 25 27 28 30 32 33 31 28 36 39 38 30 29 28 24 23 25 26 23 24 26 29 25 32 39 50 48 57 60 62 63 60 48 47 50 65
42 51 38 32 29 29 33 32 30 28 27 27 28 32 35 27 25 28 35 37 32 31 31 29 25 23 24 22 23 28 24 32 33 46 49 44 59 62 65 65 64 36 42 44 48
30 35 34 34 31 23 21 25 29 28 28 31 30 33 37 33 29 24 30 36 36 34 31 30 27 23 23 23 23 26 31 33 37 46 51 46 52 60 58 63 60 49 39 44 47
32 26 26 28 28 27 17 16 17 21 29 43 41 42 33 33 29 31 29 34 39 36 32 31 27 24 23 25 32 32 35 38 42 47 59 57 53 55 57 61 51 47 46 42 44
33 27 22 18 19 17 14 16 19 31 44 45 43 34 31 35 36 32 31 32 37 39 36 33 31 28 24 23 28 31 32 36 43 47 58 55 55 45 46 61 56 44 43 44 43
24 23 24 19 20 17 14 9 16 40 35 27 30 34 33 35 39 35 32 36 38 42 40 36 34 25 24 27 28 33 33 34 40 50 48 54 52 46 47 56 53 41 43 44 43
32 27 23 21 19 18 14 8 7 29 33 16 12 14 18 24 32 34 33 34 39 41 39 38 30 31 36 35 33 31 32 29 38 46 49 46 62 59 55 58 64 54 44 41 36
37 36 28 23 23 27 19 19 11 30 34 18 8 10 12 15 23 29 36 35 42 41 41 41 36 36 41 42 36 28 26 27 38 44 47 45 53 59 57 61 64 55 48 44 38
42 43 36 28 31 28 42 24 30 22 29 10 12 12 12 13 17 25 31 39 41 45 45 40 39 39 40 41 33 25 31 33 35 42 40 37 52 47 53 56 59 58 58 51 45
49 50 50 35 28 32 45 41 35 38 47 10 16 17 19 18 18 21 27 32 37 45 46 43 42 38 37 37 31 25 33 38 39 43 50 38 49 52 54 53 57 58 61 57 44
58 56 57 48 30 39 44 58 46 42 8 8 21 21 19 21 21 24 27 30 35 41 43 43 42 39 39 39 37 31 37 49 50 56 51 42 49 47 48 45 45 50 50 51 47
68 67 64 59 43 50 50 70 59 18 14 11 13 34 30 22 25 27 32 33 33 37 44 47 48 41 38 40 41 31 36 50 51 61 52 50 56 50 51 45 39 43 47 41 42
80 76 71 71 60 59 62 73 38 25 15 12 23 37 33 41 31 31 33 32 34 34 41 47 43 42 39 39 44 34 41 37 46 56 65 60 52 48 48 45 42 38 41 39 37
89 83 78 81 77 77 79 53 30 17 13 19 29 31 40 49 62 48 42 32 36 35 41 42 51 44 42 42 44 37 38 51 50 70 67 58 57 55 51 43 43 42 39 37 33
97 89 79 86 85 87 69 44 32 30 29 25 23 30 40 44 51 54 58 42 36 38 41 43 49 49 48 46 46 40 39 46 49 65 70 64 53 43 51 53 45 41 36 34 34
99 91 86 92 88 74 55 48 41 34 31 29 22 26 35 47 51 52 56 54 57 57 48 46 50 55 49 50 49 41 43 40 57 53 59 71 61 42 49 48 45 46 38 37 31
98 97 96 92 81 63 51 45 42 42 38 37 34 25 28 35 52 59 62 63 66 73 59 52 49 55 52 47 48 49 48 44 44 48 52 67 55 52 46 50 45 45 44 42 37
99 98 95 86 67 55 53 47 50 48 44 38 34 35 28 39 51 48 53 57 71 74 72 71 53 48 47 45 50 51 48 45 47 58 52 54 46 47 48 53 46 46 42 42 40
98 91 76 76 63 66 68 55 51 53 45 42 37 32 28 32 43 44 45 55 64 77 75 78 69 50 43 46 48 55 54 50 47 44 46 46 53 48 48 51 55 52 49 49 49
98 91 84 71 76 78 77 59 49 46 46 47 40 30 34 36 28 38 44 50 68 80 88 81 75 62 57 48 44 52 54 52 51 46 48 46 47 46 47 44 49 50 44 47 44
99 96 94 82 85 86 60 46 49 63 59 52 45 42 35 27 39 45 41 47 58 74 92 97 85 70 61 59 54 58 48 51 50 47 47 48 38 38 44 52 50 50 47 44 43

GFSSW_prec_cthk_042.txt.gz
RH
34 30 27 24 22 21 22 23 26 24 19 16 15 14 14 14 15 16 17 20 22 25 23 20 16 17 18 17 18 23 32 36 36 36 36 37 38 41 48 51 56 51 53 63 68
37 35 33 31 30 29 28 26 24 23 23 23 18 16 15 15 16 17 20 21 23 23 23 20 19 21 21 20 22 27 32 33 32 33 34 37 35 41 47 57 56 51 56 66 71
39 38 33 33 33 32 30 30 29 27 25 23 23 23 20 19 19 22 25 26 24 26 23 22 21 20 23 21 22 24 28 27 30 33 34 37 40 50 56 57 51 51 50 67 80
49 43 39 35 32 31 31 30 29 28 27 26 24 25 25 26 26 32 30 30 30 28 24 24 21 22 24 22 23 24 25 27 30 34 33 37 39 57 59 55 47 47 51 59 75
50 48 52 42 35 31 30 30 29 27 27 27 26 26 28 31 31 25 28 33 34 32 26 25 23 21 26 25 26 29 28 29 31 32 38 38 45 56 60 60 51 46 48 54 69
55 54 51 43 44 36 33 30 29 28 28 26 25 26 32 38 29 27 29 36 36 34 28 26 24 24 24 24 27 28 30 29 28 31 38 47 52 54 62 65 58 48 47 56 75
52 56 59 52 42 36 38 35 32 30 29 26 26 27 35 33 29 30 33 34 36 36 29 28 29 27 24 24 26 27 26 26 27 34 40 45 48 54 61 63 59 37 40 48 65
54 42 48 56 50 33 29 34 34 30 31 27 27 28 35 27 28 27 29 30 36 37 31 31 33 27 25 25 23 25 25 31 33 37 42 45 55 52 63 61 51 38 35 40 40
46 51 44 36 42 47 32 28 24 26 28 28 31 36 36 31 33 30 23 30 32 34 31 34 35 28 25 25 24 21 34 36 38 37 43 51 54 50 61 62 57 42 39 37 39
43 40 36 42 29 36 31 24 17 19 19 25 40 44 36 30 33 35 29 28 31 35 33 36 36 31 26 26 27 29 36 36 36 43 48 54 50 53 54 57 57 44 40 38 36
39 46 36 36 30 33 24 23 26 35 34 30 36 36 34 36 37 36 33 27 32 35 37 36 37 35 24 22 22 30 33 35 33 38 46 52 44 45 51 57 59 40 37 40 38
30 29 38 37 29 33 29 16 22 37 34 30 28 29 26 35 40 36 36 34 33 38 40 38 37 31 25 24 24 30 32 33 34 40 48 55 50 50 46 53 60 52 39 41 43
34 33 31 28 21 16 29 26 33 34 32 17 15 18 16 21 30 34 36 35 35 41 39 39 39 29 30 28 32 33 33 32 35 37 42 51 54 51 46 52 57 59 46 44 42
38 38 38 33 19 21 24 23 35 44 30 17 9 9 11 14 17 22 32 34 36 39 41 41 41 34 36 38 38 38 32 35 30 34 42 40 50 49 46 50 57 63 52 45 44
44 45 44 38 27 25 35 27 36 32 16 8 12 10 12 12 9 15 25 34 33 38 40 40 43 42 39 39 41 37 36 35 32 35 38 38 43 36 46 49 51 60 54 54 47
48 51 50 45 36 30 36 33 45 37 39 12 13 16 19 16 12 13 15 26 31 37 40 39 41 42 39 40 42 40 38 34 36 38 43 38 41 41 47 46 46 54 52 51 53
54 56 57 53 44 36 42 50 57 50 11 7 19 19 18 18 18 17 20 24 31 37 38 40 42 43 43 42 41 41 40 45 46 50 48 39 44 38 35 42 44 48 50 46 51
64 65 64 60 58 44 51 59 62 27 14 14 15 24 24 21 19 20 23 29 27 29 33 37 44 43 41 43 42 40 41 50 51 58 43 43 42 35 36 40 43 51 46 48 46
76 76 70 68 69 58 60 65 47 38 25 14 17 24 27 28 29 28 27 28 30 29 35 40 39 38 42 43 43 41 46 42 45 53 56 45 39 35 37 38 46 44 47 45 42
82 83 76 84 79 74 71 52 44 35 22 24 23 22 34 41 45 43 39 32 33 34 36 36 42 39 42 45 43 42 42 48 50 55 59 51 43 39 38 42 47 40 45 44 41
94 92 79 93 93 86 67 51 39 37 35 31 26 31 34 44 46 47 47 49 44 40 38 39 41 42 46 46 48 46 43 46 45 58 61 57 46 38 39 41 46 42 43 47 43
99 95 89 95 95 75 55 52 53 53 47 39 30 26 32 46 56 52 54 52 58 57 56 55 46 45 40 42 47 47 45 45 51 54 57 59 42 44 39 41 40 45 42 42 45
98 95 93 89 80 64 61 62 63 62 56 52 41 29 24 45 52 54 63 66 66 64 75 73 65 56 47 45 44 49 48 47 50 52 54 62 46 35 49 46 44 43 44 45 44
99 97 92 83 66 67 72 67 65 61 57 54 46 39 32 29 40 48 56 58 64 72 73 76 83 71 59 51 52 52 51 47 48 57 52 52 40 38 42 46 47 43 41 43 41
98 88 79 72 68 71 68 60 59 58 58 54 48 44 41 36 28 29 41 62 63 66 66 73 91 90 70 61 56 52 53 52 49 49 55 47 46 39 42 44 42 43 46 46 45
96 85 82 76 75 76 71 56 54 61 58 55 54 45 40 35 35 32 32 38 54 60 77 75 86 94 71 64 59 54 51 52 51 52 52 51 47 41 39 47 51 53 44 45 46
95 92 89 85 84 79 51 43 64 72 63 60 54 52 46 42 36 33 33 40 46 55 70 69 75 89 81 79 72 68 40 47 53 55 52 56 49 39 39 39 47 51 48 44 47

GFSSW_prec_cthk_045.txt.gz
RH
35 37 36 31 26 23 20 18 18 17 18 19 18 14 13 12 11 12 14 17 19 20 23 20 21 19 18 17 18 18 28 35 30 28 30 31 35 41 46 55 58 53 50 50 60
42 38 40 39 36 33 27 23 21 19 19 19 19 20 19 15 13 13 15 20 22 23 22 22 23 23 22 22 22 21 29 32 28 26 26 33 39 46 54 53 51 47 44 49 70
43 43 44 45 38 38 37 31 27 24 26 25 23 21 21 21 19 18 21 23 23 23 24 23 26 26 22 24 24 26 28 29 27 26 25 34 42 46 52 53 52 46 42 47 61
50 43 51 47 40 44 39 35 30 28 27 26 25 25 24 24 25 31 30 30 29 27 28 26 27 27 24 25 25 24 26 27 25 24 30 37 42 46 54 54 56 44 41 43 50
69 56 47 50 46 45 42 38 33 30 25 25 24 25 25 29 28 30 34 34 31 33 32 28 28 28 26 26 25 25 25 26 25 26 33 39 45 50 53 56 58 43 39 49 63
67 69 58 58 54 49 47 41 37 33 28 25 24 24 28 36 28 30 27 30 31 35 33 30 28 29 28 24 28 27 24 24 26 29 37 43 47 48 52 56 52 39 36 51 65
65 68 62 56 56 58 58 45 44 37 32 27 26 25 29 27 26 30 32 33 35 38 36 32 28 33 32 24 26 23 25 25 28 31 40 44 48 53 50 56 51 43 36 44 54
55 63 61 60 58 59 54 49 39 34 35 30 27 30 30 25 25 30 30 33 33 36 38 34 31 34 35 24 24 23 24 25 29 36 38 44 46 47 53 55 53 46 35 37 43
62 56 52 57 51 50 53 48 40 28 29 29 31 34 35 30 30 33 33 31 34 35 36 33 36 36 36 28 26 23 26 31 35 36 43 49 48 48 52 54 51 44 35 33 38
33 48 50 55 52 44 35 38 46 30 26 28 35 37 32 30 33 35 36 36 29 35 36 33 39 38 37 33 28 24 29 32 35 36 42 50 50 50 51 51 53 43 34 32 34
41 32 36 38 56 38 38 36 34 43 45 32 33 31 30 37 38 37 37 34 31 35 38 34 39 40 40 30 25 25 31 31 32 34 38 44 55 50 50 50 54 51 36 34 30
32 42 33 24 34 46 41 45 45 49 46 37 33 31 22 27 40 38 42 37 33 36 41 40 35 40 39 32 28 29 32 31 31 35 38 43 54 49 47 46 53 53 44 33 32
33 34 38 33 26 28 31 46 55 57 46 32 22 21 20 20 25 30 40 41 37 37 38 41 38 39 39 33 31 29 31 34 34 34 38 47 49 53 45 46 52 55 51 38 33
37 39 36 35 31 26 26 36 42 50 51 29 19 13 19 21 23 17 28 40 39 37 40 42 39 41 40 35 32 33 32 37 40 35 39 40 49 41 51 43 47 52 53 45 35
39 42 42 36 37 31 41 35 39 43 20 9 21 13 16 17 12 14 15 31 38 40 41 42 41 41 44 38 39 35 41 43 43 41 37 38 43 37 44 42 44 47 51 52 46
40 44 45 42 39 40 29 36 48 43 32 13 14 21 21 20 13 11 14 20 33 37 42 42 42 42 42 39 43 42 43 42 43 45 46 38 40 38 41 38 37 42 43 47 51
45 48 50 48 49 46 35 45 54 54 15 10 19 22 22 24 18 17 14 20 31 39 38 39 40 41 43 44 42 46 45 50 48 51 47 36 45 38 32 33 33 39 40 41 46
51 56 57 51 57 53 46 55 56 35 26 16 17 21 25 25 19 19 21 20 26 30 35 38 43 41 42 44 43 45 48 55 52 57 44 43 48 36 30 31 29 33 35 39 41
59 64 59 56 66 64 56 60 50 47 34 26 21 21 27 27 29 24 26 27 21 26 31 39 38 33 36 40 45 46 52 45 48 54 57 45 38 32 29 29 31 33 38 40 38
69 75 62 71 75 77 67 56 51 49 41 29 32 30 31 32 32 36 36 37 33 30 30 34 38 33 33 37 43 47 49 53 56 57 63 50 47 38 27 28 34 34 37 37 33
82 89 66 81 83 86 71 55 55 47 44 35 33 31 38 41 40 37 39 48 49 43 41 38 37 35 33 40 46 49 50 50 51 59 54 50 43 34 27 30 34 38 39 37 34
94 97 79 88 88 76 67 65 60 57 48 43 36 33 34 45 42 37 46 43 54 53 58 54 46 46 39 41 45 48 51 53 57 55 61 58 38 35 32 38 38 40 40 37 37
98 97 91 94 83 70 73 75 74 66 62 60 53 42 31 35 46 44 51 62 58 58 64 60 67 60 46 44 47 47 48 51 56 59 50 59 41 33 33 34 36 36 34 36 40
99 97 98 92 78 78 86 82 78 68 69 68 63 55 46 38 37 48 55 67 62 65 66 65 69 73 77 72 73 67 60 55 56 61 57 48 45 39 36 32 33 39 40 36 39
97 87 89 85 81 82 82 76 75 72 70 68 60 58 56 56 43 42 45 51 62 75 73 71 76 73 72 71 68 66 64 59 52 50 53 49 50 44 39 38 32 35 40 38 39
94 88 89 88 88 87 82 68 75 77 73 69 66 63 58 54 54 47 48 46 51 57 68 78 78 81 74 65 66 65 60 59 59 57 56 55 52 48 45 43 39 38 38 39 40
91 93 95 90 86 80 72 79 77 76 72 67 69 69 65 55 54 49 44 41 46 54 61 69 76 82 79 75 69 57 63 66 62 56 56 57 57 54 50 50 47 43 39 42 43

GFSSW_prec_cthk_048.txt.gz
RH
41 38 41 40 39 36 32 29 25 21 18 18 17 16 16 13 11 11 11 12 14 18 20 21 20 20 23 23 20 22 20 26 27 28 26 28 29 41 52 53 58 58 52 44 49
49 46 40 39 38 40 39 37 35 29 23 19 18 17 17 17 17 14 13 13 16 19 22 22 20 21 25 24 22 22 22 26 26 28 27 25 28 37 53 55 56 61 56 45 47
55 55 52 48 39 41 42 38 41 37 33 25 22 20 19 19 19 22 22 18 19 22 22 21 25 27 29 28 25 24 22 25 26 28 25 25 32 39 50 53 52 56 53 46 47
42 58 62 62 63 43 45 41 44 44 39 34 27 27 25 26 26 30 30 27 25 24 24 24 29 31 29 29 27 26 23 25 25 27 24 30 33 41 49 51 54 50 44 42 52
42 47 56 62 63 56 48 54 43 39 35 38 33 32 30 31 30 28 36 33 32 32 30 29 31 31 30 29 29 26 24 24 26 25 23 31 36 44 50 51 53 50 40 45 64
43 49 50 59 64 62 49 48 57 43 41 41 36 31 30 39 26 27 27 33 36 34 34 33 33 30 30 33 31 27 24 23 22 24 28 35 39 47 48 53 56 52 37 46 61
31 44 58 51 63 65 64 55 58 60 41 40 39 34 34 33 24 26 27 31 34 33 34 36 34 34 32 35 33 27 25 24 22 23 30 36 43 47 47 55 57 53 40 38 44
25 33 51 63 64 65 59 50 51 67 60 44 40 38 38 35 26 25 25 28 36 36 36 36 34 34 36 34 34 29 26 23 22 28 29 36 38 39 46 50 55 51 45 33 38
17 30 27 46 57 55 53 53 50 60 57 52 46 41 38 39 33 33 32 27 34 41 41 38 34 36 39 38 37 32 26 24 25 27 31 36 40 41 50 51 54 52 44 35 37
19 25 32 29 41 46 51 48 41 56 57 48 47 45 34 36 39 44 42 38 32 39 42 40 36 40 42 42 44 32 28 29 30 29 35 37 38 41 46 49 52 52 49 38 34
22 25 29 32 31 40 37 50 45 44 50 53 51 39 35 35 45 43 42 42 38 36 41 40 39 38 43 42 37 30 29 31 31 33 34 33 33 32 44 49 52 54 51 38 34
23 25 25 30 34 37 41 42 63 58 56 45 46 46 37 35 39 40 44 43 37 37 40 42 37 38 43 43 40 34 31 31 31 32 37 37 36 34 40 47 48 53 51 43 37
25 25 25 28 28 34 40 43 49 64 62 47 39 39 41 34 32 29 42 47 43 39 39 43 39 39 43 45 43 39 33 32 31 36 41 43 38 38 36 43 45 48 51 44 37
27 25 29 30 30 34 37 43 50 43 53 30 33 31 35 29 30 22 27 38 46 42 41 42 40 40 40 42 41 41 32 28 29 39 45 43 48 34 33 35 41 44 48 45 42
27 27 36 35 37 41 40 42 43 53 19 11 21 23 31 31 22 25 18 24 37 46 44 43 41 42 43 43 42 41 35 33 39 44 44 41 45 33 38 31 33 38 45 46 45
27 32 38 38 39 46 42 37 49 54 42 13 17 29 37 25 24 28 28 26 22 40 49 45 44 43 40 43 43 39 40 46 50 50 53 42 45 38 35 31 27 32 38 43 43
26 35 40 40 44 51 47 45 56 59 20 19 23 22 27 36 28 21 24 27 27 40 45 46 46 46 44 46 47 43 47 58 58 61 57 41 46 36 30 27 26 28 33 39 40
27 38 40 41 49 55 53 55 61 43 35 22 22 24 27 33 34 29 22 21 20 24 36 44 46 45 45 46 48 48 49 62 62 64 51 48 51 40 33 27 25 28 31 35 35
30 39 40 42 55 60 61 62 53 49 43 32 23 24 29 30 39 29 34 28 17 22 27 40 40 36 39 41 45 51 53 47 56 61 65 51 45 38 35 28 28 26 29 31 36
36 42 41 48 61 66 69 60 54 57 51 40 35 31 36 36 36 41 39 46 34 28 30 35 38 36 40 43 47 49 49 56 60 60 64 57 52 43 35 33 30 30 30 33 38
44 48 40 53 70 76 67 68 58 53 59 45 43 41 37 37 39 42 51 55 54 45 35 31 34 33 34 43 45 48 51 52 55 61 61 57 49 41 37 34 33 31 32 34 36
54 55 50 60 79 78 68 66 63 63 60 57 51 44 43 37 39 40 47 50 59 57 55 49 47 47 38 36 43 45 47 53 62 56 65 62 48 38 41 43 41 43 34 34 36
57 53 56 73 81 83 77 69 71 73 70 69 57 51 39 40 44 43 56 62 61 64 66 58 62 66 50 42 49 52 53 56 55 55 55 62 53 41 43 43 41 40 39 35 34
64 64 61 79 83 91 90 80 73 75 83 80 74 67 59 52 47 55 51 59 61 68 61 59 68 64 77 65 61 64 58 60 65 65 57 49 50 48 45 45 44 42 39 36 40
69 63 68 76 87 92 91 84 89 87 85 83 77 77 76 68 57 56 57 53 50 61 62 59 65 69 66 66 59 54 58 60 62 64 65 55 52 51 45 45 46 45 41 38 34
69 66 70 81 87 96 97 91 88 87 85 86 81 85 84 76 65 56 49 53 55 52 58 60 63 69 73 66 65 52 54 56 58 61 58 54 49 50 47 44 47 45 45 43 39
72 75 80 77 93 98 88 89 91 89 85 82 85 88 85 79 70 61 52 44 45 50 64 68 70 69 69 69 70 63 48 52 51 50 51 56 54 52 49 46 49 48 48 48 46

GFSSW_prec_cthk_051.txt.gz
RH
35 40 42 38 35 34 35 33 34 34 35 30 26 20 18 17 14 11 10 11 11 14 18 18 18 18 21 24 26 24 24 23 22 22 20 24 27 31 38 46 50 54 57 56 49
31 32 35 42 44 41 40 41 37 36 37 35 32 27 20 20 18 18 14 12 12 16 19 19 19 19 22 26 27 25 25 21 21 20 23 24 26 30 37 45 48 53 51 49 42
26 28 28 32 39 47 44 43 42 39 39 39 37 36 27 24 21 22 24 21 16 19 22 22 20 18 25 28 28 25 24 23 21 22 24 24 26 31 35 41 46 51 47 44 42
21 23 28 30 36 40 48 49 50 41 38 42 42 42 36 30 29 32 31 29 26 24 25 21 21 22 28 31 30 28 26 26 24 24 25 24 28 33 38 40 46 48 47 40 55
15 18 24 29 34 38 45 51 54 54 44 49 44 56 41 39 37 28 39 39 36 33 28 23 24 27 30 30 30 30 28 27 25 24 24 26 28 36 41 41 48 50 49 37 53
16 18 21 26 32 41 45 54 56 55 48 55 54 49 44 48 39 36 36 41 41 38 37 33 28 29 30 31 31 31 30 27 24 23 25 26 31 40 40 44 49 51 51 36 44
15 15 19 17 23 34 48 54 59 58 48 50 63 63 47 42 42 41 35 33 38 40 38 40 34 31 30 34 33 33 32 29 24 23 25 29 35 39 41 45 50 52 50 36 37
14 14 14 18 18 26 34 48 52 50 50 49 59 63 54 44 46 45 33 31 31 36 36 37 36 34 33 36 37 36 34 31 24 25 27 29 31 32 39 46 47 53 49 40 34
15 14 14 17 19 24 28 32 40 43 47 47 53 61 57 54 56 48 42 37 29 36 38 37 37 34 33 38 40 38 35 31 24 25 30 30 29 35 43 47 45 49 50 46 33
15 15 16 20 22 22 27 29 25 37 50 48 49 60 61 50 57 59 53 48 36 37 46 44 42 39 34 36 41 41 38 29 25 28 34 31 29 36 43 48 45 46 50 48 38
13 15 18 22 22 24 24 21 29 30 41 55 50 47 52 52 46 58 48 52 48 35 47 47 44 40 36 39 44 39 35 31 26 28 30 33 28 30 37 46 47 46 48 51 41
15 16 20 24 25 25 26 33 40 52 38 47 46 47 42 51 50 48 56 52 52 47 45 48 44 43 43 41 41 39 37 34 28 31 33 33 32 30 34 41 42 44 47 52 46
18 19 23 22 26 28 33 36 43 45 48 32 40 44 51 42 54 43 44 43 58 50 47 44 43 43 44 44 43 41 40 38 31 33 35 36 36 30 31 36 39 42 44 51 46
20 22 25 24 27 33 36 40 42 43 47 27 29 35 36 43 48 49 34 43 51 54 48 45 42 43 44 44 44 41 41 40 35 36 33 37 39 33 30 29 34 35 42 47 50
20 22 27 26 29 35 36 38 39 49 25 13 21 28 31 36 36 46 36 29 39 52 50 45 44 43 45 43 45 43 43 42 34 35 37 38 39 32 30 27 29 31 36 44 47
19 20 26 28 32 40 39 38 41 53 36 16 25 32 32 33 35 44 40 34 29 43 51 48 46 44 41 42 43 45 43 44 43 43 45 40 41 31 30 26 25 25 27 39 44
17 20 25 27 34 42 41 40 49 55 25 25 27 25 25 34 36 40 44 36 36 44 46 45 50 50 47 46 47 48 47 49 52 54 46 47 49 36 32 29 25 24 24 35 41
18 21 22 26 33 44 47 51 58 41 40 30 28 25 28 32 34 39 38 39 38 37 37 40 50 54 51 49 46 48 50 52 55 58 49 51 49 37 33 30 28 23 26 32 36
23 23 21 22 34 44 51 57 49 47 44 40 31 25 33 36 40 38 51 31 27 36 38 44 42 43 48 50 51 57 57 48 55 60 59 50 44 38 35 34 32 26 24 28 33
25 27 21 23 37 51 59 53 49 53 55 46 41 33 40 41 43 41 51 62 41 24 29 33 38 39 44 49 52 52 51 57 58 56 56 51 51 44 40 38 34 31 25 26 32
34 37 27 31 41 54 62 57 50 43 55 54 51 48 44 48 47 44 52 53 60 59 27 31 31 40 41 47 49 53 52 52 53 57 55 57 51 46 42 39 36 33 29 29 33
38 42 39 45 51 56 64 63 47 46 52 57 53 54 54 51 53 48 53 55 61 63 61 45 38 40 39 39 49 52 53 54 59 56 63 62 51 47 44 45 44 39 34 30 34
47 44 37 51 59 60 63 63 56 55 59 67 66 58 60 54 53 48 58 61 64 67 67 62 64 62 47 46 49 58 64 60 60 58 56 60 51 48 45 44 45 43 40 32 32
53 52 51 50 53 61 65 62 62 64 64 73 76 74 67 63 59 51 48 52 58 64 69 67 66 67 58 52 53 56 51 53 55 62 59 56 55 50 49 45 44 44 44 42 37
55 55 49 59 52 63 69 75 70 76 76 77 82 86 85 79 68 58 51 49 49 56 64 64 65 65 63 59 58 55 51 50 52 51 53 49 50 51 51 46 45 44 45 46 41
57 57 56 53 60 71 72 74 83 86 83 86 90 90 90 83 76 65 58 54 51 49 62 65 63 66 65 61 58 54 51 51 52 51 51 51 49 44 43 48 44 45 46 47 48
55 57 64 63 62 66 63 73 88 91 86 84 91 94 91 87 80 72 61 53 50 53 52 63 72 68 62 64 57 52 49 47 42 39 40 42 38 40 38 39 42 43 46 48 49

GFSSW_prec_cthk_054.txt.gz
RH
23 22 22 22 23 27 31 34 33 29 27 29 30 31 34 29 22 19 15 11 10 10 13 18 19 18 20 23 22 23 25 22 20 24 21 20 21 25 27 34 41 44 44 45 42
21 20 19 19 20 21 23 26 30 33 31 29 30 34 37 34 28 22 21 18 12 12 14 17 20 20 21 23 23 24 26 24 21 23 21 21 21 22 26 33 38 43 46 45 41
15 14 14 14 18 20 19 23 25 32 33 34 32 34 37 38 39 30 29 27 21 13 17 20 20 20 21 23 25 26 27 25 22 25 21 22 22 22 26 30 36 43 49 44 35
11 11 9 10 14 15 18 21 25 32 36 37 36 38 39 42 41 39 36 35 29 22 21 22 21 21 21 23 25 28 27 25 22 26 24 23 23 24 26 32 36 42 46 43 35
14 11 11 11 11 12 15 18 24 29 41 43 45 49 48 44 50 40 31 38 38 33 26 25 23 21 22 24 28 29 30 28 25 26 26 23 24 26 30 35 38 43 45 41 34
13 14 13 13 13 13 13 12 16 27 36 50 49 53 57 55 58 55 32 36 46 42 37 28 25 25 27 28 29 32 32 30 28 27 27 26 25 30 33 36 41 44 44 41 31
17 15 15 15 14 13 11 13 10 20 29 42 49 50 56 57 60 70 42 34 39 46 42 37 32 30 30 31 29 30 34 32 30 26 26 26 24 32 34 39 42 45 45 40 31
15 16 15 15 14 12 12 13 11 17 20 30 41 50 49 54 71 70 55 38 37 41 50 46 41 38 38 34 33 33 36 35 33 26 26 28 24 32 34 38 40 42 45 42 34
16 16 15 15 14 13 12 10 10 12 19 23 38 51 46 46 61 71 62 52 43 38 40 48 45 41 39 38 36 36 36 37 36 28 26 29 26 33 34 37 40 42 43 46 43
16 15 16 17 15 16 12 11 11 13 23 28 32 49 47 49 67 72 72 69 56 39 41 45 43 38 36 36 35 37 41 36 35 31 26 28 28 30 32 36 39 42 45 45 47
14 15 18 18 18 19 15 16 18 23 21 32 28 33 47 49 57 69 71 76 67 46 41 46 46 39 37 38 42 39 40 38 33 30 28 27 26 29 31 33 38 40 43 44 47
15 17 19 19 19 24 25 26 28 31 29 22 27 28 46 47 48 59 54 74 65 58 44 52 46 42 43 43 43 39 38 39 37 34 30 25 27 30 31 31 35 39 40 42 46
16 19 21 21 21 30 31 30 30 32 31 19 23 27 36 41 46 50 63 60 70 56 47 49 43 44 48 48 48 42 38 40 41 38 30 30 29 29 30 30 34 36 35 41 44
17 21 23 23 28 30 35 32 30 30 40 18 18 30 33 39 42 48 58 58 55 60 59 48 44 46 46 46 47 46 41 42 42 40 32 33 32 29 30 29 30 31 36 37 41
19 22 24 26 30 35 36 33 30 34 24 13 20 28 36 33 34 49 57 55 49 53 57 62 49 46 45 45 46 45 43 45 44 42 37 34 33 28 27 27 27 27 31 35 39
21 22 22 30 32 29 34 32 37 41 25 18 21 24 33 35 29 41 53 57 50 54 58 56 57 50 45 43 47 48 46 47 47 43 43 33 34 27 27 29 28 26 30 30 33
23 23 24 27 34 29 35 37 43 28 22 29 27 25 25 34 37 36 51 54 56 45 46 46 56 54 48 45 48 47 46 51 49 48 43 39 41 30 34 34 29 28 28 29 30
25 24 22 26 31 34 36 42 44 30 28 29 28 24 26 33 38 38 40 51 50 47 40 39 49 57 54 49 48 47 47 46 50 51 43 48 50 36 35 32 30 27 25 27 31
29 31 26 25 27 34 42 45 29 35 34 30 24 24 28 34 39 42 44 46 47 49 39 40 44 46 51 56 52 51 52 48 50 55 54 50 48 39 35 34 34 31 30 28 31
32 33 22 27 27 45 48 39 33 35 38 35 33 33 34 40 40 42 52 59 58 41 48 51 49 44 44 53 60 59 54 56 55 58 58 46 49 46 37 37 40 38 35 32 31
38 40 27 25 35 52 51 39 36 30 38 42 44 41 39 45 45 43 55 59 60 65 44 43 56 53 48 53 54 57 59 56 56 55 55 52 50 45 44 44 42 43 40 39 35
42 43 34 39 48 51 49 41 41 31 40 40 38 41 41 45 49 46 53 59 67 64 58 41 42 56 48 48 49 55 53 52 57 60 57 58 52 49 46 43 43 43 40 38 36
48 43 39 55 59 54 48 48 51 41 40 47 50 47 44 50 55 48 50 59 66 69 73 58 47 37 47 44 49 58 56 56 57 57 59 64 55 49 46 45 44 44 44 39 35
54 53 47 55 59 57 53 51 52 42 45 51 55 56 56 56 59 56 53 50 60 69 72 65 60 52 38 39 48 52 54 56 57 61 56 56 55 51 45 42 42 43 43 43 40
58 53 51 61 51 49 55 58 51 53 47 54 61 58 62 64 62 62 57 56 48 67 80 78 74 60 55 53 47 49 50 51 53 53 55 52 49 46 42 37 39 42 45 43 43
60 57 60 56 59 55 49 54 56 60 61 62 72 70 74 71 70 70 66 61 57 54 63 68 72 74 63 56 58 54 48 45 44 42 45 45 45 44 42 39 34 33 38 45 45
64 63 66 56 56 55 57 56 50 62 62 84 86 78 84 83 81 73 72 67 61 57 65 66 67 58 56 62 54 48 47 46 47 48 45 42 39 36 34 34 36 35 35 39 44

GFSSW_prec_cthk_057.txt.gz
RH
23 21 20 19 17 16 17 17 16 17 18 21 22 21 22 22 27 30 34 28 22 13 11 17 18 19 19 19 21 24 25 25 24 24 25 28 20 24 28 23 31 37 39 41 42
16 16 15 13 11 10 13 13 13 14 16 17 21 22 21 23 25 33 35 32 25 16 12 17 20 21 20 20 22 23 23 24 26 24 26 26 22 22 27 28 32 36 38 43 43
14 12 10 8 7 7 9 9 11 12 14 17 19 24 24 25 29 36 44 39 33 27 15 20 22 23 21 21 22 24 24 28 27 26 26 25 22 23 24 28 36 35 33 42 43
15 12 10 9 9 10 9 7 7 7 11 14 18 24 32 32 34 33 39 41 38 32 24 21 24 22 21 21 22 25 27 29 27 27 25 24 24 23 29 29 33 30 33 39 41
19 14 14 11 10 10 8 8 7 6 7 10 14 21 34 44 43 38 36 42 52 39 36 25 24 22 21 21 23 25 28 29 28 27 25 26 25 23 25 31 34 31 35 39 37
14 18 15 13 12 10 8 7 7 8 7 7 10 19 31 47 50 47 40 56 46 52 45 36 29 26 23 23 24 27 32 31 32 30 26 26 24 24 27 32 34 34 37 39 37
14 14 14 14 12 11 9 7 9 8 7 6 7 16 27 36 47 50 54 61 52 42 46 49 37 28 26 28 28 31 33 34 32 32 30 26 26 25 24 32 34 36 42 39 38
15 14 14 13 13 12 10 8 9 8 7 6 7 18 25 30 43 45 58 66 67 41 43 46 41 36 30 31 32 33 33 33 34 34 33 29 25 25 32 35 34 40 43 40 40
16 14 13 13 15 13 11 9 10 10 9 9 14 18 23 29 43 45 54 67 74 43 39 46 43 38 36 36 39 38 35 36 40 35 34 31 30 24 34 32 32 41 43 42 42
18 15 13 13 14 14 12 14 18 18 18 20 23 24 26 23 44 53 59 75 84 54 40 39 49 47 42 42 40 41 40 41 40 39 34 31 32 26 33 30 32 38 46 43 42
19 16 14 12 14 15 17 24 30 38 23 18 17 21 20 28 40 54 70 80 84 73 49 48 46 47 46 44 43 44 43 41 40 37 33 33 29 31 28 30 31 37 41 43 42
20 15 13 13 16 17 29 35 32 32 28 20 18 17 16 19 31 46 66 78 85 83 65 55 45 43 44 47 45 43 43 41 41 36 36 33 27 26 27 32 30 37 42 41 42
23 17 14 14 17 26 37 38 36 37 33 19 17 17 20 20 26 41 58 67 79 88 80 62 50 51 48 51 46 46 45 43 42 40 39 33 29 27 27 30 29 33 36 41 42
24 22 15 14 25 35 41 40 38 38 38 25 20 24 25 24 28 30 51 66 67 79 81 75 52 56 54 51 52 51 46 45 46 43 40 35 31 29 28 30 32 32 31 32 37
24 23 17 18 23 35 38 38 39 41 36 18 24 23 27 27 27 36 41 51 68 71 70 67 58 52 54 52 52 48 51 49 48 45 41 37 34 33 32 35 33 31 34 34 34
28 23 18 24 30 39 37 36 43 58 37 20 19 22 22 26 30 30 40 45 58 65 63 64 65 62 53 52 50 48 51 51 52 47 47 38 37 32 33 32 33 30 30 31 36
31 26 20 30 32 43 37 43 50 40 25 29 24 22 21 27 32 32 38 41 52 69 58 54 64 62 61 58 52 50 53 55 55 54 48 39 39 33 33 34 34 33 32 36 36
38 28 25 30 37 39 47 46 48 28 27 26 22 21 24 27 35 38 42 41 44 62 66 56 63 60 63 60 54 50 52 51 55 56 48 39 45 33 38 37 36 34 33 37 35
38 34 33 36 34 35 51 55 34 34 32 24 17 17 26 26 33 36 40 52 41 50 63 53 43 52 58 60 59 57 51 49 53 57 57 44 46 41 38 37 37 36 33 36 37
35 37 34 42 40 48 60 43 34 31 32 27 21 27 34 37 32 35 54 57 56 40 54 56 53 44 54 56 58 57 55 53 55 62 63 50 52 53 41 39 43 42 43 41 43
38 43 42 34 42 62 61 41 29 30 35 32 27 32 33 37 36 40 52 58 56 56 46 57 63 58 57 58 55 58 62 60 55 55 58 58 49 46 50 43 42 44 46 51 46
44 50 47 49 54 54 54 40 38 36 35 33 29 33 37 37 42 44 44 46 57 58 67 52 63 62 69 57 56 59 59 64 61 67 56 62 58 54 51 44 44 45 48 48 45
53 51 48 64 66 56 50 43 42 39 37 40 36 33 32 38 41 42 41 49 50 63 67 70 56 59 64 64 59 56 60 61 62 62 73 72 59 56 55 48 48 48 48 48 46
68 66 56 63 66 64 54 53 48 46 46 47 45 45 44 38 38 45 48 48 52 62 64 72 63 57 58 62 55 57 63 60 62 67 62 68 62 57 56 51 50 50 51 51 48
73 60 66 67 54 61 61 65 53 51 50 50 50 48 47 47 45 47 51 56 55 66 73 82 68 75 60 63 61 62 64 56 57 60 65 60 62 54 53 49 43 43 39 41 41
79 66 64 62 73 58 52 60 59 60 55 55 52 49 52 49 52 63 58 64 61 59 74 87 88 72 74 60 58 58 56 52 51 49 48 48 52 48 47 51 41 31 30 30 35
81 77 77 76 63 71 71 49 51 53 67 67 68 58 67 77 67 68 72 77 65 65 67 76 79 90 86 67 58 54 50 51 47 49 49 53 53 46 45 37 33 31 35 34 34

GFSSW_prec_cthk_060.txt.gz
RH
22 19 16 16 17 16 13 10 9 11 11 11 13 14 15 16 16 15 19 21 23 27 25 17 19 18 21 21 19 21 23 23 24 27 27 28 30 27 25 28 26 26 28 35 35
18 16 13 12 13 11 8 7 6 6 7 8 11 11 13 14 16 17 19 21 25 27 25 26 21 21 22 21 22 23 24 21 23 29 29 27 30 26 25 29 28 29 36 39 38
20 19 15 12 11 9 8 7 5 5 6 6 5 8 11 14 18 20 25 24 26 31 32 32 23 26 27 24 23 23 22 21 26 33 31 30 31 29 27 27 25 31 34 37 34
22 17 17 16 12 10 8 7 6 7 7 7 6 4 9 12 21 23 27 27 29 37 39 38 31 24 26 25 23 25 24 25 26 30 29 28 29 25 27 28 28 29 29 29 36
22 15 14 13 12 9 8 8 7 7 9 10 8 7 5 12 16 25 32 31 29 45 46 45 44 27 27 26 25 26 24 26 29 31 28 29 29 27 26 26 29 31 30 30 38
22 16 14 12 10 8 8 8 7 8 8 8 8 8 13 13 12 22 33 39 30 46 56 54 49 31 29 26 28 26 25 25 29 30 31 28 28 26 24 26 28 34 32 34 38
24 20 15 12 9 7 7 7 7 8 8 8 9 11 14 7 9 17 32 46 41 35 48 59 56 44 36 31 27 27 28 28 31 33 32 33 29 28 25 24 26 32 35 37 40
25 22 14 12 9 7 8 7 8 9 10 11 10 14 15 7 11 18 26 41 50 52 48 60 57 49 40 34 30 28 30 30 31 34 34 34 29 29 28 31 31 36 39 39 41
26 20 13 10 9 8 8 7 10 16 20 16 17 25 19 16 15 18 24 36 52 60 58 61 56 52 42 37 37 29 32 32 34 33 35 35 32 31 28 32 33 34 39 43 42
27 21 13 10 9 10 9 15 17 20 26 28 34 30 27 18 17 20 30 35 57 60 64 69 53 49 45 40 37 32 35 38 39 37 41 38 34 33 31 34 34 31 32 46 44
28 22 18 13 12 11 15 22 24 31 30 28 22 28 19 21 22 21 33 35 61 75 66 74 50 47 51 43 38 40 45 47 44 41 41 39 36 32 29 30 36 32 35 37 47
29 27 20 16 14 15 25 35 35 35 29 22 22 21 19 20 18 18 31 44 63 88 90 75 57 42 47 49 46 49 47 46 47 43 39 38 34 33 30 30 31 33 36 38 49
29 25 22 17 16 29 39 35 38 36 37 24 24 22 22 22 21 16 23 45 61 81 92 84 62 54 50 46 51 51 49 47 44 44 42 37 38 36 29 27 28 33 31 39 48
30 28 25 19 27 35 40 40 39 40 43 37 32 31 28 22 24 17 22 36 58 81 90 92 77 68 68 54 54 53 48 46 47 47 44 41 41 36 31 30 27 29 29 32 37
37 29 27 23 22 26 36 38 40 49 50 26 31 24 23 25 25 23 19 31 53 77 87 93 82 82 72 65 57 54 52 53 52 50 46 42 42 36 34 34 31 32 32 32 34
29 30 28 25 40 38 36 35 46 61 60 29 29 29 24 27 29 26 23 21 28 57 77 76 80 80 67 58 60 55 55 56 54 53 51 43 44 39 34 33 33 35 35 31 35
26 24 23 30 32 41 37 44 59 56 29 33 34 25 22 25 33 31 31 26 25 37 60 70 71 65 71 69 60 58 56 59 62 61 55 43 43 37 34 37 36 37 33 31 35
27 24 20 22 29 39 44 49 55 31 37 35 30 25 20 28 38 36 36 38 30 30 47 77 77 63 65 67 62 62 58 58 70 67 54 42 42 35 34 35 34 35 35 37 39
28 26 27 21 25 38 54 60 38 36 33 35 33 20 18 31 30 42 38 46 44 36 37 63 67 63 66 69 62 64 67 53 58 62 68 57 44 40 38 39 36 34 35 38 36
36 34 25 25 39 44 58 53 44 35 38 40 29 21 29 38 38 42 58 74 62 45 36 40 65 57 56 61 65 64 64 65 61 69 74 58 50 45 42 40 40 42 38 41 45
45 41 25 33 42 53 55 49 40 37 36 42 34 24 35 36 38 42 52 66 59 57 51 39 48 60 54 54 60 64 68 72 69 59 69 68 64 59 53 45 47 48 49 47 47
52 50 41 65 52 55 52 45 44 43 45 36 39 32 39 43 42 40 47 53 49 58 60 55 49 51 68 58 58 59 62 64 75 75 63 65 61 61 60 51 47 48 51 53 53
61 51 43 73 81 67 50 49 45 50 47 45 40 31 30 38 41 40 41 49 46 43 62 62 52 59 60 68 71 60 61 62 66 79 95 81 70 61 56 54 54 51 50 54 56
72 66 53 57 69 74 74 60 55 45 40 46 41 40 37 38 40 43 49 55 49 42 57 58 62 60 59 75 87 82 64 68 71 91 90 89 75 74 67 61 56 51 50 52 51
78 64 67 89 65 56 62 83 77 58 51 45 48 44 46 46 46 50 47 42 52 50 50 72 79 66 59 64 67 72 70 66 68 79 87 70 71 75 76 68 60 54 50 50 51
76 71 66 59 86 91 69 59 63 85 70 52 48 48 55 53 57 58 58 60 57 60 57 76 91 78 60 61 64 63 68 85 77 60 62 70 73 68 69 55 55 55 53 51 54
79 73 88 77 71 75 89 73 56 60 79 80 74 63 58 75 67 67 62 72 70 70 67 65 88 95 83 69 62 61 56 68 74 60 54 59 54 57 55 56 55 49 47 48 43

GFSSW_prec_cthk_063.txt.gz
RH
24 21 19 17 15 13 11 11 10 9 7 7 6 6 8 8 8 10 11 13 13 16 18 21 21 20 19 24 21 23 28 24 20 21 28 33 36 34 31 28 27 26 24 23 27
23 20 18 16 14 13 12 11 9 7 6 5 4 4 4 6 7 8 12 13 14 16 20 19 24 28 25 26 25 25 24 20 18 20 32 33 36 35 33 30 28 29 29 31 35
28 23 20 17 15 14 12 11 8 7 5 5 4 4 4 5 6 14 12 12 15 15 19 23 26 34 31 28 24 21 22 19 18 27 33 34 34 36 32 30 28 30 31 34 34
31 28 22 19 17 14 13 10 8 7 6 5 5 5 5 7 13 14 17 19 18 18 26 33 30 38 38 36 29 25 20 20 18 30 32 31 34 34 33 32 31 31 29 31 32
33 29 25 20 17 15 12 10 8 7 6 7 7 8 8 12 6 8 15 16 18 22 34 39 35 42 42 41 36 28 22 22 21 27 33 31 31 30 31 30 31 29 30 32 31
33 29 24 17 15 14 12 10 8 7 7 9 9 10 16 17 6 9 13 15 21 21 38 45 44 48 45 42 38 28 27 22 23 25 30 31 30 30 28 29 26 30 29 29 31
34 29 24 18 15 13 12 9 7 7 9 12 12 14 18 7 6 6 11 14 21 25 29 47 49 51 49 47 42 31 29 25 23 23 27 31 30 30 29 29 28 34 33 31 31
36 32 28 20 16 15 11 8 7 6 11 18 19 19 18 12 13 12 10 13 19 27 33 41 52 53 53 53 48 34 31 27 20 23 26 34 30 33 33 31 31 33 32 32 31
34 33 28 22 18 15 10 10 12 11 14 22 21 29 24 17 16 16 15 13 19 25 37 49 51 56 59 58 54 40 32 26 23 25 27 33 32 36 34 32 30 31 34 33 34
39 34 31 25 19 16 11 16 13 15 20 25 32 39 26 20 20 20 17 22 24 26 38 56 59 54 61 64 63 47 31 26 29 28 37 39 35 38 37 35 36 34 35 35 38
34 32 29 23 20 18 20 19 19 22 25 26 26 27 22 23 21 19 22 25 26 33 46 54 64 59 58 65 57 48 33 35 41 45 52 49 42 40 39 37 36 36 33 34 37
34 30 27 21 20 25 33 37 43 40 31 20 19 20 16 19 22 17 21 30 32 42 53 68 68 64 61 61 62 52 36 43 39 45 56 49 45 44 40 35 33 33 33 35 39
31 30 28 21 20 26 35 43 45 42 40 20 23 22 24 22 24 20 21 30 38 46 64 79 79 73 64 58 54 52 42 42 45 51 52 46 46 38 35 36 31 31 31 35 38
24 20 21 19 21 30 40 43 40 39 46 31 28 27 25 24 28 21 18 22 38 44 63 77 84 81 71 72 55 50 43 43 47 51 49 49 50 43 42 39 33 28 30 34 38
22 17 15 13 16 22 33 38 36 44 59 33 31 31 26 25 26 24 19 22 28 45 58 73 85 83 83 70 61 62 52 55 54 57 53 48 48 38 41 40 34 31 31 33 36
24 20 16 13 16 24 27 32 44 55 56 27 30 30 31 29 31 31 29 21 25 34 47 60 78 85 83 77 75 69 70 64 61 62 66 50 49 38 40 36 39 38 36 34 36
24 24 18 18 11 21 30 37 50 58 30 36 33 30 25 27 36 38 36 27 25 27 30 38 61 74 86 87 80 75 83 78 75 74 68 50 50 39 36 39 39 37 36 36 36
24 22 21 17 12 17 29 44 52 35 41 49 42 37 28 29 36 42 40 38 35 30 31 39 66 66 73 69 80 75 78 82 77 75 60 46 51 38 35 39 40 42 36 37 36
29 24 21 17 18 24 34 51 37 26 31 48 43 35 23 21 33 47 48 46 47 46 45 44 47 57 68 67 71 77 75 66 77 82 75 59 53 40 38 42 42 38 40 41 41
34 27 21 20 29 36 43 39 30 36 52 47 48 33 31 41 45 48 52 58 66 65 51 42 46 47 66 70 75 75 69 81 92 93 93 60 63 58 48 45 42 40 43 45 45
40 38 21 34 38 48 49 39 28 22 59 57 50 46 36 48 51 52 58 65 71 77 64 52 46 46 55 64 69 73 78 92 91 79 80 78 73 63 55 54 50 48 46 46 48
47 48 44 58 55 53 48 34 30 24 43 63 55 50 43 47 55 51 49 55 58 58 62 65 63 50 47 57 64 72 71 86 98 89 78 74 79 66 60 57 55 54 54 54 53
60 50 38 71 86 70 56 44 39 33 40 55 57 49 40 45 51 47 41 50 52 51 51 54 66 62 55 57 65 72 66 79 81 80 95 96 76 78 75 69 61 57 57 57 57
70 63 61 52 63 98 84 74 62 44 34 51 50 53 51 46 38 39 47 54 49 49 43 39 59 75 72 71 88 85 80 72 77 91 85 88 82 86 80 78 68 64 61 61 59
73 68 72 89 72 53 68 74 84 84 56 45 42 46 53 63 53 60 48 51 48 47 47 53 56 67 66 66 78 91 87 78 82 80 94 85 90 87 85 79 71 60 65 59 60
81 77 69 70 80 94 96 66 58 71 93 82 58 52 53 60 60 56 58 56 53 55 58 59 63 73 72 66 71 81 80 77 86 84 80 87 94 92 90 87 77 67 65 65 63
85 83 83 81 73 80 84 93 82 69 74 88 89 69 58 66 63 55 58 58 53 58 66 76 74 70 80 69 68 68 64 78 81 83 86 95 82 77 85 81 74 66 65 66 66

GFSSW_prec_cthk_066.txt.gz
RH
33 30 28 24 21 18 17 15 14 12 11 10 8 7 6 5 5 4 4 8 11 11 13 15 18 20 22 20 20 21 24 24 21 19 14 35 30 30 37 34 35 31 31 28 29
35 32 29 27 23 20 17 15 14 12 11 10 9 7 5 5 4 3 7 9 10 11 12 14 17 20 22 23 24 27 27 25 18 16 15 36 35 32 35 36 33 31 30 29 29
36 30 29 28 25 21 18 16 15 13 12 10 10 7 5 5 4 6 10 11 12 12 13 18 17 19 22 27 27 27 25 21 19 15 17 36 36 35 33 32 31 34 33 32 31
36 34 33 30 29 25 21 18 16 14 13 11 11 9 7 6 5 12 10 11 13 14 17 22 23 22 21 32 34 33 27 25 22 18 21 30 36 33 31 29 31 33 32 32 34
43 39 37 33 29 25 20 17 15 13 12 12 14 12 9 9 5 7 10 10 12 17 19 27 26 24 23 32 37 37 31 29 26 20 21 30 38 34 32 29 30 35 34 33 33
49 44 35 33 29 23 19 16 14 12 12 14 16 14 12 15 5 8 9 12 15 18 19 21 28 24 26 35 41 38 36 33 32 23 23 29 35 34 29 29 31 34 35 32 32
49 46 45 42 31 26 20 16 14 14 17 15 16 16 17 7 7 9 10 11 14 19 18 20 25 27 31 41 45 44 39 35 34 24 22 28 30 28 27 31 32 32 32 32 33
44 46 41 34 32 32 28 23 19 21 19 14 16 18 14 10 13 13 11 10 14 18 19 22 24 28 37 46 49 47 44 43 33 27 20 27 26 24 27 31 32 32 30 32 33
45 42 40 40 35 29 25 22 20 20 18 17 19 21 18 15 16 19 18 17 15 17 20 23 23 30 41 51 55 53 51 47 45 26 22 28 25 24 33 34 35 33 29 30 35
42 40 36 30 29 30 30 26 23 26 23 23 27 29 19 19 19 20 20 21 22 19 22 26 29 29 38 56 61 57 57 55 36 22 29 29 27 34 41 39 35 31 29 32 37
46 42 37 28 24 27 32 28 30 32 30 26 26 22 16 20 22 22 24 26 24 26 31 29 36 40 40 51 62 57 57 60 44 29 35 41 38 42 42 41 36 34 33 34 36
35 36 35 28 25 27 38 40 46 48 38 26 21 18 17 18 25 18 22 28 28 33 35 39 44 45 47 55 54 57 61 65 44 44 53 44 47 47 46 42 37 35 35 37 42
22 19 21 20 19 26 35 38 41 41 38 25 25 25 21 22 25 21 22 29 30 36 40 50 49 55 58 60 61 57 63 64 45 40 55 49 48 46 42 39 38 37 34 34 38
16 14 13 10 9 15 25 30 35 34 46 30 29 27 25 27 28 26 24 26 36 35 43 51 51 62 67 72 69 73 62 59 40 49 59 57 59 46 41 39 41 39 35 31 39
19 16 16 14 9 12 16 16 23 32 43 33 33 34 30 28 28 28 25 27 26 36 39 43 52 64 71 78 75 72 70 66 51 55 55 59 61 44 40 38 36 37 33 30 31
21 22 21 18 13 17 19 15 21 38 42 31 31 33 34 33 34 31 32 29 24 28 37 35 41 57 67 76 80 80 76 65 53 56 69 52 62 46 38 33 37 37 35 31 32
24 23 24 17 14 14 18 23 34 49 18 35 36 36 37 35 36 36 37 36 34 29 30 27 36 50 64 81 81 84 85 78 72 69 69 52 61 45 38 38 41 39 36 33 32
30 30 26 18 16 16 23 32 44 23 25 48 40 41 43 36 33 39 42 43 40 35 33 34 41 45 64 76 86 82 89 88 94 94 72 52 56 40 36 39 40 40 37 34 35
34 32 28 17 22 25 30 41 27 21 31 44 47 41 43 37 37 45 50 50 48 41 43 45 48 49 60 75 84 92 94 81 91 82 89 65 53 43 43 40 41 39 40 38 40
36 35 22 20 30 33 40 31 24 17 27 45 69 53 54 46 43 51 53 58 61 59 52 52 51 44 54 71 75 80 88 97 98 97 94 67 62 64 53 49 44 42 41 42 45
40 42 32 39 38 43 47 36 22 15 19 45 63 72 59 63 59 59 69 77 71 65 68 64 55 47 55 71 81 84 97 96 92 90 96 84 84 79 64 56 52 51 47 44 46
45 48 42 59 55 51 50 35 27 23 25 34 55 68 71 66 66 64 64 66 63 63 70 75 74 67 55 60 64 80 89 90 98 91 90 92 97 84 74 63 62 60 59 54 52
54 48 45 60 84 69 55 46 43 36 30 33 56 79 69 66 68 69 63 66 61 53 61 59 68 68 51 51 63 68 77 84 90 95 96 96 90 90 86 76 65 67 69 65 62
65 64 57 61 72 87 95 89 71 64 53 45 43 70 75 68 66 58 62 63 57 53 49 49 56 60 74 81 88 89 86 85 95 99 93 86 83 93 94 90 77 71 69 72 71
77 70 66 82 85 81 94 91 92 91 87 66 48 63 69 62 60 60 58 57 55 51 55 54 55 56 53 66 74 78 94 90 86 88 91 80 78 85 96 93 88 85 77 72 72
76 73 72 70 88 84 85 91 87 83 80 76 69 67 78 73 63 61 59 52 59 61 65 67 62 59 54 52 60 71 82 90 96 94 85 80 83 89 95 96 88 88 81 78 72
78 78 82 71 80 92 84 81 80 79 90 85 90 84 64 65 70 70 72 65 58 55 65 70 73 67 62 57 59 67 71 79 83 93 93 96 86 90 95 94 86 84 80 78 79

GFSSW_prec_cthk_069.txt.gz
RH
33 32 30 29 27 25 22 22 21 18 16 15 14 12 11 9 8 7 7 7 9 10 11 11 13 16 19 19 19 19 23 24 20 16 13 13 16 30 34 32 37 38 41 38 36
36 37 36 34 29 27 24 21 20 19 18 16 14 13 11 9 8 6 8 9 9 10 10 11 13 16 19 21 22 24 27 21 16 15 14 15 18 31 35 37 33 41 42 38 36
40 39 36 36 34 29 27 26 25 22 19 18 16 13 10 9 9 9 11 11 11 11 11 13 15 15 18 21 24 23 23 20 18 18 18 17 19 34 38 41 38 38 39 36 38
43 43 40 37 33 29 28 29 27 25 22 19 17 16 11 11 8 13 13 12 11 12 12 20 21 21 17 21 24 28 23 22 21 22 22 21 19 29 40 39 38 34 36 36 38
39 45 42 41 34 32 30 29 28 26 24 22 18 18 18 16 9 7 11 12 11 13 14 18 23 24 22 22 22 27 26 26 26 27 24 23 22 29 41 36 36 32 34 36 39
46 41 41 40 36 36 30 28 29 27 26 26 24 20 23 22 10 10 8 10 12 13 15 18 19 23 24 24 24 25 28 30 29 29 29 29 24 27 37 35 34 32 35 35 37
44 45 45 44 39 37 39 38 32 30 34 29 25 22 24 14 11 8 11 10 12 14 16 19 19 24 24 26 25 27 32 34 37 32 29 31 28 23 24 37 33 32 35 36 35
47 44 43 44 42 44 35 32 38 36 32 30 28 25 21 13 11 14 12 9 10 13 16 20 22 24 25 26 30 35 36 43 38 37 33 35 31 21 23 34 33 32 37 38 36
52 51 45 38 38 36 38 40 30 35 36 36 38 37 28 21 15 17 17 17 14 14 17 22 25 26 27 29 36 37 45 48 46 41 40 37 31 22 23 30 32 34 37 38 38
55 52 49 43 36 31 32 29 37 45 41 38 42 39 23 22 18 19 20 19 21 18 18 20 27 27 26 33 39 45 48 51 47 49 49 46 37 24 22 32 32 35 36 38 38
49 48 48 40 36 34 36 29 33 39 40 41 39 34 25 24 20 19 20 21 22 24 28 28 32 31 29 32 33 39 48 52 49 51 56 42 32 25 24 29 32 38 37 38 34
30 29 30 28 29 33 38 40 47 51 48 31 28 26 26 27 22 18 24 23 29 30 33 37 37 31 37 38 38 34 40 53 47 59 56 43 36 28 28 32 36 38 38 35 34
22 19 17 11 9 14 21 31 38 44 48 28 29 26 26 28 25 18 23 24 32 37 40 40 33 43 47 47 47 45 43 52 52 64 60 49 36 33 31 37 37 38 40 35 31
17 15 13 8 12 9 18 23 24 27 39 24 30 32 30 28 27 23 27 26 35 36 40 43 38 48 50 54 54 53 56 57 54 60 59 48 52 36 36 41 41 42 40 36 34
16 16 13 12 12 10 12 11 13 24 37 17 34 35 34 31 32 31 31 29 36 39 44 40 47 51 49 51 58 58 69 75 68 69 64 50 55 39 41 45 41 40 37 34 31
18 20 18 15 13 14 11 13 17 32 32 19 30 34 36 34 34 34 35 34 35 36 40 38 38 41 39 47 58 64 79 79 75 73 77 50 52 44 44 44 44 38 38 35 33
18 20 19 17 15 14 11 19 30 45 12 32 33 35 39 40 41 37 37 38 40 41 36 29 28 32 40 53 60 73 94 92 88 85 72 47 50 39 46 50 48 44 41 37 34
18 21 18 19 19 17 15 28 38 15 20 22 33 36 39 43 41 40 40 42 42 42 39 39 32 37 40 49 62 72 95 96 91 87 77 56 55 43 49 48 45 41 40 36 35
23 23 18 20 18 19 25 40 21 20 20 23 27 48 48 49 41 44 46 45 47 49 48 47 44 40 44 53 67 87 94 94 96 93 87 72 52 43 49 48 49 44 38 38 36
26 24 21 24 22 27 33 30 26 24 27 24 32 53 61 57 52 52 55 56 57 53 51 54 53 41 43 57 76 92 93 98 98 98 95 77 75 77 60 56 56 51 43 40 42
32 28 25 35 35 37 42 38 32 23 24 24 33 45 63 68 66 64 68 71 72 66 66 65 58 54 49 64 75 95 98 98 96 94 91 89 94 78 74 67 64 59 51 48 45
38 36 34 43 55 50 43 38 37 36 30 30 27 27 53 80 74 75 69 72 79 76 82 80 79 82 62 51 66 78 89 97 98 98 94 98 95 82 80 75 71 65 60 56 56
42 39 40 45 52 71 73 65 57 48 40 40 37 42 56 74 89 76 75 66 67 70 71 69 81 87 64 53 66 81 89 92 95 96 91 97 91 91 83 78 80 74 71 68 69
50 49 49 59 59 67 91 92 89 82 74 69 54 44 51 67 82 84 78 72 72 71 66 64 70 76 76 80 82 86 89 92 96 98 91 90 91 94 92 90 86 85 82 82 78
58 59 65 67 72 72 89 90 97 95 89 91 75 62 65 84 78 85 78 81 77 74 66 66 64 71 62 58 66 72 85 92 98 97 98 78 81 83 90 95 95 93 84 79 78
64 67 69 70 68 78 80 88 92 94 86 95 92 78 78 84 89 94 79 77 77 78 70 66 61 65 59 55 51 58 68 80 89 96 96 88 82 85 96 95 95 97 93 86 85
69 75 73 72 70 76 78 75 88 87 81 84 87 89 77 69 83 88 83 75 74 67 65 72 78 70 66 61 51 48 56 66 78 85 85 96 83 86 92 90 94 96 95 91 86

GFSSW_prec_cthk_072.txt.gz
RH
30 29 29 28 27 27 26 25 26 26 24 22 20 18 16 15 15 13 11 9 9 11 11 11 11 16 19 19 22 22 24 24 20 18 16 15 15 14 15 22 25 29 35 38 39
32 31 29 30 30 29 27 24 24 26 26 24 23 23 20 17 15 13 13 13 12 13 14 13 12 13 17 19 21 23 27 20 18 18 17 16 16 15 17 23 30 33 40 45 48
36 35 34 33 33 30 27 25 25 26 25 26 25 25 23 21 17 17 17 15 13 13 13 13 13 14 16 18 21 23 23 21 21 20 21 20 17 16 20 23 31 35 43 41 40
38 37 36 35 34 32 31 30 29 28 27 26 27 27 27 24 19 19 18 19 17 15 14 16 19 18 16 18 19 24 22 22 22 22 23 21 20 20 20 23 34 36 40 34 32
43 43 39 35 32 31 32 31 28 27 27 28 32 32 32 29 19 17 17 17 17 14 15 15 19 21 20 19 19 22 21 21 23 26 26 24 22 21 21 24 34 38 38 35 35
44 42 38 35 30 31 33 32 32 30 30 28 30 30 35 35 25 20 15 12 14 14 14 16 16 20 21 22 23 22 24 23 24 25 28 29 24 25 20 21 33 35 35 31 34
45 41 37 34 30 30 33 37 32 31 35 34 32 37 42 31 33 27 18 12 11 14 14 17 17 19 20 20 22 24 25 24 23 28 33 35 28 26 20 21 31 33 32 31 32
42 41 40 36 35 33 35 35 36 39 34 35 42 40 36 32 29 27 24 15 14 14 16 18 20 20 20 20 21 25 28 32 27 28 34 39 30 29 24 23 31 34 34 32 31
46 45 43 39 40 39 38 34 35 37 46 41 38 45 42 36 32 30 30 28 18 14 15 19 22 23 22 23 27 31 35 35 34 35 38 42 36 32 28 26 23 36 34 30 31
48 46 45 42 43 41 39 36 36 37 39 43 51 50 37 44 41 43 37 32 32 26 22 23 25 25 24 27 34 35 39 38 36 34 42 45 41 35 34 29 26 25 33 31 31
40 38 34 32 30 31 36 37 38 42 42 37 34 37 36 30 41 39 34 31 32 29 26 30 30 29 26 28 28 32 35 36 34 36 45 48 43 37 37 33 27 23 27 28 30
31 27 25 24 21 23 30 36 47 47 43 30 30 32 29 33 42 25 30 28 28 29 32 38 41 30 31 32 32 34 35 33 31 32 47 48 44 40 45 39 25 25 29 29 34
24 22 19 16 15 15 19 24 28 31 34 20 26 30 33 34 34 31 26 29 35 36 39 40 34 38 39 40 47 48 46 43 39 38 44 48 41 45 41 35 24 27 30 29 31
24 20 17 14 15 11 16 18 20 22 36 17 28 32 32 33 37 29 31 29 36 39 43 44 36 38 41 51 49 52 48 48 44 46 52 50 50 49 41 29 26 32 35 33 35
19 16 15 13 13 11 10 9 12 23 14 9 30 35 37 36 37 35 36 38 40 39 43 39 44 45 47 47 46 47 51 57 57 59 62 57 59 47 44 31 28 38 40 38 38
15 14 14 16 15 12 8 9 15 19 11 14 29 34 37 39 38 38 38 38 37 43 45 42 38 41 41 40 42 46 57 61 64 68 77 63 61 54 44 31 31 43 43 44 45
13 11 13 15 16 13 9 15 17 19 9 21 28 24 29 34 39 40 43 41 44 46 42 35 31 31 34 40 39 52 69 78 79 80 80 62 63 55 41 37 40 48 47 45 46
13 11 13 16 14 13 11 21 16 13 19 21 20 25 32 35 38 43 43 46 43 43 46 43 38 40 41 40 47 57 67 81 82 82 79 67 68 58 52 48 45 49 50 48 46
12 13 14 15 16 15 18 29 15 25 27 25 17 23 31 42 42 44 43 43 45 47 53 52 48 46 48 49 49 63 78 80 90 95 96 75 62 61 56 49 47 52 53 51 46
17 16 18 22 21 23 26 26 25 28 30 29 29 32 39 47 56 53 49 50 50 50 55 55 57 52 55 54 59 68 83 91 96 98 91 75 78 88 71 60 52 60 58 52 49
21 20 25 31 31 31 37 33 30 23 29 32 36 37 35 38 55 66 59 64 68 66 59 55 59 59 67 61 71 77 85 95 97 89 98 95 94 85 78 69 66 66 62 59 58
26 27 31 35 38 48 48 46 42 37 37 39 36 32 30 34 46 67 71 66 67 76 84 78 78 80 71 64 62 73 82 88 98 98 96 97 98 90 81 77 76 72 69 66 62
32 32 32 36 44 52 54 55 61 61 57 50 46 38 45 49 53 60 83 76 70 80 90 81 97 90 70 74 76 76 82 90 95 97 99 97 92 93 88 85 82 78 76 72 70
36 40 41 50 54 61 61 63 71 81 85 73 67 60 48 50 52 58 79 91 88 80 79 74 80 74 76 76 78 73 78 86 98 98 97 94 91 95 93 92 88 81 83 77 78
43 48 52 57 64 64 64 68 76 92 96 92 92 88 81 70 47 55 68 90 87 89 78 67 70 78 73 72 71 67 67 72 85 91 98 95 93 90 91 95 93 90 80 77 81
52 56 58 61 61 64 66 70 78 91 80 88 97 94 87 77 59 78 79 86 97 85 75 79 87 82 67 62 58 52 44 51 67 76 85 87 85 78 94 95 97 94 90 83 74
58 60 62 65 65 67 64 69 71 75 74 84 84 91 91 85 69 67 86 93 95 93 87 83 83 80 66 61 49 40 46 46 59 73 78 84 77 85 89 88 90 94 93 92 90

GFSSW_prec_cthk_075.txt.gz
RH
30 28 27 25 24 24 25 24 23 23 24 24 23 24 24 24 23 22 20 18 16 14 13 15 17 19 21 22 22 22 23 21 19 18 16 17 15 13 13 13 15 20 21 27 32
33 31 31 31 29 27 26 25 25 25 23 23 25 26 25 23 25 24 23 20 19 18 15 14 15 16 19 21 23 23 22 20 19 17 18 19 18 15 15 15 15 22 23 25 30
37 35 33 32 32 30 29 28 28 28 27 24 24 26 26 26 26 27 28 27 25 22 20 19 19 17 18 19 21 22 21 20 19 19 20 20 20 17 16 15 15 21 25 27 32
38 37 36 36 33 30 30 29 29 28 26 25 25 26 29 27 25 25 28 28 28 27 22 21 20 19 18 18 17 20 19 18 20 20 22 22 21 20 19 17 14 20 24 28 35
45 43 39 36 32 31 29 27 28 27 25 24 23 25 30 32 26 23 24 25 26 28 27 25 24 23 21 19 17 20 16 17 18 20 21 22 23 22 21 17 14 21 25 29 32
47 44 42 36 33 29 26 25 25 26 26 28 29 31 34 37 25 24 21 24 25 28 28 24 19 23 25 21 20 19 22 20 22 21 22 22 23 28 23 20 17 21 26 32 30
47 43 39 34 30 28 26 24 23 26 30 33 33 33 41 34 29 28 29 30 24 30 29 26 17 18 21 19 20 20 22 23 22 22 21 23 29 28 27 24 21 20 27 32 31
44 42 37 32 29 28 29 28 29 28 33 35 38 42 35 35 36 29 33 32 38 37 27 27 30 22 21 20 21 22 23 23 22 23 24 25 23 28 30 30 26 21 23 30 31
43 41 38 34 35 36 35 34 34 36 36 37 40 42 43 41 43 43 34 42 36 26 29 31 29 30 24 23 24 25 26 27 24 23 26 28 29 28 32 31 31 25 23 29 30
43 42 38 35 31 30 29 30 34 37 41 45 48 47 37 42 43 43 53 44 35 39 38 32 34 32 31 31 30 27 31 31 31 25 28 29 30 31 36 37 33 28 24 28 31
42 34 28 24 21 21 21 22 26 32 34 34 33 34 32 31 32 39 38 49 48 40 27 38 40 40 36 36 35 30 29 29 25 27 28 25 31 33 36 41 34 28 25 25 31
32 26 22 21 20 19 22 24 30 31 33 22 27 30 29 33 35 30 48 38 50 42 47 45 38 30 32 33 32 33 36 30 29 28 29 27 27 29 34 38 35 33 29 24 26
29 26 23 19 17 17 21 22 25 27 30 17 24 30 30 31 38 35 32 44 42 36 40 40 34 35 38 41 48 48 45 43 44 39 36 34 29 25 30 36 35 36 33 26 25
26 22 19 18 18 15 17 14 17 23 31 15 27 32 34 31 33 29 33 31 42 48 44 46 36 38 50 43 48 48 43 43 45 47 43 36 37 32 35 36 34 39 36 27 23
20 20 18 17 16 15 13 13 17 25 10 12 30 30 31 35 35 38 34 34 38 45 57 46 52 57 50 37 43 44 42 46 51 52 52 49 51 38 37 37 36 35 30 28 27
19 18 17 15 15 14 10 10 16 13 7 12 23 23 19 27 34 37 42 44 47 50 54 52 43 45 42 42 43 43 42 47 54 57 60 47 51 44 39 38 40 33 28 30 31
17 16 19 16 11 9 8 13 9 8 8 20 24 21 23 25 28 34 42 46 50 52 49 46 46 45 40 38 38 39 47 60 63 66 54 47 57 49 47 44 47 39 30 37 37
16 14 12 11 11 9 10 10 7 12 17 22 18 14 20 23 26 31 39 42 45 46 47 48 46 41 46 44 40 51 53 60 68 65 61 58 57 51 64 57 49 42 39 43 43
12 11 12 14 12 11 11 17 12 30 27 24 17 25 25 26 27 31 38 41 39 43 50 53 51 51 55 53 48 59 62 62 80 72 80 59 55 65 65 61 60 49 43 50 53
11 12 17 18 17 16 17 20 23 29 28 29 28 33 37 27 33 34 40 55 55 47 47 51 55 52 61 61 61 59 67 85 87 82 78 64 68 80 74 66 63 55 50 62 61
13 16 24 24 22 20 28 28 28 24 28 28 35 36 34 24 24 31 46 56 64 77 60 56 60 57 62 65 67 73 70 84 94 88 86 90 93 88 84 77 73 67 63 60 67
15 21 26 26 26 35 38 39 38 37 37 34 34 30 30 32 41 38 44 57 66 73 79 84 80 68 59 63 69 66 72 85 96 93 97 93 79 93 94 84 79 74 70 74 75
21 23 27 26 34 44 42 41 46 52 55 51 49 46 47 45 45 37 41 53 70 73 82 80 91 92 82 77 77 78 78 95 98 98 94 95 91 96 91 88 88 82 79 80 79
24 30 34 36 42 45 48 51 51 71 74 81 72 68 77 61 50 42 44 52 66 94 81 69 77 96 86 77 73 73 67 73 92 97 97 97 92 93 96 95 91 82 87 84 85
30 36 41 51 55 50 52 51 58 68 67 75 97 97 95 91 70 48 42 43 59 86 98 83 79 92 82 76 75 68 63 56 64 75 88 75 83 85 86 91 97 91 80 89 90
35 41 47 51 50 50 49 49 54 59 63 67 78 87 90 95 88 82 73 53 58 83 98 98 82 91 77 67 62 59 51 48 52 64 68 74 75 75 78 86 94 94 88 85 89
42 46 50 52 55 53 51 51 54 56 57 72 70 71 83 97 95 87 70 73 74 93 98 96 95 84 71 59 56 47 46 46 46 55 69 76 73 80 90 92 90 93 93 88 84

GFSSW_prec_cthk_078.txt.gz
RH
35 33 32 31 31 29 28 27 26 24 24 23 22 22 23 23 22 22 22 22 20 22 22 24 25 26 26 27 28 26 25 22 20 19 16 14 14 15 14 13 12 13 17 19 20
37 36 35 35 33 31 30 29 29 28 27 25 25 25 24 24 23 23 23 22 22 21 21 26 27 27 28 29 28 25 22 21 21 19 16 15 16 17 17 16 15 14 15 21 20
40 39 38 35 34 33 32 30 28 26 25 25 25 25 25 25 25 25 25 25 25 23 26 24 25 28 27 28 28 25 22 22 22 19 17 16 16 17 18 17 16 13 16 20 21
41 39 38 36 36 36 34 30 28 26 25 23 23 23 23 23 23 21 23 24 25 27 28 28 29 28 25 27 23 27 25 23 20 19 19 18 17 17 18 19 18 14 15 19 21
42 40 38 37 35 33 30 27 25 24 23 23 25 26 27 31 24 19 21 25 28 28 30 32 28 27 28 27 22 23 21 18 19 19 16 17 17 16 18 20 18 17 14 18 21
45 42 40 37 35 32 29 27 26 24 22 22 24 27 34 31 26 23 21 24 28 30 32 33 33 34 35 30 23 24 21 21 21 20 18 19 18 20 19 19 20 20 17 16 22
46 45 42 36 32 31 29 27 26 26 25 24 24 28 33 31 26 29 31 27 28 29 30 31 31 35 38 34 25 22 22 20 19 20 21 20 20 20 19 20 22 22 20 15 21
51 46 40 35 33 33 30 29 28 30 30 30 29 31 33 28 31 32 32 34 29 31 36 43 37 42 38 36 27 22 22 21 19 23 23 24 22 19 20 23 24 24 21 16 18
50 43 36 33 34 32 30 29 29 29 33 31 36 38 36 31 35 41 37 41 36 33 35 34 43 42 35 33 31 27 25 25 24 22 23 24 24 23 23 24 26 25 23 20 18
48 40 35 34 33 30 25 24 25 26 29 35 37 38 35 36 39 37 40 41 48 44 38 46 38 37 41 33 37 31 29 26 28 26 25 24 25 26 23 26 25 26 26 24 22
48 41 35 32 28 25 22 22 23 26 24 24 24 29 26 28 32 36 38 38 43 46 48 37 39 41 33 39 32 37 37 30 24 23 24 21 21 23 20 23 27 29 28 27 24
43 36 33 27 22 20 20 22 23 20 22 21 28 29 27 26 27 29 37 37 44 49 49 55 43 32 35 39 44 39 39 40 41 33 30 26 26 26 20 18 21 29 32 29 26
38 31 26 22 21 19 20 21 21 22 26 18 29 31 32 29 31 28 26 37 42 47 48 46 49 44 42 38 39 40 44 36 38 39 39 37 27 22 21 20 21 26 32 30 28
31 28 24 22 22 19 22 17 17 22 24 16 28 32 33 32 36 33 26 26 36 40 51 51 34 38 46 40 42 48 52 47 48 51 35 34 31 27 25 24 21 25 32 31 28
29 25 24 20 18 20 16 14 18 25 13 18 29 28 24 29 30 32 32 30 32 35 39 43 58 50 49 43 50 52 58 45 42 42 42 35 39 30 28 28 29 31 32 32 35
26 22 20 19 17 15 13 16 20 19 11 15 22 19 16 20 27 30 32 34 40 45 48 42 43 57 55 55 52 49 44 40 39 45 49 32 39 34 31 35 36 39 35 39 36
23 21 21 18 18 15 14 17 15 10 8 19 21 17 12 18 22 25 32 35 38 44 48 44 44 49 59 56 50 48 41 35 52 59 45 41 43 34 37 45 44 44 45 43 32
20 22 21 19 15 11 11 12 9 11 13 18 17 13 13 20 19 20 26 30 35 39 40 43 48 43 50 52 50 51 45 45 56 50 46 48 44 44 48 51 52 53 54 48 38
27 23 21 15 11 8 12 14 13 23 22 21 15 16 17 25 20 21 25 30 32 35 41 45 47 50 56 57 55 65 61 53 59 52 60 39 40 50 54 59 63 61 55 51 47
23 24 20 13 11 11 14 16 20 24 24 21 19 26 26 33 21 30 29 48 54 46 39 45 46 49 58 60 58 66 65 68 72 73 60 44 51 60 72 69 68 69 61 56 52
24 22 19 14 13 18 22 21 22 23 25 23 26 28 23 26 21 27 29 55 54 58 53 46 49 59 58 63 61 69 68 70 79 74 63 61 85 94 87 81 81 78 75 65 57
15 23 19 13 23 26 28 29 28 31 33 32 31 34 31 32 26 27 26 47 70 63 62 63 67 66 54 56 56 62 64 70 73 74 82 90 78 91 88 85 88 88 83 75 65
21 22 19 19 34 31 32 33 35 39 46 45 47 49 46 45 50 39 34 32 62 73 78 75 74 70 67 68 64 65 72 82 86 87 80 90 90 90 95 90 93 92 87 81 76
23 29 30 31 33 35 37 35 38 48 53 54 64 65 63 59 71 55 50 49 49 56 79 94 66 60 60 87 78 79 70 69 71 78 71 71 78 87 93 94 95 91 90 87 82
24 30 33 42 43 36 37 37 39 47 51 55 76 80 85 80 76 78 72 42 45 51 69 85 95 64 60 79 84 72 66 60 61 57 65 58 63 65 76 82 91 89 93 88 88
27 34 35 39 40 37 37 39 40 48 45 50 61 62 71 73 88 90 86 83 65 63 68 94 97 75 67 79 78 69 62 54 52 51 52 59 68 68 76 84 92 88 93 95 93
29 33 40 40 40 38 42 43 43 43 49 52 53 54 60 72 85 86 84 82 79 78 85 97 98 82 74 77 69 60 49 51 49 49 57 64 70 73 80 85 92 91 90 96 96

GFSSW_prec_cthk_081.txt.gz
RH
37 35 34 33 32 32 32 31 30 30 30 29 28 27 25 23 22 22 26 27 25 20 20 24 27 25 27 30 35 34 32 26 26 24 23 24 20 16 15 16 15 16 16 19 26
42 38 35 34 33 33 33 32 32 31 30 27 25 24 24 23 22 25 26 25 24 22 20 25 30 30 28 29 32 35 32 27 26 24 27 29 22 17 18 17 18 16 16 17 20
44 42 39 37 35 35 34 33 30 29 28 26 24 23 22 20 24 24 21 22 23 22 25 24 28 30 31 32 32 33 31 28 26 25 26 25 23 18 18 19 19 20 18 17 20
46 43 40 38 37 36 35 32 30 27 24 22 22 21 21 21 23 24 18 19 20 21 25 25 23 25 27 29 31 36 35 33 30 27 29 24 20 17 16 17 21 22 20 17 19
50 45 42 39 37 36 34 32 29 26 23 22 21 21 22 30 30 26 22 21 21 22 26 29 28 29 29 28 27 29 30 31 30 25 23 21 18 18 15 17 18 18 19 19 18
53 47 45 42 39 38 35 30 28 25 24 24 23 22 26 30 27 25 21 23 26 28 29 33 32 34 34 35 34 33 32 29 27 23 21 18 15 16 14 14 14 17 18 20 19
57 51 48 45 43 40 35 31 28 27 27 27 26 26 30 27 27 26 26 22 28 32 37 37 38 39 37 36 35 34 32 28 27 20 17 20 19 19 17 15 18 18 19 21 21
60 56 52 48 44 39 34 32 31 30 30 29 27 32 31 29 26 28 30 32 29 30 33 33 39 41 38 36 31 32 31 32 29 29 24 27 24 21 21 16 19 20 20 21 21
62 59 52 46 41 36 33 32 30 27 24 24 32 37 35 31 32 35 35 35 36 35 33 33 35 42 47 49 48 42 41 38 30 30 30 29 27 24 28 22 19 21 21 22 23
66 58 49 42 37 34 31 26 25 24 27 35 35 37 33 32 33 35 37 33 34 36 40 39 38 43 47 44 48 37 40 38 38 33 35 31 25 22 21 24 21 22 23 24 26
61 53 46 40 35 30 27 33 39 42 34 26 24 22 20 22 20 23 34 33 35 37 38 42 45 44 41 48 44 44 35 35 39 34 32 28 26 21 16 17 19 22 23 23 25
58 50 42 36 33 33 33 32 27 25 22 22 25 26 27 26 24 20 20 27 34 40 41 45 45 45 46 38 42 42 41 42 42 44 44 39 35 26 22 19 19 18 20 23 29
53 45 38 36 35 36 30 25 20 22 26 22 28 32 32 30 29 27 22 24 27 38 41 50 53 56 53 49 43 43 39 40 43 39 36 33 38 31 27 23 21 20 17 23 31
45 40 37 32 33 28 30 24 22 22 33 27 34 33 32 29 36 26 24 24 27 33 38 41 41 50 44 44 49 49 48 51 51 47 41 50 52 41 38 34 25 21 21 22 28
42 33 31 31 31 31 26 22 23 27 30 26 35 28 19 23 24 34 23 23 25 32 34 35 44 44 47 49 42 49 53 52 49 47 46 37 47 32 36 31 29 28 25 24 30
35 33 30 32 29 26 22 18 26 41 26 24 26 21 15 24 26 28 24 25 26 32 31 35 39 39 40 52 58 48 56 56 49 44 53 37 40 38 43 48 40 39 39 35 37
33 30 29 27 30 19 17 29 39 21 15 23 24 16 12 10 17 28 33 40 36 45 47 56 49 46 47 45 53 60 56 49 45 58 54 49 49 41 52 46 48 49 51 53 50
33 31 28 27 22 19 24 31 21 15 15 17 15 13 12 12 20 20 21 23 32 43 42 38 47 55 48 45 51 54 58 56 60 56 66 66 55 61 51 46 53 58 62 63 64
30 32 28 25 20 22 26 25 21 21 19 18 14 12 15 19 29 20 22 20 27 48 50 49 46 55 49 45 48 62 60 48 60 52 46 35 33 58 58 58 61 68 65 62 61
35 41 38 21 18 21 19 20 18 17 17 20 18 16 22 26 30 25 29 40 49 50 44 37 50 56 66 48 48 50 66 83 66 70 62 46 49 87 80 71 67 67 66 66 63
43 42 31 21 20 20 27 20 17 19 20 21 19 24 23 21 23 24 23 43 62 59 64 66 56 48 57 59 51 62 58 67 68 70 75 69 86 86 81 79 74 71 71 71 69
38 48 27 16 26 23 23 24 21 27 25 26 25 28 29 28 35 36 31 25 52 62 61 79 79 59 51 54 60 60 64 73 83 62 67 70 75 86 82 85 80 79 78 77 73
37 32 17 23 35 28 24 25 30 31 32 36 38 38 38 43 47 39 38 40 35 46 83 79 63 72 64 61 61 53 47 61 75 81 75 84 86 86 80 82 86 83 82 83 82
35 35 27 24 26 33 34 32 36 39 40 40 42 46 51 49 51 56 62 57 53 61 62 77 64 70 69 74 82 85 61 61 71 78 73 73 64 78 77 80 84 81 87 91 90
33 32 32 37 37 38 36 33 39 39 41 44 54 53 49 50 48 56 72 78 71 60 52 77 76 65 63 61 72 70 93 73 77 73 64 61 55 57 70 74 83 81 90 95 95
24 32 26 37 40 39 34 35 35 44 36 48 47 49 47 48 56 61 67 74 76 73 80 80 62 83 76 70 65 57 74 64 60 53 50 52 58 77 80 79 79 82 90 95 98
26 30 39 39 39 43 43 41 37 37 39 41 46 48 50 55 53 52 55 59 63 78 81 91 81 87 74 83 65 70 69 65 57 59 57 66 71 69 80 80 76 80 91 97 97

GFSSW_prec_cthk_084.txt.gz
RH
48 43 40 37 35 33 31 29 28 29 30 31 30 28 27 26 23 21 25 24 25 22 21 19 27 25 21 27 33 37 35 32 32 30 27 28 26 25 22 19 18 16 17 20 26
52 48 44 41 39 36 34 32 32 32 32 31 29 26 24 23 22 20 22 23 21 20 21 20 25 28 25 25 26 32 35 32 33 33 32 31 30 29 27 23 20 18 17 18 23
58 53 49 45 41 38 36 35 35 34 32 29 26 23 21 20 23 26 21 16 15 16 17 19 24 30 31 31 30 28 28 31 31 33 32 30 31 31 30 24 22 22 21 20 21
64 58 52 48 45 42 40 38 37 34 31 29 25 22 20 20 26 24 21 20 18 17 17 23 21 24 27 28 32 29 28 29 29 33 33 33 33 31 31 25 23 23 24 23 23
65 61 55 51 48 45 43 41 39 35 32 29 26 23 21 28 27 27 26 20 19 21 22 27 24 23 23 23 26 27 27 29 32 34 35 34 33 32 27 23 20 21 21 22 23
68 64 59 53 52 49 46 45 40 37 34 30 27 27 27 31 28 27 25 23 23 29 29 26 29 28 28 28 30 31 29 28 26 28 30 32 27 24 20 19 16 15 15 17 19
70 64 59 56 56 53 49 46 43 39 35 32 30 29 33 31 29 27 26 23 24 26 33 33 31 33 35 34 33 34 34 34 35 35 30 29 27 25 22 17 15 15 16 15 17
70 63 60 60 59 56 50 45 41 38 35 32 30 31 33 31 30 27 26 26 25 24 25 31 34 35 38 41 38 36 34 33 29 27 28 32 29 28 24 24 20 19 17 17 19
72 68 66 62 59 53 48 43 38 35 31 30 35 40 33 34 30 34 32 30 31 28 26 28 29 31 34 42 38 40 43 42 37 32 37 38 38 37 38 37 31 26 23 22 24
76 73 68 63 57 49 44 40 37 35 34 36 38 43 39 37 36 31 32 31 31 31 32 30 31 32 36 41 40 43 43 42 38 38 44 44 41 41 34 32 26 23 27 24 25
85 76 69 61 53 48 41 43 50 54 46 37 41 33 26 25 21 20 20 31 27 31 33 33 33 35 38 41 41 41 42 39 41 41 46 42 39 34 30 26 25 15 17 21 22
76 71 63 54 47 43 42 46 41 41 34 32 26 25 26 26 24 23 18 24 26 30 33 35 37 37 40 42 42 44 40 39 37 35 39 39 46 40 35 35 27 27 15 16 21
71 69 58 51 47 42 41 37 34 32 37 34 28 30 30 26 28 29 22 23 29 30 33 38 38 44 50 46 48 45 46 41 41 41 40 44 41 41 40 33 37 31 21 17 19
73 61 53 43 43 42 45 34 35 34 42 36 30 29 28 27 34 26 23 23 26 29 33 34 34 36 42 44 42 47 42 45 55 54 55 43 54 43 44 47 47 38 28 27 23
57 47 44 44 48 44 40 32 33 34 43 41 46 36 27 24 27 39 30 20 22 31 29 25 31 34 34 37 37 37 47 49 53 52 51 46 45 37 35 41 40 39 41 35 33
50 46 45 40 37 40 33 27 30 47 41 32 38 29 19 23 28 36 28 23 21 24 25 23 24 27 25 29 40 46 47 50 51 54 61 42 47 41 42 53 65 59 54 53 34
46 38 35 42 46 34 26 36 50 45 30 34 34 23 15 12 11 16 25 38 39 41 42 45 49 48 48 41 35 42 47 56 58 54 55 70 73 48 66 72 70 63 53 56 54
38 43 38 35 29 28 30 42 43 30 32 29 17 13 12 11 11 14 19 21 23 29 36 41 41 42 60 53 48 46 50 58 62 67 59 63 90 70 61 76 70 57 52 57 59
39 36 39 40 33 27 38 48 44 42 26 18 10 11 13 18 20 26 24 21 22 21 39 56 50 52 55 54 51 40 45 50 63 54 59 53 55 80 87 77 69 60 61 62 58
53 54 48 31 22 40 44 39 34 25 17 14 14 13 18 22 26 26 26 27 41 58 56 52 59 38 49 56 54 48 45 69 88 81 64 45 58 90 87 90 80 68 62 61 61
53 55 34 30 37 38 43 38 26 18 15 17 19 21 21 21 20 20 19 19 28 48 62 65 61 47 49 73 62 53 48 41 59 71 80 89 94 97 91 89 84 74 68 67 71
43 53 41 32 46 39 34 24 19 22 20 23 21 21 25 26 27 28 30 30 30 35 43 61 73 73 59 52 57 56 56 63 78 64 71 72 77 89 85 86 77 78 73 70 75
54 50 31 41 47 34 27 22 24 26 28 28 32 32 34 34 35 35 36 40 35 33 53 55 61 73 60 58 54 63 61 75 71 75 77 91 80 80 78 77 81 77 81 80 81
54 54 34 33 33 35 27 27 29 27 33 33 35 34 39 38 42 43 39 53 48 59 54 65 66 77 75 79 84 86 81 79 64 76 72 69 79 71 77 77 84 79 81 86 87
46 53 44 39 33 32 30 29 38 33 33 33 45 39 42 46 48 45 56 48 56 61 60 74 70 68 70 63 73 80 92 80 77 86 69 65 65 72 74 81 85 80 80 86 88
37 46 36 36 35 34 34 33 36 38 31 43 46 39 45 50 48 56 52 55 49 53 66 79 73 61 64 52 61 76 76 77 78 94 83 74 63 82 80 86 86 82 80 89 90
31 35 42 37 35 37 45 42 36 32 33 31 37 42 46 49 50 50 44 39 41 45 50 74 94 90 58 64 61 67 54 57 64 74 70 70 84 76 77 81 76 81 85 90 93

GFSSW_prec_cthk_087.txt.gz
RH
59 56 52 48 46 43 39 37 35 34 33 33 31 29 27 26 26 23 23 21 22 23 22 21 19 22 19 24 30 36 39 38 36 33 30 30 30 28 27 25 24 24 24 22 23
64 60 58 57 52 47 43 40 39 38 36 34 32 29 26 24 24 22 23 23 23 22 22 22 20 25 26 22 27 31 35 36 33 32 30 30 32 32 29 27 28 25 24 24 22
71 68 65 62 57 53 49 46 43 41 39 36 33 30 27 25 24 27 25 18 17 16 16 17 17 26 29 24 22 24 25 28 30 30 31 30 29 31 31 30 32 31 29 27 24
77 74 72 68 63 58 53 49 47 45 41 37 34 31 28 26 28 29 27 25 24 22 19 18 19 22 26 31 32 30 27 26 27 28 27 28 28 28 31 31 34 33 32 29 28
82 79 78 71 68 62 58 53 52 48 44 40 36 33 30 31 30 24 28 27 24 21 21 22 25 23 23 23 25 26 26 28 27 28 28 29 27 29 28 31 31 32 31 29 28
86 83 80 74 69 65 61 58 55 53 47 41 38 33 31 38 30 31 30 28 25 26 27 28 30 31 28 26 26 26 26 25 23 26 26 25 24 30 27 30 31 30 29 27 24
87 87 83 75 70 65 63 61 58 53 47 42 37 35 36 34 31 33 33 29 24 27 30 34 32 33 33 33 31 30 29 28 26 27 27 30 28 27 26 27 26 23 19 17 16
91 87 81 77 69 66 63 63 59 52 44 40 39 39 36 28 32 30 30 30 28 25 26 29 34 33 32 33 34 35 33 32 28 28 25 29 30 27 29 32 29 28 28 28 23
94 90 83 75 70 66 64 59 57 50 44 42 38 43 40 40 37 36 35 31 29 29 27 25 26 30 32 31 35 36 36 33 27 33 36 38 38 32 33 37 40 39 35 34 33
95 90 85 79 74 68 64 57 53 51 48 44 49 51 37 39 39 37 33 31 30 31 31 29 26 27 28 32 39 39 38 35 36 33 41 39 36 36 39 41 40 39 37 34 30
96 92 89 85 80 74 58 54 55 63 58 45 53 39 40 36 30 27 23 25 28 29 33 32 33 30 29 30 32 35 35 35 32 35 44 40 38 38 42 40 36 33 31 30 25
94 90 90 82 73 67 60 65 59 53 50 42 37 40 31 27 28 29 24 22 30 30 28 33 33 28 33 34 35 39 40 37 32 35 36 34 34 36 42 37 37 33 29 28 27
77 84 70 63 60 55 57 55 50 41 40 35 32 33 37 35 34 32 26 23 28 29 29 32 27 31 38 43 45 36 42 38 40 40 39 42 35 38 35 33 35 36 37 34 33
81 73 64 64 55 58 58 49 38 37 48 46 42 41 40 34 34 29 23 21 21 23 28 31 30 35 40 42 48 39 39 37 39 43 52 49 56 41 35 34 40 47 47 39 35
71 68 68 52 64 59 53 47 42 40 61 51 50 51 42 37 33 31 30 22 19 23 28 28 28 31 31 29 34 30 32 34 37 45 51 45 52 37 39 38 40 56 59 45 43
80 65 55 50 59 52 48 36 40 59 61 52 53 42 29 23 26 34 28 25 25 24 24 23 25 30 34 34 35 31 34 38 38 44 57 48 64 62 60 47 50 62 79 64 53
63 54 57 53 63 49 36 41 59 64 46 46 45 32 23 21 23 22 24 28 37 43 40 34 35 37 38 38 36 42 49 59 48 53 54 52 64 69 78 84 81 78 82 81 68
57 51 54 56 49 50 45 51 62 51 42 43 38 31 20 12 11 11 17 18 26 35 27 28 27 32 36 40 44 50 52 65 63 60 58 54 63 72 89 93 85 90 88 79 72
57 46 44 53 43 35 43 56 52 53 45 40 35 24 12 18 19 20 23 26 35 44 48 50 34 32 42 43 47 47 57 48 58 57 66 52 47 77 85 89 92 84 79 67 63
57 69 53 35 26 37 51 54 47 46 47 38 24 18 18 26 26 26 24 27 28 36 43 55 54 38 55 57 54 46 50 64 75 87 83 61 83 97 92 84 89 89 78 68 66
60 55 42 36 46 44 54 53 46 36 30 23 20 17 20 19 23 25 24 21 25 27 34 42 59 45 47 62 59 51 49 54 58 68 75 79 79 85 84 80 84 88 83 78 69
71 76 57 42 45 59 57 47 37 30 24 20 19 19 20 24 25 24 23 24 27 28 29 36 48 56 45 45 54 53 73 73 77 71 68 79 86 86 84 85 85 86 84 84 80
71 60 29 48 62 56 43 34 27 24 27 26 29 29 31 29 30 31 31 30 33 34 39 38 48 59 35 35 48 75 81 90 88 84 96 94 83 80 74 85 89 87 84 87 87
51 52 48 55 56 46 34 29 27 27 30 29 33 33 31 35 35 36 32 35 36 39 41 45 49 53 69 52 67 93 86 84 88 98 94 90 75 80 76 90 95 91 86 87 87
61 69 57 50 43 42 34 29 39 34 33 31 36 33 34 39 37 35 36 41 42 37 42 57 63 68 59 50 61 76 84 78 80 89 96 90 85 81 81 92 97 93 88 84 86
53 50 52 47 35 30 31 30 36 41 31 45 38 36 33 40 42 44 42 47 45 37 40 50 57 68 70 54 60 67 61 64 72 89 81 83 97 93 83 93 93 88 82 85 87
51 48 52 44 34 36 39 37 34 35 32 29 31 31 36 38 40 37 36 36 38 40 38 41 56 65 65 75 69 70 59 63 61 87 78 83 96 93 93 88 87 84 79 81 87

GFSSW_prec_cthk_090.txt.gz
RH
71 70 66 64 61 58 54 48 44 42 40 38 36 35 33 30 28 26 25 24 23 23 24 25 22 20 21 18 25 27 34 35 33 32 29 30 30 30 31 29 28 27 25 23 24
76 75 73 71 67 62 59 56 52 48 46 43 40 38 34 31 29 28 27 27 27 25 23 23 22 20 25 21 22 31 33 33 31 32 31 29 29 30 31 30 30 30 29 35 34
83 81 79 76 73 69 64 62 57 53 50 48 44 41 36 33 32 31 30 23 23 23 21 20 21 21 26 26 22 26 29 28 27 28 27 26 27 29 31 31 32 30 30 30 32
87 87 87 82 79 76 69 67 63 60 55 50 46 43 38 36 36 36 33 31 29 27 26 23 20 20 22 28 28 27 22 23 23 24 24 25 26 24 27 27 30 31 32 32 30
91 88 89 87 84 82 77 71 68 62 58 52 49 45 40 38 38 30 29 30 30 28 25 25 26 25 26 24 25 27 26 27 27 26 24 25 25 23 21 24 25 28 31 32 34
94 90 88 88 88 85 79 75 69 66 62 56 50 45 43 47 35 36 36 35 32 31 28 26 29 30 30 28 27 24 24 24 25 24 25 28 24 23 23 25 26 30 32 35 35
95 90 89 90 89 84 78 75 69 68 64 58 51 48 46 44 35 39 37 37 34 29 31 33 34 35 34 34 33 32 32 30 28 27 26 30 19 20 21 22 20 21 24 27 33
95 97 93 92 90 84 78 77 72 69 64 57 52 53 46 39 37 33 36 37 34 32 29 33 32 33 35 35 34 34 32 33 29 29 24 28 20 19 22 23 23 23 25 28 27
98 98 95 92 91 86 82 79 72 68 64 59 57 55 50 37 39 38 35 35 34 34 33 30 33 33 33 34 36 35 37 30 27 26 28 33 30 23 25 28 30 31 31 32 31
90 97 96 95 92 86 82 75 68 66 65 65 60 65 43 42 42 44 41 37 38 37 36 33 30 29 30 33 38 35 32 30 30 29 32 27 29 26 27 29 30 31 34 35 37
74 83 96 91 91 89 89 88 84 74 70 63 51 48 48 45 41 38 38 37 35 35 33 33 35 33 26 26 27 30 32 32 26 26 29 27 25 20 27 33 34 33 38 37 37
68 72 85 82 78 87 82 72 69 66 62 56 47 51 43 41 35 31 33 30 30 30 30 33 34 29 33 35 34 33 34 31 23 25 29 27 23 24 27 31 32 31 37 36 34
70 77 78 84 84 64 61 66 67 58 53 45 42 44 36 35 37 38 35 31 29 31 32 33 26 31 34 36 35 36 35 33 32 32 29 34 27 25 32 36 36 36 41 46 45
80 73 86 81 60 57 63 62 59 49 48 41 39 33 39 44 41 37 34 28 29 30 33 35 28 31 33 33 31 36 37 39 38 38 33 32 43 30 38 42 44 38 47 48 47
87 79 74 58 61 61 65 58 55 45 64 48 45 50 46 43 47 39 38 32 25 24 29 27 25 28 28 25 30 32 38 37 34 35 37 26 46 30 47 77 74 70 64 65 60
78 69 56 51 72 62 71 62 40 68 69 59 60 58 56 52 45 46 45 33 30 27 24 21 23 25 25 30 31 33 36 39 38 41 47 28 40 44 71 79 76 86 78 78 73
88 79 71 76 78 77 59 54 69 80 45 61 63 59 42 38 42 44 44 31 34 36 36 30 27 27 29 30 35 38 45 59 57 54 50 34 45 49 68 78 86 83 96 86 86
83 79 76 70 73 62 54 65 79 44 57 53 49 45 32 29 28 31 27 28 35 35 33 32 29 22 29 35 33 39 52 66 70 61 40 41 46 61 71 75 77 93 95 91 87
73 67 61 62 68 68 57 72 58 58 51 51 48 47 30 27 26 26 26 26 30 25 39 41 39 29 32 35 37 42 55 57 68 55 66 49 55 77 83 81 82 95 96 94 96
67 70 72 61 48 60 77 70 54 56 53 48 45 42 41 35 31 25 25 26 27 27 28 34 36 37 30 36 47 52 58 73 78 77 75 53 56 77 75 77 79 93 96 96 91
72 68 52 52 63 60 59 58 49 52 56 52 49 43 34 30 32 31 30 33 32 32 29 30 38 35 28 43 54 60 65 76 72 74 77 74 64 61 71 78 90 93 94 92 86
77 83 65 52 52 58 60 56 52 56 53 48 40 35 27 24 23 25 30 30 30 28 31 33 36 42 30 28 33 60 80 87 97 87 84 74 63 60 75 80 86 92 93 92 89
72 54 42 69 77 61 53 57 59 48 41 36 30 32 29 30 30 29 28 31 32 29 29 29 36 41 22 19 29 49 75 84 87 93 96 97 76 75 78 86 89 93 89 86 87
76 71 66 64 57 65 64 50 44 38 32 33 37 34 31 31 29 32 30 30 32 36 35 34 39 43 55 42 38 42 53 72 86 90 89 87 82 83 88 91 89 88 89 85 85
75 57 49 61 70 59 43 36 36 35 31 34 33 29 31 36 32 32 32 32 31 38 40 42 45 48 48 47 47 47 46 60 72 72 96 82 96 96 95 91 89 84 81 82 80
53 59 69 62 54 45 42 45 37 32 34 35 34 34 34 34 34 36 36 35 37 33 40 45 47 47 32 32 42 56 48 53 60 59 72 83 93 92 96 95 88 86 83 81 77
70 60 54 49 46 42 33 33 37 34 34 32 31 30 30 33 32 31 30 29 31 32 34 43 55 58 48 51 67 73 57 45 54 69 82 91 92 95 93 96 91 86 85 78 78

GFSSW_prec_cthk_096.txt.gz
RH
69 67 69 69 69 70 70 68 64 62 59 57 53 49 47 44 42 40 38 35 34 31 28 29 29 29 28 27 29 29 34 38 30 29 26 25 26 26 26 26 26 26 26 26 24
69 68 71 70 71 72 75 73 74 68 65 62 58 54 51 50 47 47 43 39 37 36 33 31 31 31 29 31 26 32 41 33 30 27 27 26 27 26 27 28 26 25 25 26 25
62 66 65 67 70 73 76 76 76 75 69 65 63 62 54 53 52 47 42 40 37 36 35 34 32 32 33 33 30 29 33 31 30 29 29 29 28 28 27 26 25 24 25 27 28
59 60 62 60 66 68 73 77 80 77 74 71 65 63 61 55 56 52 48 46 42 38 36 36 35 32 30 31 31 31 30 28 28 27 26 26 25 25 26 24 24 24 25 27 29
51 55 62 62 64 66 69 74 78 76 76 72 69 66 61 59 62 59 54 52 49 44 40 38 35 34 33 31 30 32 30 29 28 29 29 28 28 28 26 26 26 25 24 25 27
42 51 57 64 66 69 71 72 74 72 73 68 65 63 61 59 69 62 56 54 49 46 43 41 38 35 34 36 34 33 32 31 30 30 29 28 27 28 26 25 24 24 24 24 24
25 39 50 56 69 68 75 76 73 74 73 64 59 58 54 60 69 64 62 60 54 52 46 46 41 45 41 37 35 36 36 34 32 31 32 31 30 29 26 26 25 23 23 22 23
26 30 39 54 68 68 74 87 78 80 73 63 55 65 55 65 64 65 60 60 56 51 48 43 44 41 39 38 37 38 39 40 36 35 33 31 30 27 26 25 24 22 21 20 19
24 33 33 43 53 60 77 87 79 83 77 67 68 62 56 58 58 58 53 59 52 46 48 46 42 42 40 39 40 40 43 40 38 34 31 30 30 28 26 24 23 21 18 17 16
29 34 36 41 46 57 68 78 75 92 93 77 77 76 61 59 58 55 49 49 46 47 45 45 42 41 40 42 44 45 42 40 38 32 29 30 29 27 24 22 18 16 15 14 15
29 35 40 45 49 59 64 68 94 95 94 72 89 75 63 63 60 60 54 51 51 52 51 46 43 41 39 38 37 38 40 40 35 32 33 30 27 24 21 18 16 15 18 19 22
33 39 47 46 53 62 63 69 84 92 90 93 92 83 82 72 64 56 61 59 56 54 51 48 45 39 36 34 35 35 37 38 36 34 37 32 25 21 17 15 17 22 24 27 30
42 47 51 55 57 74 74 69 72 69 88 71 71 75 81 85 75 64 60 61 58 53 50 50 41 38 39 40 42 43 45 42 41 38 36 32 26 17 14 19 23 27 28 31 37
53 57 54 63 72 70 74 79 75 71 75 40 44 56 62 76 75 62 60 56 52 48 45 45 39 37 42 41 44 47 42 41 39 41 41 31 35 18 22 23 27 27 29 35 37
54 61 80 78 79 85 90 87 88 77 86 46 40 31 46 51 49 57 58 49 47 45 46 45 39 41 40 38 42 44 39 40 39 39 42 37 36 26 28 30 33 34 41 47 49
78 86 91 99 83 96 96 92 86 81 77 57 43 42 49 51 50 51 47 48 46 45 46 41 44 44 38 37 41 41 40 38 41 42 45 33 37 31 27 35 37 43 49 52 62
98 98 95 94 98 97 96 92 87 82 59 64 58 51 51 57 58 51 55 56 53 53 48 40 41 40 42 40 39 38 43 49 50 56 46 38 43 33 30 36 41 48 55 60 67
98 98 95 95 98 97 96 95 83 57 57 51 58 57 55 53 58 59 60 56 50 55 55 51 46 46 45 41 41 46 51 57 56 56 46 37 45 38 37 43 47 49 53 63 74
93 89 83 93 98 96 94 95 77 70 62 61 79 77 62 58 59 65 67 66 56 47 51 54 51 45 43 46 52 55 54 52 52 49 53 45 40 36 46 53 57 55 57 72 78
92 94 79 89 96 95 98 87 76 70 67 72 94 84 66 62 62 66 69 68 60 53 49 51 47 50 46 45 44 46 50 61 64 68 61 49 49 54 58 63 60 58 65 76 82
79 89 92 92 93 98 96 89 78 70 73 78 80 73 62 62 56 67 70 65 58 54 53 51 44 42 37 41 38 35 40 55 64 73 78 70 61 70 74 68 62 66 70 77 86
87 88 87 89 93 91 89 78 76 72 77 74 82 75 66 62 57 58 61 58 56 48 43 41 50 48 34 30 34 30 48 46 57 72 79 86 73 71 72 67 60 67 73 82 90
91 90 86 79 91 86 76 77 76 76 77 85 80 72 69 63 62 60 63 55 50 46 43 38 43 34 32 34 36 37 35 38 42 48 56 71 57 64 67 66 60 71 76 89 91
82 89 86 88 87 81 75 81 79 78 79 73 76 77 75 71 67 61 56 46 44 46 44 38 40 31 25 23 32 33 33 31 36 52 44 36 38 38 51 53 61 76 84 89 95
83 71 67 70 86 74 73 72 75 75 75 76 71 67 64 57 49 48 47 46 44 40 36 32 35 37 35 35 35 35 26 20 28 29 46 20 24 21 33 47 64 81 85 90 97
84 78 76 76 76 69 70 74 75 76 74 68 59 47 44 45 45 48 44 42 36 31 30 33 39 37 37 31 31 29 27 33 38 44 48 35 34 30 40 55 72 82 91 92 95
84 72 70 70 75 75 72 70 70 59 49 45 45 44 44 42 39 32 25 24 24 27 28 29 35 37 35 36 32 27 33 52 57 64 78 79 62 47 51 62 79 87 92 97 95

GFSSW_prec_cthk_099.txt.gz
RH
58 62 62 61 64 61 61 60 61 58 59 60 61 61 57 54 52 48 46 43 41 38 34 31 31 30 30 32 31 30 29 28 27 29 26 26 27 26 27 26 25 25 25 23 23
52 56 58 59 60 63 63 60 59 58 54 57 58 60 58 56 54 54 49 43 40 38 38 36 36 35 35 33 33 34 33 29 29 28 28 28 28 27 27 26 25 23 23 23 23
44 48 54 57 57 59 60 58 57 60 57 54 54 57 57 58 56 54 48 45 44 41 39 38 36 37 37 36 32 32 31 32 31 31 31 30 28 28 28 27 26 24 23 23 24
36 43 45 47 54 57 58 57 56 59 61 55 55 57 56 54 58 56 53 53 51 48 44 42 42 40 37 36 35 33 33 32 31 30 29 30 28 27 26 24 25 24 24 24 24
18 25 37 43 49 55 55 57 58 61 59 57 55 57 53 48 54 63 60 59 59 55 50 46 45 42 39 38 37 37 33 32 30 30 31 31 30 30 28 26 26 26 25 24 24
13 14 19 33 43 52 55 56 62 60 60 56 55 57 51 44 58 56 57 59 58 55 53 51 48 44 42 41 40 39 38 37 36 34 33 31 30 31 28 27 27 26 25 25 24
14 16 20 23 33 41 52 53 61 58 65 62 58 52 52 46 58 54 53 55 58 60 53 50 49 50 47 46 43 42 40 39 37 34 33 33 33 31 30 29 27 27 26 25 24
13 16 25 26 32 36 47 51 63 58 69 74 60 60 53 51 55 57 59 58 59 58 57 54 53 51 50 47 45 44 42 40 38 37 36 35 34 30 29 29 29 27 26 25 23
14 18 24 28 31 35 39 47 54 64 69 68 70 66 60 52 54 56 53 57 64 58 56 53 51 53 48 46 49 47 42 43 39 36 34 33 32 30 30 30 28 27 26 23 22
15 24 27 29 31 41 38 49 53 62 64 60 64 69 66 64 54 59 59 56 58 63 57 52 53 51 48 50 49 46 44 42 38 35 34 30 28 29 31 30 28 26 23 22 20
16 24 27 29 35 40 41 55 54 57 55 51 59 56 65 65 70 69 65 65 57 56 54 56 53 47 52 51 45 45 44 42 38 34 30 31 31 33 31 28 23 20 24 24 23
22 25 28 34 37 41 49 52 53 59 59 48 56 45 54 72 76 75 75 75 59 52 55 57 50 50 51 47 44 43 40 36 34 35 35 33 33 30 25 22 19 24 26 25 25
24 30 34 37 40 51 56 55 56 64 75 45 47 45 45 78 74 75 80 80 71 63 58 56 54 51 48 48 45 43 42 42 41 40 39 36 32 26 22 22 27 29 27 30 31
33 36 37 42 48 55 58 66 59 75 96 46 47 43 42 51 59 67 70 80 78 72 68 63 55 55 52 52 49 49 44 45 47 46 41 35 35 28 24 24 29 30 31 32 32
40 43 46 49 52 61 55 67 86 86 92 59 49 44 44 49 52 50 73 77 81 78 81 72 63 55 55 49 45 44 46 49 48 46 44 39 37 31 28 28 30 31 35 35 34
50 52 52 57 64 74 89 98 91 94 95 66 55 55 56 52 56 58 71 70 72 73 67 56 53 53 53 46 40 45 53 52 51 49 48 37 34 30 27 29 32 36 39 37 37
54 57 62 74 87 99 97 98 95 93 71 71 71 74 62 59 58 63 68 64 65 64 57 55 53 56 54 51 48 49 48 48 53 58 43 36 38 27 27 35 40 44 45 43 43
66 76 98 97 98 98 98 97 95 73 67 62 57 69 60 51 53 59 65 68 65 63 57 54 57 56 56 54 50 49 49 47 50 49 45 48 46 38 44 48 50 51 50 47 50
72 83 89 94 97 97 93 92 87 84 78 71 78 81 63 57 58 58 60 62 62 62 66 65 63 59 51 49 49 53 52 51 52 56 55 46 41 44 53 58 57 55 52 51 54
69 73 85 90 95 95 93 90 82 76 75 74 87 97 73 61 68 66 68 66 65 68 66 60 60 61 54 53 50 59 62 70 70 62 53 46 48 47 60 62 57 51 52 50 51
75 76 85 92 93 94 90 87 84 80 77 79 86 93 78 67 73 79 77 78 75 71 61 58 55 58 54 55 54 46 50 66 64 68 66 58 55 65 62 60 57 58 56 54 52
75 79 84 90 95 97 95 83 82 79 81 80 90 87 76 72 71 85 80 79 75 71 67 66 64 61 56 53 49 48 56 53 46 58 67 66 56 65 65 64 63 59 57 57 53
80 82 84 91 94 92 87 82 82 80 82 91 87 84 78 74 70 73 74 74 66 65 62 55 51 46 50 54 46 45 45 38 39 46 48 54 44 58 58 54 54 52 52 53 54
79 85 85 90 94 92 85 82 82 78 84 83 89 88 80 73 68 66 63 65 67 64 59 49 47 39 36 43 47 44 42 35 33 48 35 32 23 16 16 26 36 38 43 48 51
83 79 76 85 90 90 84 81 81 82 83 76 82 79 82 77 75 73 69 61 53 51 50 50 50 40 30 32 30 30 26 26 25 22 28 15 21 20 26 26 34 35 43 52 57
88 84 80 79 77 87 84 79 76 77 79 83 78 69 65 66 58 56 48 47 48 48 43 41 45 37 34 30 32 29 24 22 24 27 32 38 42 43 47 48 39 38 54 69 73
92 84 76 75 74 82 72 77 77 79 78 69 62 57 53 51 49 47 47 46 42 34 30 29 33 31 27 31 28 26 28 29 41 53 61 65 66 72 74 73 58 53 66 75 89

GFSSW_prec_cthk_102.txt.gz
RH
46 46 48 49 55 56 57 54 54 51 51 50 51 48 50 49 48 52 53 49 46 42 38 37 36 36 34 34 32 31 29 28 27 26 26 25 26 26 27 26 27 26 25 24 22
38 38 41 44 50 54 57 56 55 52 52 49 49 49 50 48 48 48 49 46 43 40 39 38 40 38 38 38 37 35 32 30 29 30 28 27 27 27 27 26 27 26 25 24 22
28 29 32 35 41 47 50 53 53 53 52 51 47 48 51 52 47 42 42 40 40 44 45 44 43 42 40 40 38 36 36 35 33 33 30 29 29 28 28 28 27 27 25 24 24
13 14 17 24 31 38 44 46 49 49 49 49 48 47 52 51 53 42 41 42 44 46 45 46 47 45 44 42 40 37 37 36 35 33 34 32 31 29 28 27 26 25 25 25 24
12 11 11 13 16 27 37 43 48 50 51 48 50 51 50 45 43 46 48 47 45 45 50 49 47 48 44 41 41 42 39 37 37 34 34 31 31 30 30 28 27 27 27 26 26
12 12 11 13 15 19 25 35 40 44 52 47 48 52 48 40 41 45 47 46 47 46 47 46 47 45 40 42 43 42 44 42 42 40 38 37 33 33 31 30 29 28 27 27 26
12 12 12 13 14 24 24 32 31 37 41 47 46 51 46 38 48 47 50 51 54 53 49 47 43 40 41 44 44 47 46 44 44 42 38 38 35 34 32 31 30 28 28 28 27
13 13 13 14 18 25 27 31 33 33 39 45 46 47 48 40 43 53 51 47 55 58 55 51 49 46 44 43 45 46 45 46 44 43 40 39 35 34 32 31 30 29 29 29 28
14 12 13 14 23 25 32 33 34 35 41 45 45 45 44 36 39 44 55 56 63 59 59 60 55 50 51 48 45 43 45 44 44 45 43 39 35 34 32 31 30 29 29 28 27
13 13 15 16 24 27 33 31 43 42 42 42 41 43 32 35 37 38 37 43 50 57 64 64 60 57 52 50 44 50 49 49 46 40 40 37 35 33 30 29 31 29 29 29 31
14 16 21 22 25 31 32 38 47 45 40 36 34 30 34 35 35 34 41 51 61 59 67 69 72 50 60 60 59 59 53 49 46 44 41 37 33 30 32 31 30 28 29 31 30
20 22 22 23 32 32 37 44 47 41 41 37 34 32 35 42 39 42 49 52 50 55 69 75 67 65 65 63 62 61 55 49 49 45 39 37 36 34 32 31 29 28 32 34 30
22 21 22 29 33 41 37 46 44 50 65 33 35 32 44 54 50 48 47 47 47 70 63 79 71 67 65 65 65 63 57 51 46 47 44 41 37 33 31 31 32 33 33 33 34
22 24 30 37 43 40 44 47 49 63 85 41 35 39 48 55 54 53 55 56 58 63 80 80 71 66 70 65 62 58 53 48 50 50 45 45 37 35 31 32 31 35 38 40 36
30 31 37 40 41 41 47 51 52 72 86 46 49 51 50 60 56 55 65 65 64 65 71 73 76 79 83 66 62 56 58 55 53 57 52 46 43 33 33 33 37 40 41 40 35
37 37 38 44 44 49 56 54 61 84 90 72 57 53 57 61 59 59 68 74 80 95 93 88 88 86 80 79 73 64 58 57 59 54 55 43 42 35 38 35 41 45 44 40 38
42 49 46 52 62 57 61 69 85 96 73 70 63 63 57 59 61 64 75 77 83 91 90 87 83 70 63 64 68 75 65 71 70 66 52 44 38 36 46 44 45 48 45 43 41
45 50 54 58 67 78 88 95 96 83 74 58 55 58 65 62 60 60 78 81 79 74 72 76 76 67 64 62 64 59 61 69 68 54 47 50 41 56 55 53 52 48 49 48 45
55 59 67 75 75 85 95 95 90 82 78 70 65 72 70 65 57 62 68 76 68 67 70 68 71 64 62 63 63 65 64 56 59 56 56 48 53 65 66 60 57 55 54 48 43
63 65 69 76 79 87 88 83 83 76 71 68 74 88 80 64 64 66 67 67 67 71 71 68 73 67 60 63 63 66 63 68 65 64 57 44 45 52 76 65 57 55 49 49 47
59 63 70 74 79 82 83 77 79 76 73 78 80 85 88 71 68 82 70 65 66 72 74 67 67 68 64 63 60 59 65 68 68 70 64 56 53 72 68 60 57 55 52 50 48
66 66 72 76 79 81 79 81 80 81 81 82 85 83 87 80 86 83 80 72 73 73 75 69 62 59 61 61 56 53 57 56 59 59 59 65 58 69 64 61 57 56 51 50 50
70 71 75 78 77 77 78 79 80 81 82 87 84 87 79 84 76 87 92 89 85 85 79 67 63 69 64 61 57 56 56 53 52 48 50 53 51 65 60 52 43 44 37 34 36
70 72 75 78 82 83 83 82 83 81 82 83 85 88 82 82 75 77 81 81 75 72 71 63 58 53 50 54 55 58 56 50 48 51 39 36 28 45 34 23 30 43 36 32 32
72 70 70 80 84 86 81 79 82 81 81 81 85 89 95 82 75 74 71 75 73 73 65 59 54 48 49 51 46 41 36 32 28 21 27 17 18 18 31 40 42 44 44 36 38
76 71 72 72 84 86 86 81 80 83 80 81 86 79 85 88 80 77 73 73 67 61 59 56 58 47 39 36 32 26 22 22 21 19 22 23 27 49 46 54 56 56 53 46 46
83 78 78 82 84 90 84 80 80 78 80 86 78 73 73 73 72 68 66 59 53 50 49 42 40 30 23 24 23 21 24 25 25 28 42 48 52 49 58 68 65 65 65 57 58

GFSSW_prec_cthk_105.txt.gz
RH
50 49 48 44 42 40 41 46 51 52 52 49 50 50 48 46 43 43 40 40 42 42 40 41 42 41 38 36 34 34 31 30 27 28 26 27 25 25 25 26 26 26 26 26 26
40 40 41 36 35 35 36 39 42 47 49 48 47 50 51 48 42 37 36 37 37 35 36 41 40 40 38 38 37 37 34 31 32 30 29 28 27 27 28 26 28 25 27 27 26
22 24 25 23 25 29 31 32 35 37 40 41 43 46 49 49 42 34 31 29 30 36 41 41 42 41 37 36 37 38 36 37 34 33 32 32 29 28 28 29 28 28 29 29 27
13 12 11 11 12 14 21 26 31 32 34 36 39 42 46 45 46 34 37 36 36 36 41 43 42 42 39 36 37 36 37 36 37 36 35 34 35 32 31 30 29 28 27 27 27
13 13 13 13 12 14 15 18 22 28 30 33 39 42 42 41 36 38 33 34 37 37 37 39 40 41 40 38 35 32 32 36 36 35 36 35 35 33 31 31 31 30 30 29 29
14 15 14 13 13 14 16 21 21 22 25 30 34 42 42 39 34 34 34 34 37 39 41 40 42 41 36 35 34 34 30 29 34 35 38 38 37 37 36 35 33 32 31 31 30
16 15 15 15 16 17 23 20 24 24 25 26 32 36 37 33 32 32 26 31 29 35 39 42 46 43 39 38 36 36 33 34 31 36 40 42 37 38 39 37 36 35 34 32 31
16 17 16 16 16 18 26 22 29 31 32 33 33 36 32 25 22 19 23 23 26 28 34 42 42 43 46 46 42 39 38 36 36 36 35 43 36 39 38 36 36 33 33 33 32
17 16 15 15 16 18 26 26 34 34 35 34 34 33 26 27 23 26 28 30 34 34 37 43 48 50 48 51 51 49 45 43 38 41 37 36 39 40 39 37 37 34 34 33 33
17 16 15 14 16 21 26 29 36 42 38 38 35 35 23 29 35 32 31 32 36 36 38 43 41 46 42 53 55 58 62 52 43 51 40 39 38 43 39 36 36 36 34 35 33
18 16 17 19 23 24 26 34 44 44 37 28 29 24 27 32 31 27 31 31 31 30 31 39 47 39 43 56 64 61 66 65 51 49 51 42 37 41 41 38 35 34 35 34 39
21 21 21 26 27 25 36 37 38 40 36 31 26 23 29 33 29 26 33 32 35 35 35 46 55 36 51 61 72 70 64 62 64 57 52 49 43 42 40 38 39 39 38 41 48
22 24 25 25 25 35 34 40 41 42 46 30 29 25 29 36 28 24 44 41 43 45 41 48 38 44 48 76 82 78 77 62 70 70 56 49 43 44 44 42 41 40 42 52 49
22 24 26 27 33 36 42 43 44 52 67 31 29 27 30 39 38 34 45 54 54 50 54 54 43 56 53 67 80 89 76 69 73 66 56 49 51 46 43 44 42 47 51 50 49
26 25 25 26 30 36 42 45 50 60 75 25 33 38 33 36 44 47 46 60 61 66 73 55 61 61 56 54 72 81 77 78 75 64 56 55 54 45 44 44 49 56 58 57 45
30 33 35 38 39 43 46 51 57 76 61 44 32 34 41 50 53 50 53 65 69 79 85 76 83 75 69 75 83 89 86 76 71 66 69 63 59 49 48 44 55 63 67 56 45
34 37 40 40 43 47 55 61 73 71 42 45 39 44 55 57 57 53 61 72 71 86 82 83 79 85 81 86 84 89 94 90 87 82 74 56 57 53 53 48 58 76 68 52 46
40 43 42 47 54 53 63 76 72 44 47 45 47 52 60 64 59 56 62 72 70 73 84 90 88 79 80 78 85 81 85 80 84 79 68 59 60 75 70 69 76 71 56 51 48
43 47 46 56 55 62 66 77 71 80 75 74 67 70 69 64 62 64 62 71 70 74 82 77 71 65 65 70 72 85 76 64 72 70 66 74 73 74 78 74 69 69 61 55 50
50 54 62 60 65 73 76 78 68 65 64 68 70 80 73 70 67 59 63 65 74 82 73 79 80 65 64 59 64 69 72 72 75 80 63 58 64 70 83 75 70 65 59 53 51
63 65 63 65 70 75 72 65 64 57 57 63 69 82 74 75 66 63 70 66 75 65 64 73 72 73 65 59 63 64 84 76 83 74 71 65 74 87 86 82 80 74 63 59 54
64 66 64 70 73 70 64 62 57 59 61 69 74 76 75 79 70 79 73 68 65 62 70 73 77 75 64 66 64 65 60 72 87 72 83 69 74 86 81 78 76 69 62 60 54
69 66 71 74 73 68 64 63 61 66 67 78 78 76 77 81 81 92 79 75 72 68 72 70 75 69 63 64 60 58 58 59 59 56 53 64 69 82 72 67 59 47 56 50 45
74 74 77 74 71 68 64 66 67 69 72 78 84 79 81 79 77 87 88 84 80 76 75 71 68 67 67 65 60 61 58 55 56 61 52 49 44 66 54 48 58 60 55 45 42
78 71 65 68 69 68 71 69 73 73 72 76 83 84 83 83 79 80 80 82 83 80 77 76 73 63 58 54 51 51 55 55 51 48 48 41 40 38 53 61 54 44 49 48 47
81 72 67 68 68 74 79 73 73 74 70 75 80 83 87 90 81 77 76 76 72 76 72 66 65 62 59 54 48 44 40 33 30 27 25 25 25 50 50 48 52 49 54 53 52
85 85 77 77 71 78 78 77 79 83 75 82 84 81 87 87 78 77 75 74 74 70 66 62 62 52 43 41 31 25 27 23 22 22 29 36 50 50 51 49 54 60 62 60 61